[[{"header":{"parameterUnit":"m.s-1","parameterCategory":1,"la1":30.6,"la2":29.2853,"lo1":-89.7004,"lo2":-87.6739,"dx":0.0162,"dy":0.0183,"nx":112,"ny":82,"refTime":"2022-12-16T18:00:00:Z","depth":0,"parameterNumber":2,"parameterNumberName":"U-component_of_WINDS"},"data":[0.0,0.0,0.0,0.0,0.0,0.0,0.0,0.0,0.0,0.0,0.0,0.0,0.0,0.0,0.0,0.0,0.0,0.0,0.0,0.0,0.0,0.0,0.0,0.0,0.0,0.0,0.0,0.0,0.0,0.0,0.0,0.0,0.0,0.0,0.0,0.0,0.0,0.0,0.0,0.0,0.0,0.0,0.0,0.0,0.0,0.0,0.0,0.0,0.0,0.0,0.0,0.0,0.0,0.0,0.0,0.0,0.0,0.0,0.0,0.0,0.0,0.0,0.0,0.0,0.0,0.0,0.0,0.0,0.0,0.0,0.0,0.0,0.0,0.0,0.0,0.0,0.0,0.0,0.0,0.0,0.0,0.0,0.0,0.0,0.0,0.0,0.0,0.0,0.0,0.0,2.5351,2.5504,2.573,2.584,2.5712,2.5711,2.5667,2.5607,0.0,0.0,0.0,0.0,0.0,0.0,0.0,0.0,0.0,0.0,0.0,0.0,0.0,0.0,0.0,0.0,0.0,0.0,0.0,0.0,0.0,0.0,0.0,0.0,0.0,0.0,0.0,0.0,0.0,0.0,0.0,0.0,0.0,0.0,0.0,0.0,0.0,0.0,0.0,0.0,0.0,0.0,0.0,0.0,0.0,0.0,0.0,0.0,0.0,0.0,0.0,0.0,0.0,0.0,0.0,0.0,0.0,0.0,0.0,0.0,0.0,0.0,0.0,0.0,0.0,0.0,0.0,0.0,0.0,0.0,0.0,0.0,0.0,0.0,0.0,0.0,0.0,0.0,0.0,0.0,0.0,0.0,0.0,0.0,0.0,0.0,0.0,0.0,0.0,0.0,0.0,0.0,0.0,0.0,0.0,0.0,0.0,0.0,0.0,0.0,0.0,0.0,0.0,0.0,2.5534,2.6406,2.7166,2.7346,2.666,2.659,2.6314,2.5639,0.0,0.0,0.0,0.0,0.0,0.0,0.0,0.0,0.0,0.0,0.0,0.0,0.0,0.0,0.0,0.0,0.0,0.0,0.0,0.0,0.0,0.0,0.0,0.0,0.0,0.0,0.0,0.0,0.0,0.0,0.0,0.0,0.0,0.0,0.0,0.0,0.0,0.0,0.0,0.0,0.0,0.0,0.0,0.0,0.0,0.0,0.0,0.0,0.0,0.0,0.0,0.0,0.0,0.0,0.0,0.0,0.0,0.0,0.0,0.0,0.0,0.0,0.0,0.0,0.0,0.0,0.0,0.0,0.0,0.0,0.0,0.0,0.0,0.0,0.0,0.0,0.0,0.0,0.0,0.0,0.0,0.0,0.0,0.0,0.0,0.0,0.0,0.0,0.0,0.0,0.0,0.0,0.0,0.0,0.0,0.0,0.0,0.0,0.0,0.0,0.0,0.0,0.0,2.5686,2.6333,2.7301,2.7755,2.784,2.7478,2.7024,2.6597,2.6273,2.5837,0.0,0.0,0.0,0.0,0.0,0.0,0.0,0.0,0.0,0.0,0.0,0.0,0.0,0.0,0.0,0.0,0.0,0.0,0.0,0.0,0.0,0.0,0.0,0.0,0.0,0.0,0.0,0.0,0.0,0.0,0.0,0.0,0.0,0.0,0.0,0.0,0.0,0.0,0.0,0.0,0.0,0.0,0.0,0.0,0.0,0.0,0.0,0.0,0.0,0.0,0.0,0.0,0.0,0.0,0.0,0.0,0.0,0.0,0.0,0.0,0.0,0.0,0.0,0.0,0.0,0.0,0.0,0.0,0.0,0.0,0.0,0.0,0.0,0.0,0.0,0.0,0.0,0.0,0.0,0.0,0.0,0.0,0.0,0.0,0.0,0.0,0.0,0.0,0.0,0.0,0.0,0.0,0.0,0.0,0.0,0.0,0.0,0.0,0.0,0.0,0.0,0.0,2.6959,2.7508,2.8238,2.8489,2.8528,2.8315,2.7696,2.716,2.6819,2.6217,0.0,0.0,0.0,0.0,0.0,0.0,0.0,0.0,0.0,0.0,0.0,0.0,0.0,0.0,0.0,0.0,0.0,0.0,0.0,0.0,0.0,0.0,0.0,0.0,0.0,0.0,0.0,0.0,0.0,0.0,0.0,0.0,0.0,0.0,0.0,0.0,0.0,0.0,0.0,0.0,0.0,0.0,0.0,0.0,0.0,0.0,0.0,0.0,0.0,0.0,0.0,0.0,0.0,0.0,0.0,0.0,0.0,0.0,0.0,0.0,0.0,0.0,0.0,0.0,0.0,0.0,0.0,0.0,0.0,0.0,0.0,0.0,0.0,0.0,0.0,0.0,0.0,0.0,0.0,0.0,0.0,0.0,0.0,0.0,0.0,0.0,0.0,0.0,0.0,0.0,0.0,0.0,0.0,0.0,0.0,0.0,0.0,0.0,0.0,0.0,0.0,0.0,2.8039,2.9147,2.9205,2.9921,3.0095,2.9282,2.9147,2.8449,2.6907,2.6741,0.0,0.0,0.0,0.0,0.0,0.0,0.0,0.0,0.0,0.0,0.0,0.0,0.0,0.0,0.0,0.0,0.0,0.0,0.0,0.0,0.0,0.0,0.0,0.0,0.0,0.0,0.0,0.0,0.0,0.0,0.0,0.0,0.0,0.0,0.0,0.0,0.0,0.0,0.0,0.0,0.0,0.0,0.0,0.0,0.0,0.0,0.0,0.0,0.0,0.0,0.0,0.0,0.0,0.0,0.0,0.0,0.0,0.0,0.0,0.0,0.0,0.0,0.0,0.0,0.0,0.0,0.0,0.0,0.0,0.0,0.0,0.0,0.0,0.0,0.0,0.0,0.0,0.0,0.0,0.0,0.0,0.0,0.0,0.0,0.0,0.0,0.0,0.0,0.0,0.0,0.0,0.0,0.0,0.0,0.0,0.0,0.0,0.0,0.0,0.0,0.0,0.0,2.8884,3.0414,3.1555,3.2454,3.2629,3.1805,3.1224,2.9998,2.7802,0.0,0.0,0.0,0.0,0.0,0.0,0.0,0.0,0.0,0.0,0.0,0.0,0.0,0.0,0.0,0.0,0.0,0.0,0.0,0.0,0.0,0.0,0.0,0.0,0.0,0.0,0.0,0.0,0.0,0.0,0.0,0.0,0.0,0.0,0.0,0.0,0.0,0.0,0.0,0.0,0.0,0.0,0.0,0.0,0.0,0.0,0.0,0.0,0.0,0.0,0.0,0.0,0.0,0.0,0.0,0.0,0.0,0.0,0.0,0.0,0.0,0.0,0.0,0.0,0.0,0.0,0.0,0.0,0.0,0.0,0.0,0.0,0.0,0.0,0.0,0.0,0.0,0.0,0.0,0.0,0.0,0.0,0.0,0.0,0.0,0.0,0.0,0.0,0.0,0.0,0.0,0.0,0.0,0.0,0.0,0.0,0.0,0.0,0.0,0.0,0.0,0.0,2.8472,3.0166,3.1939,3.3721,3.4466,3.4583,3.4041,3.2956,3.1476,2.9537,0.0,0.0,0.0,0.0,0.0,0.0,0.0,0.0,0.0,0.0,0.0,0.0,0.0,0.0,0.0,0.0,0.0,0.0,0.0,0.0,0.0,0.0,0.0,0.0,0.0,0.0,0.0,0.0,0.0,0.0,0.0,0.0,0.0,0.0,0.0,0.0,0.0,0.0,0.0,0.0,0.0,0.0,0.0,0.0,0.0,0.0,0.0,0.0,0.0,0.0,0.0,0.0,0.0,0.0,0.0,0.0,0.0,0.0,0.0,0.0,0.0,0.0,0.0,0.0,0.0,0.0,0.0,0.0,0.0,0.0,0.0,0.0,0.0,0.0,0.0,0.0,0.0,0.0,0.0,0.0,0.0,0.0,0.0,0.0,0.0,0.0,0.0,0.0,0.0,0.0,0.0,0.0,0.0,0.0,0.0,0.0,0.0,0.0,0.0,0.0,0.0,0.0,3.0186,3.1997,3.3808,3.553,3.5742,3.5736,3.5737,3.4216,3.2904,0.0,0.0,0.0,0.0,0.0,0.0,0.0,0.0,0.0,0.0,0.0,0.0,0.0,0.0,0.0,0.0,0.0,0.0,0.0,0.0,0.0,0.0,0.0,0.0,0.0,0.0,0.0,0.0,0.0,0.0,0.0,0.0,0.0,0.0,0.0,0.0,0.0,0.0,0.0,0.0,0.0,0.0,0.0,0.0,0.0,0.0,0.0,0.0,0.0,0.0,0.0,0.0,0.0,0.0,0.0,0.0,0.0,0.0,0.0,0.0,0.0,0.0,0.0,0.0,0.0,0.0,0.0,0.0,0.0,0.0,0.0,0.0,0.0,0.0,0.0,0.0,0.0,0.0,0.0,0.0,0.0,0.0,0.0,0.0,0.0,0.0,0.0,0.0,0.0,0.0,0.0,0.0,0.0,0.0,0.0,0.0,0.0,0.0,0.0,0.0,0.0,0.0,0.0,3.1171,3.392,3.6218,3.7403,3.8072,3.8229,3.765,3.7144,3.5495,3.2263,0.0,0.0,0.0,0.0,0.0,0.0,0.0,0.0,0.0,0.0,0.0,0.0,0.0,0.0,0.0,0.0,0.0,0.0,0.0,0.0,0.0,0.0,0.0,0.0,0.0,0.0,0.0,0.0,0.0,0.0,0.0,0.0,0.0,0.0,0.0,0.0,0.0,0.0,0.0,0.0,0.0,0.0,0.0,0.0,0.0,0.0,0.0,0.0,0.0,0.0,0.0,0.0,0.0,0.0,0.0,0.0,0.0,0.0,0.0,0.0,0.0,0.0,0.0,0.0,0.0,0.0,0.0,0.0,0.0,0.0,0.0,0.0,0.0,0.0,0.0,0.0,0.0,0.0,0.0,0.0,0.0,0.0,0.0,0.0,0.0,0.0,0.0,0.0,0.0,0.0,0.0,0.0,0.0,0.0,0.0,0.0,0.0,0.0,0.0,0.0,0.0,0.0,3.301,3.5987,3.8415,3.9682,4.0593,4.0937,4.0462,3.9497,3.7858,3.5324,0.0,0.0,0.0,0.0,0.0,0.0,0.0,0.0,0.0,0.0,0.0,0.0,0.0,0.0,0.0,0.0,0.0,0.0,0.0,0.0,0.0,0.0,0.0,0.0,0.0,0.0,0.0,0.0,0.0,0.0,0.0,0.0,0.0,0.0,0.0,0.0,0.0,0.0,0.0,0.0,0.0,0.0,0.0,0.0,0.0,0.0,0.0,0.0,0.0,0.0,0.0,0.0,0.0,0.0,0.0,0.0,0.0,0.0,0.0,0.0,0.0,0.0,0.0,0.0,0.0,0.0,0.0,0.0,0.0,0.0,0.0,0.0,0.0,0.0,0.0,0.0,0.0,0.0,0.0,0.0,0.0,0.0,0.0,0.0,0.0,0.0,0.0,0.0,0.0,0.0,0.0,0.0,0.0,0.0,0.0,0.0,0.0,0.0,0.0,0.0,0.0,0.0,3.5534,3.8143,4.0394,4.2059,4.2942,4.3451,4.3506,4.1393,3.9986,3.9799,0.0,0.0,0.0,0.0,0.0,0.0,0.0,0.0,0.0,0.0,0.0,0.0,0.0,0.0,0.0,0.0,0.0,0.0,0.0,0.0,0.0,0.0,0.0,0.0,0.0,0.0,0.0,0.0,0.0,0.0,0.0,0.0,0.0,0.0,0.0,0.0,0.0,0.0,0.0,0.0,0.0,0.0,0.0,0.0,0.0,0.0,0.0,0.0,0.0,0.0,0.0,0.0,0.0,0.0,0.0,0.0,0.0,0.0,0.0,0.0,2.7266,2.5375,0.0,0.0,0.0,0.0,0.0,0.0,0.0,0.0,0.0,0.0,0.0,0.0,0.0,0.0,0.0,0.0,0.0,0.0,0.0,0.0,0.0,0.0,0.0,0.0,0.0,0.0,0.0,0.0,0.0,0.0,0.0,0.0,0.0,0.0,0.0,0.0,0.0,0.0,0.0,0.0,3.8298,4.0335,4.1962,4.3082,4.3374,4.3517,4.3564,4.3084,4.1916,3.9922,3.8772,0.0,0.0,0.0,0.0,0.0,0.0,0.0,0.0,0.0,0.0,0.0,0.0,0.0,0.0,0.0,0.0,0.0,0.0,0.0,0.0,0.0,0.0,0.0,0.0,0.0,0.0,0.0,0.0,0.0,0.0,0.0,0.0,0.0,0.0,0.0,0.0,0.0,0.0,0.0,0.0,0.0,0.0,0.0,0.0,0.0,0.0,0.0,0.0,0.0,0.0,0.0,0.0,0.0,0.0,0.0,0.0,0.0,0.0,0.0,2.9217,2.7657,0.0,0.0,0.0,0.0,0.0,0.0,0.0,0.0,0.0,0.0,0.0,0.0,0.0,0.0,0.0,0.0,0.0,0.0,0.0,0.0,0.0,0.0,0.0,0.0,0.0,0.0,0.0,0.0,0.0,0.0,0.0,0.0,0.0,0.0,0.0,0.0,0.0,0.0,0.0,0.0,3.9799,4.1969,4.3544,4.4024,4.4471,4.4787,4.4844,4.4462,4.3663,4.2338,4.0701,0.0,0.0,0.0,0.0,0.0,0.0,0.0,0.0,0.0,0.0,0.0,0.0,0.0,0.0,0.0,0.0,0.0,0.0,0.0,0.0,0.0,0.0,0.0,0.0,0.0,0.0,0.0,0.0,0.0,0.0,0.0,0.0,0.0,0.0,0.0,0.0,0.0,0.0,0.0,0.0,0.0,0.0,0.0,0.0,0.0,0.0,0.0,0.0,0.0,0.0,0.0,0.0,0.0,3.3759,3.4278,3.505,3.5045,3.5052,3.4903,3.2228,3.1154,3.1173,3.0373,0.0,0.0,0.0,0.0,0.0,0.0,0.0,0.0,0.0,0.0,0.0,0.0,0.0,0.0,0.0,0.0,0.0,0.0,0.0,0.0,0.0,0.0,3.2766,3.4422,3.4889,3.4175,3.1282,0.0,0.0,0.0,0.0,0.0,0.0,0.0,0.0,0.0,0.0,0.0,4.1181,4.3305,4.4816,4.5133,4.5861,4.638,4.6429,4.5767,4.5222,4.491,4.2241,4.0097,0.0,0.0,0.0,0.0,0.0,0.0,0.0,0.0,0.0,0.0,0.0,0.0,0.0,0.0,0.0,0.0,0.0,0.0,0.0,0.0,0.0,0.0,0.0,0.0,0.0,0.0,0.0,0.0,0.0,0.0,0.0,0.0,2.3858,2.4454,0.0,0.0,0.0,0.0,0.0,0.0,0.0,0.0,0.0,0.0,0.0,0.0,0.0,3.2706,3.3547,3.4401,3.5293,3.6222,3.6928,3.7689,3.8469,3.8451,3.8451,3.8432,3.8005,0.0,3.3658,3.286,0.0,0.0,0.0,0.0,0.0,0.0,0.0,0.0,0.0,0.0,0.0,0.0,0.0,0.0,0.0,0.0,0.0,0.0,0.0,0.0,0.0,0.0,3.6431,3.7409,3.8221,3.8646,3.8182,3.5674,3.3288,3.2519,3.3646,3.4505,0.0,0.0,0.0,0.0,0.0,0.0,4.393,4.4486,4.5308,4.6882,4.7217,4.7318,4.7326,4.7209,4.6507,4.4988,4.4481,4.2844,3.9766,3.8363,0.0,0.0,0.0,0.0,0.0,0.0,0.0,0.0,0.0,0.0,0.0,0.0,0.0,0.0,0.0,0.0,0.0,0.0,0.0,0.0,0.0,0.0,0.0,0.0,0.0,0.0,0.0,0.0,0.0,2.4252,2.4411,2.6285,2.6304,2.6724,0.0,0.0,0.0,0.0,0.0,0.0,0.0,0.0,0.0,3.5027,3.5516,3.637,3.7671,3.7578,3.8172,3.9435,3.9342,3.9733,4.0513,4.0513,4.0754,4.1144,4.0698,3.9955,3.8897,3.7151,3.6198,3.5832,0.0,0.0,0.0,0.0,3.4988,3.507,3.5111,3.523,3.541,3.5482,0.0,0.0,0.0,0.0,0.0,0.0,0.0,3.7406,3.9157,3.9623,3.9895,4.0836,4.1351,4.1641,4.1641,4.0378,3.8709,3.6954,3.7506,3.8171,3.7912,3.9509,0.0,0.0,0.0,4.4485,4.5265,4.6307,4.7242,4.8039,4.8179,4.8222,4.8222,4.8222,4.7696,4.6429,4.5903,4.4734,4.2747,4.0916,3.8617,0.0,0.0,0.0,0.0,0.0,0.0,0.0,0.0,0.0,0.0,0.0,0.0,0.0,0.0,0.0,0.0,0.0,0.0,0.0,0.0,0.0,0.0,0.0,0.0,0.0,0.0,0.0,0.0,2.5736,2.598,2.8555,2.8898,2.9521,0.0,0.0,0.0,0.0,0.0,0.0,3.4419,3.5892,3.7113,3.7931,3.8729,3.9751,4.0996,4.0791,4.1311,4.2537,4.2147,4.2259,4.2853,4.2853,4.3169,4.3708,4.3113,4.3188,4.354,4.0886,3.9498,3.9051,3.9127,3.8826,3.8395,3.8441,3.8505,3.8609,3.8609,3.8802,3.9044,3.9028,3.9215,3.9411,3.9302,0.0,0.0,0.0,0.0,4.0924,4.271,4.3168,4.3395,4.4374,4.4601,4.4601,4.4601,4.4413,4.3562,4.1255,4.1363,4.1914,4.208,4.2976,0.0,4.4247,4.5421,4.6251,4.6282,4.732,4.8204,4.868,4.8772,4.8806,4.8806,4.8806,4.8436,4.756,4.6897,4.6137,4.526,4.341,4.1376,3.9175,0.0,0.0,0.0,0.0,0.0,0.0,0.0,0.0,0.0,0.0,0.0,0.0,0.0,0.0,0.0,0.0,0.0,0.0,0.0,0.0,0.0,0.0,0.0,0.0,0.0,0.0,0.0,0.0,0.0,3.1228,3.1413,0.0,0.0,0.0,0.0,3.5136,3.6029,3.7188,3.8711,3.9658,4.0513,4.133,4.2129,4.2593,4.2686,4.4209,4.5026,4.5119,4.5844,4.6215,4.6252,4.6252,4.6271,4.6308,4.6271,4.6271,4.6048,4.2957,4.166,4.1651,4.1895,4.1976,4.1957,4.2077,4.2143,4.2124,4.2124,4.2278,4.2467,4.2603,4.2826,4.304,4.3021,4.3021,0.0,0.0,4.4316,4.4703,4.6399,4.6825,4.7057,4.7927,4.814,4.814,4.814,4.7434,4.6317,4.4664,4.4987,4.5576,4.5621,0.0,4.7927,4.722,4.7173,4.7241,4.731,4.6677,4.6889,4.8604,4.8806,4.8806,4.8806,4.8806,4.8436,4.756,4.7462,4.7033,4.6176,4.6001,4.4343,4.0945,3.9211,0.0,0.0,0.0,0.0,0.0,0.0,0.0,0.0,0.0,0.0,0.0,0.0,0.0,0.0,0.0,0.0,0.0,0.0,0.0,0.0,0.0,0.0,0.0,0.0,0.0,0.0,0.0,0.0,3.3702,3.4474,0.0,3.7036,3.7757,3.8238,3.847,3.9352,4.0085,4.068,4.198,4.3113,4.3949,4.4748,4.4934,4.4413,4.4989,4.5287,4.5287,4.5584,4.5992,4.6494,4.6494,4.6773,4.7237,4.6717,4.6857,4.7341,4.5776,4.5171,4.5152,4.5329,4.5462,4.5565,4.559,4.5615,4.5615,4.5615,4.5811,4.6109,4.6348,4.6495,4.6573,4.6573,4.6573,4.6549,4.6319,4.6247,4.6369,4.7042,4.7204,4.7385,4.8315,4.8521,4.8521,4.8521,4.8257,4.8024,4.8017,4.6823,4.5829,4.5953,4.6469,4.6985,4.727,4.7806,4.8409,4.8992,4.9292,4.9687,5.0346,5.0404,5.0404,5.0404,5.0404,4.982,4.8417,4.8826,4.8495,4.7092,4.7033,4.6189,4.4383,4.3162,4.1437,0.0,0.0,0.0,0.0,0.0,0.0,0.0,0.0,0.0,0.0,0.0,0.0,0.0,0.0,0.0,0.0,0.0,0.0,0.0,0.0,0.0,0.0,0.0,0.0,0.0,3.2847,3.4002,3.6287,3.7322,3.8387,3.9682,4.063,4.1252,4.1464,4.2322,4.2965,4.3243,4.4005,4.4822,4.5677,4.6215,4.6364,4.6104,4.6382,4.6513,4.6513,4.6513,4.6791,4.7311,4.759,4.8017,4.85,4.8259,4.8546,4.9193,4.8809,4.8525,4.8246,4.755,4.7318,4.7397,4.7397,4.7397,4.7422,4.7473,4.7674,4.7933,4.8227,4.8342,4.8392,4.8392,4.8392,4.8348,4.8128,4.805,4.8172,4.8829,4.8984,4.9193,5.0095,5.032,5.032,5.032,5.0098,5.009,5.0673,4.8829,4.7299,4.7688,4.7757,4.8059,4.8954,4.9118,4.9448,5.0324,5.0447,5.056,5.0833,5.0852,5.0852,5.0852,5.1125,5.0696,4.9294,4.9976,4.9683,4.8008,4.8202,4.7807,4.6651,4.5721,4.3966,4.1401,0.0,0.0,0.0,0.0,0.0,0.0,0.0,0.0,0.0,0.0,0.0,0.0,0.0,0.0,0.0,0.0,0.0,0.0,0.0,0.0,0.0,0.0,0.0,3.4476,3.5655,3.7312,3.8906,3.9927,4.081,4.159,4.2426,4.3225,4.3949,4.4822,4.5658,4.642,4.5769,4.5732,4.655,4.6568,4.694,4.7738,4.8537,4.8946,4.8946,4.8964,4.8983,4.9002,4.98,5.0153,5.019,5.1045,5.1504,5.1604,5.1828,5.1519,5.0722,4.8424,4.7491,4.7472,4.7472,4.7472,4.7498,4.7734,4.7898,4.8047,4.8201,4.8378,4.8531,4.8551,4.8566,4.8735,4.9633,4.9879,5.0261,5.1967,5.2387,5.262,5.3506,5.372,5.372,5.372,5.3086,5.2534,5.2534,5.1169,5.0273,5.1064,5.1191,5.1522,5.2461,5.1164,0.0,5.1261,4.9956,4.9255,5.0034,5.0112,5.0112,5.0112,5.0891,5.1008,5.0092,5.0852,5.0599,4.8904,4.9586,4.9229,4.7571,4.6628,4.4881,4.2364,0.0,0.0,0.0,0.0,0.0,0.0,0.0,0.0,0.0,0.0,0.0,0.0,0.0,0.0,0.0,0.0,0.0,0.0,0.0,0.0,0.0,3.7076,3.8079,3.6994,3.8294,3.9723,4.0762,4.2147,4.3095,4.3318,4.4636,4.5064,4.4079,4.5342,4.6011,4.5639,4.6531,4.7404,4.8203,4.824,4.8351,4.8574,4.9373,4.9782,4.9782,5.0413,5.0711,5.0729,5.0933,5.1045,5.1045,5.1393,5.1641,5.1828,5.204,5.2062,5.1869,5.0628,4.9765,4.9197,4.9197,4.9197,4.9299,5.0114,5.0403,5.055,5.1324,5.1621,5.1702,5.1856,5.1875,5.185,5.1715,5.1645,5.1761,5.2378,5.2505,5.2699,5.3633,5.3857,5.3857,5.3857,5.3671,5.3524,5.3524,5.3126,5.2474,5.1451,5.1265,5.1576,5.2469,5.2197,5.2197,5.3073,5.2781,5.2586,5.2801,5.284,5.284,5.284,5.3054,5.2547,5.1047,5.1768,5.1476,4.9742,4.9878,4.9468,4.8322,4.7469,4.6668,0.0,0.0,0.0,0.0,0.0,0.0,0.0,0.0,0.0,0.0,0.0,0.0,0.0,0.0,0.0,0.0,0.0,0.0,0.0,0.0,0.0,0.0,3.9361,4.0606,4.0476,4.1293,4.2073,4.2556,4.4042,4.5045,4.5045,4.6234,4.6605,4.5621,4.6754,4.7293,4.6828,4.7683,4.8574,4.9392,4.941,4.9577,4.9949,5.0413,5.0636,5.0655,5.1156,5.1398,5.1416,5.1751,5.1936,5.2063,5.2468,5.2806,5.3056,5.3151,5.3086,5.2873,0.0,0.0,0.0,0.0,5.094,5.1044,5.1608,5.1917,5.2165,5.2755,5.3042,5.3166,5.3282,5.3337,5.3307,5.3016,5.2938,5.3052,5.3554,5.3661,5.3857,5.476,5.4983,5.508,5.5411,5.5236,5.508,5.5431,5.5217,0.0,5.3658,5.2879,5.2684,5.356,5.3385,5.3463,5.434,5.4126,5.3911,5.3911,5.3911,5.3911,5.3911,5.4223,0.0,0.0,0.0,5.2898,5.116,5.0399,0.0,0.0,0.0,4.8253,4.7842,4.7473,0.0,0.0,4.3258,4.318,0.0,0.0,0.0,0.0,0.0,0.0,0.0,0.0,0.0,0.0,0.0,0.0,0.0,0.0,0.0,0.0,4.1423,4.3113,4.4023,4.4302,4.4376,4.4283,4.5677,4.6643,4.6643,4.7367,4.785,4.785,4.8593,4.9039,4.9039,4.9132,0.0,0.0,0.0,5.0655,5.1528,5.1546,5.1584,5.1676,5.1676,5.1676,5.1695,5.2419,5.2883,5.323,5.394,5.4506,5.488,5.4912,5.4609,5.401,5.2854,5.24,5.24,5.24,5.24,5.2419,5.2513,0.0,0.0,5.3196,5.3453,5.372,5.3851,5.3936,5.4028,5.4207,5.4319,5.4557,5.5413,5.5626,5.5821,5.66,5.6775,5.697,5.7691,5.7282,5.699,5.7711,5.7262,5.6775,5.6775,5.5333,5.4457,5.5236,5.4691,5.4476,5.5256,5.4671,5.4184,5.4184,5.4184,0.0,5.4184,5.4905,5.4963,5.4106,5.4671,5.4356,5.2812,5.116,5.0272,5.0273,5.0134,4.9672,4.8891,4.8114,4.7745,4.7706,4.6638,4.656,0.0,0.0,0.0,0.0,0.0,0.0,0.0,0.0,0.0,0.0,0.0,0.0,0.0,0.0,0.0,4.2593,4.2909,4.3336,4.4841,4.6178,4.6735,4.6085,4.6884,4.746,4.746,4.8203,4.8667,4.8667,4.9466,4.9912,4.9875,5.0525,5.0989,5.1138,5.1156,5.1546,5.2364,5.2364,5.2698,5.3348,5.3348,0.0,5.3348,5.3497,5.4019,5.4856,5.5168,5.5792,5.6616,5.6797,5.6784,5.6398,5.3518,5.24,5.24,5.24,5.24,5.2513,5.3215,5.35,5.3707,5.4497,5.4811,5.503,5.6036,5.6329,0.0,5.7538,5.782,5.7896,5.8199,5.8276,5.8314,5.847,5.8509,5.8548,5.8704,5.8626,5.8548,5.8724,5.8626,5.8509,5.8509,5.7126,5.6054,5.621,5.6113,5.6054,5.623,5.6093,5.5996,5.5996,5.5996,5.5996,5.5996,5.6152,5.5879,5.5002,5.4453,5.3994,5.3661,5.2597,5.2026,5.2019,5.1298,5.0875,5.0697,5.0522,5.0445,5.0386,4.8114,4.7143,0.0,0.0,0.0,0.0,0.0,0.0,0.0,0.0,0.0,0.0,0.0,3.8785,3.9602,0.0,4.2092,4.3726,4.4023,4.4618,4.6271,4.6847,4.694,4.655,4.7571,4.8463,4.8872,4.9262,4.9689,5.0116,5.0543,5.0785,5.0748,5.1546,5.1992,5.1992,5.2401,5.2791,5.32,5.3608,5.3998,5.4407,5.4853,5.5057,5.5057,5.5057,5.5397,5.6067,5.6157,5.661,5.7257,5.7352,5.7403,5.7232,5.5564,5.4901,5.4901,5.4901,5.4901,5.4958,5.5394,5.5635,5.576,5.6273,5.6575,5.6875,5.7478,5.7776,5.8034,5.862,5.8849,5.8907,5.8987,5.8996,5.8996,5.8996,5.8996,5.9113,5.9561,5.9308,5.9133,5.9561,5.9289,5.8996,5.8996,5.8314,5.7749,5.7749,5.7379,5.7107,5.7107,5.6756,5.6503,5.6503,5.6503,5.6503,5.6503,5.6503,5.6316,5.5876,5.5034,5.4546,5.4548,5.3689,5.3205,5.3195,5.2719,5.2445,5.2445,5.2018,5.1804,5.1766,5.0464,4.9648,0.0,0.0,0.0,0.0,0.0,0.0,0.0,3.6333,3.7596,3.8247,3.9695,4.1051,4.1702,4.302,4.4116,4.4432,4.5064,4.5992,4.7274,4.7181,4.6977,4.6977,4.8259,4.9392,5.0042,5.0265,5.0711,5.1565,5.1639,5.1695,5.1862,5.2475,5.2902,5.307,5.3701,5.411,5.4277,5.4946,5.5261,5.5261,5.5967,5.6302,5.6302,5.6302,5.6592,5.7075,5.7296,5.7578,5.7895,5.7895,5.7895,5.7895,5.7895,5.7895,5.7839,5.7516,5.7403,5.7403,5.7403,5.7506,5.7635,5.7692,5.7915,5.8242,5.8481,5.8741,5.8998,5.925,5.9379,5.9484,5.9503,5.9503,5.9503,5.9503,5.9503,5.9698,6.0399,5.999,5.9717,6.0419,5.999,5.9503,5.9503,5.9503,5.9386,5.9055,5.8392,5.7944,5.7944,5.7243,5.6717,5.6717,5.658,5.6511,5.6492,5.6492,5.65,5.6503,5.5835,5.5463,5.548,5.4764,5.4303,5.4147,5.4003,5.3863,5.3689,5.2989,5.264,5.264,5.264,5.2212,3.3584,3.3436,3.3937,3.5702,3.6203,3.6668,0.0,3.9287,3.9993,4.0085,4.1404,4.2556,4.2649,4.3392,4.4488,4.5974,4.629,4.642,4.6605,4.7794,4.863,4.863,4.9429,5.0005,5.0098,5.0803,5.1584,5.2401,5.2475,5.2791,5.3497,5.3627,5.3998,5.4723,5.4834,5.5243,5.6004,5.6116,5.6153,5.6172,5.6246,5.6302,5.6302,5.6302,5.6909,5.8012,5.908,5.9568,5.962,5.962,5.962,5.962,5.962,5.962,5.943,5.7952,5.7403,5.7403,5.7403,5.7415,5.7446,5.7635,5.772,5.7989,5.9104,5.9468,5.9726,6.0817,6.1122,6.1162,6.1276,6.1315,6.1315,6.1315,6.1315,6.1334,6.1432,6.1373,6.1334,6.1432,6.1373,6.1315,6.1315,6.1315,6.0769,5.923,5.8918,5.8841,5.8841,5.81,5.7574,5.7574,5.6931,5.6492,5.6508,5.6488,5.6503,5.6503,5.6405,5.6377,5.6445,5.6248,5.5767,5.499,5.4879,5.4465,5.3689,5.3591,5.3553,5.3553,5.3553,5.3086,3.6185,3.6705,3.7336,3.8544,3.9212,3.9733,4.0401,4.0828,4.1219,4.1702,4.2705,4.3652,4.4153,4.4915,4.5844,4.7014,4.681,4.6828,4.7757,4.8481,4.9076,4.954,5.0766,5.1565,5.1565,5.1881,5.2438,5.3237,5.3311,5.3664,5.4463,5.45,5.489,5.5726,5.5763,5.593,5.6302,5.6766,5.7008,5.7008,5.7472,5.7713,5.7695,5.7798,5.8278,5.9001,5.9635,5.9885,5.9885,5.9885,5.9885,5.9885,5.9885,5.9885,5.9809,5.9108,5.8843,5.8843,5.8843,5.8843,5.8875,5.895,5.9052,5.9254,5.9791,6.0169,6.0519,6.1029,6.1336,6.1537,6.1598,6.1607,6.1607,6.1607,6.1607,6.1607,6.1607,6.1607,6.1607,6.1607,6.1607,6.1607,6.1607,6.1607,6.1354,6.0614,6.0088,5.9756,5.9756,5.8996,5.8256,5.7749,5.697,5.6511,5.65,5.6508,5.6503,5.6491,5.6503,5.6533,5.6606,5.6461,5.6235,5.5864,5.5794,5.5573,5.5204,5.5204,5.5204,5.5204,5.5204,5.5009,3.8599,3.9342,3.9937,4.0568,4.1163,4.159,4.159,4.1757,4.2092,4.2686,4.3633,4.4544,4.5175,4.6141,4.694,4.7311,4.7256,4.7497,4.8444,4.8946,4.954,5.0358,5.1732,5.2698,5.2921,5.294,5.3181,5.3775,5.4017,5.4407,5.4983,5.5243,5.5763,5.6599,5.6636,5.6747,5.697,5.7546,5.7843,5.7843,5.8419,5.8716,5.8716,5.8964,5.9253,5.9616,5.982,5.9885,5.9885,5.9885,5.9885,5.9885,5.9885,5.9885,5.9885,5.9885,5.9885,5.9885,5.9885,5.9885,5.9885,5.9885,5.9994,6.014,6.0198,6.0507,6.0828,6.0944,6.1221,6.1487,6.1498,6.1568,6.1607,6.1607,6.1607,6.1607,6.1607,6.1607,6.1607,6.1607,6.1607,6.1607,6.1607,6.1607,6.1607,6.1607,6.1062,6.0653,6.0653,5.9893,5.8918,5.7808,5.7184,5.6745,5.6519,5.6496,5.651,5.6536,5.6528,5.6558,5.6606,5.6484,5.6422,5.6391,5.6329,5.629,5.6291,5.6291,5.6291,5.6291,5.6291,5.6291,4.146,4.1497,4.1534,4.1553,4.1571,4.159,4.159,4.2203,4.276,4.2797,4.4098,4.5268,4.5287,4.6605,4.7423,4.6661,4.7831,4.8574,4.785,4.9076,5.0395,5.1268,5.2085,5.2921,5.3701,5.3775,5.3775,5.3813,5.4518,5.4983,5.5001,5.58,5.6636,5.7453,5.7472,5.7843,5.8624,5.8661,5.8661,5.8661,5.8698,5.8716,5.8698,5.912,5.94,5.9616,5.982,5.9885,5.9885,5.9885,5.9885,5.9885,5.9885,5.9885,5.9885,5.9885,5.9885,5.9885,5.9885,5.9885,5.9885,5.9885,5.9885,5.9982,6.0227,6.0321,6.0384,6.0776,6.1041,6.1233,6.1289,6.1445,6.1607,6.1607,6.1607,6.1607,6.1607,6.1607,6.1607,6.1607,6.1607,6.1607,6.1607,6.1607,6.1607,6.1607,6.1588,6.1568,6.1568,6.0808,5.96,5.7886,5.7672,5.7357,5.6576,5.6504,5.6536,5.6582,5.6606,5.6606,5.6606,5.6539,5.6461,5.6391,5.6328,5.63,5.6291,5.6291,5.6291,5.6291,5.6291,5.6291,4.3039,4.2797,4.2389,4.2389,4.2389,4.2389,4.2389,4.302,4.3763,4.4339,4.4896,4.5621,4.6698,4.6903,4.7163,4.7961,4.8091,4.8389,4.9187,5.0265,5.1268,5.2104,5.2921,5.3497,5.3775,5.3813,5.4017,5.4574,5.4853,5.5503,5.6599,5.6952,5.7472,5.8271,5.8308,5.8438,5.8716,5.8716,5.8716,5.8716,5.8716,5.8862,5.912,5.9234,5.9491,5.9786,5.9853,5.9885,5.9885,5.9885,5.9885,5.9885,5.9885,5.9885,5.9885,5.9885,5.9885,5.9885,5.9885,5.9885,5.9885,5.9885,5.9885,5.9918,5.9994,6.0189,6.0379,6.0531,6.0906,6.1274,6.1283,6.1445,6.1607,6.1607,6.1607,6.1607,6.1607,6.1607,6.1607,6.1607,6.1607,6.1607,6.1607,6.1607,6.1607,6.1607,6.1607,6.1607,6.1607,6.0847,6.0088,5.9484,5.8899,5.8234,5.742,5.7356,5.7135,5.6572,5.6582,5.6606,5.6606,5.6538,5.6461,5.6391,5.6335,5.63,5.6291,5.6291,5.6291,5.6291,5.6291,5.6291,4.3429,4.3392,4.315,4.2872,4.2797,4.2872,4.315,4.3633,4.4321,4.5491,4.5955,4.6382,4.7125,4.7311,4.7516,4.798,4.8333,4.8927,4.9949,5.1101,5.2029,5.2549,5.3311,5.3813,5.3813,5.4073,5.4444,5.4964,5.5559,5.6376,5.7453,5.7769,5.8178,5.8679,5.8716,5.8716,5.8716,5.8716,5.8716,5.8716,5.8781,5.8964,5.929,5.9364,5.9597,5.9885,5.9885,5.9885,5.9885,5.9885,5.9885,5.9885,5.9885,5.9885,5.9885,5.9885,5.9885,5.9885,5.9885,5.9885,5.9885,5.9885,5.9885,5.9918,5.995,6.0121,6.0291,6.0365,6.0718,6.1092,6.1092,6.1303,6.1487,6.1487,6.1539,6.1607,6.1607,6.1607,6.1607,6.1607,6.1607,6.1607,6.1607,6.1607,6.1607,6.1607,6.1607,6.1607,6.1607,6.1101,6.0653,6.0321,5.9804,5.9139,5.8336,5.826,5.8019,5.745,5.748,5.7484,5.7484,5.7447,5.7402,5.7369,5.7328,5.7283,5.722,5.722,5.7216,5.7185,5.7185,5.7185,4.2853,4.3355,4.3708,4.2983,4.2797,4.3002,4.3819,4.4079,4.4599,4.6234,4.7163,4.7478,4.6754,4.7794,4.8296,4.6865,4.8519,5.0023,5.0153,5.1546,5.2568,5.2661,5.3348,5.3813,5.3813,5.4574,5.5076,5.5076,5.658,5.7528,5.7565,5.8289,5.8716,5.8716,5.8716,5.8716,5.8716,5.8716,5.8716,5.8698,5.8924,5.9101,5.9309,5.9491,5.9719,5.9885,5.9885,5.9885,5.9885,5.9885,5.9885,5.9885,5.9885,5.9923,5.9961,5.9961,5.998,6.0018,6.0018,5.9961,5.9885,5.9885,5.9923,5.9994,6.0114,6.0194,6.0262,6.0447,6.0661,6.0839,6.0839,6.1099,6.1361,6.1361,6.1484,6.1578,6.1607,6.1607,6.1607,6.1607,6.1607,6.1607,6.1607,6.1607,6.1607,6.1607,6.1607,6.1607,6.1607,6.1607,6.1276,6.0458,6.0359,6.0032,5.9235,5.917,5.9148,5.9104,5.9104,5.9104,5.9104,5.9104,5.9104,5.9101,5.9101,5.9031,5.8916,5.8916,5.888,5.881,5.881,5.8797,4.3522,4.2965,4.2314,4.2705,4.2797,4.3002,4.3819,4.4971,4.6141,4.7181,4.7553,4.7813,4.8221,4.7646,4.7367,4.8166,4.8296,4.8964,5.0803,5.1435,5.2159,5.3348,5.3683,5.3813,5.3813,5.5131,5.5967,5.5967,5.6933,5.7769,5.8364,5.8605,5.8716,5.8716,5.8716,5.8716,5.8716,5.8716,5.8716,5.8698,5.8924,5.9101,5.9309,5.9491,5.9719,5.9885,5.9885,5.9885,5.9885,5.9885,5.9885,5.9885,5.9885,6.0264,6.0776,6.0776,6.1212,6.1761,6.1761,6.0947,5.9885,5.9885,6.0302,6.0776,6.0842,6.1375,6.1964,6.2014,6.2279,6.257,6.257,6.2274,6.202,6.2167,6.1777,6.1421,6.1568,6.1607,6.1607,6.1607,6.1607,6.1607,6.1607,6.1607,6.1607,6.1607,6.1607,6.1607,6.1607,6.1607,6.151,6.1295,6.1275,6.0949,6.0152,6.0067,5.9792,5.9143,5.9104,5.9104,5.9104,5.9104,5.9104,5.9101,5.9101,5.9057,5.8973,5.8973,5.8936,5.8871,5.8871,5.8857,4.2816,4.2556,4.2147,4.224,4.2537,4.3002,4.3819,4.4451,4.5101,4.5918,4.6382,4.6661,4.6735,4.6903,4.7218,4.7757,4.837,4.9243,5.0636,5.1454,5.2271,5.3181,5.359,5.3813,5.3813,5.5317,5.6302,5.6302,5.7379,5.8234,5.8679,5.8716,5.8716,5.8716,5.8716,5.8716,5.8716,5.8716,5.8716,5.8698,5.9003,5.9178,5.9309,5.9597,5.9786,5.9885,5.9885,6.0094,6.0416,6.0416,6.0643,6.1003,6.1003,6.1269,6.1667,6.1667,6.1989,6.2406,6.2406,6.178,6.1003,6.1003,6.1307,6.1667,6.1733,6.2135,6.2611,6.2661,6.2882,6.3084,6.3084,6.2914,6.28,6.2909,6.2468,6.204,6.2143,6.1861,6.1607,6.1607,6.1607,6.1607,6.1607,6.1607,6.1607,6.1607,6.1607,6.1607,6.1607,6.1607,6.1607,6.1607,6.1606,6.1417,6.0971,6.0951,6.0768,6.0276,6.0237,6.0237,6.0237,6.0237,6.0245,6.0245,6.0245,6.0213,6.0147,6.0147,6.0109,6.0035,6.0035,6.0024,4.172,4.211,4.2333,4.1739,4.211,4.2872,4.3782,4.3466,4.3225,4.4135,4.4934,4.5194,4.4321,4.5937,4.7144,4.6438,4.8184,4.9707,4.9912,5.1379,5.2475,5.2587,5.3311,5.3813,5.3813,5.5317,5.6302,5.6302,5.7788,5.8716,5.8716,5.8716,5.8716,5.8716,5.8716,5.8716,5.8716,5.8716,5.8698,5.8739,5.912,5.929,5.9327,5.9734,5.9942,6.0056,6.0056,6.0511,6.1269,6.1269,6.1724,6.2406,6.2406,6.2482,6.2576,6.2576,6.2633,6.2747,6.2747,6.2747,6.2709,6.2482,6.2482,6.2557,6.2639,6.2813,6.2953,6.3085,6.3176,6.3236,6.3236,6.343,6.3631,6.3671,6.3328,6.299,6.2932,6.2211,6.1607,6.1607,6.1607,6.1607,6.1607,6.1607,6.1607,6.1607,6.1607,6.1607,6.1607,6.1607,6.1607,6.1607,6.1606,6.1592,6.1595,6.1654,6.1705,6.1701,6.1701,6.1701,6.1701,6.1701,6.1701,6.1701,6.1701,6.1678,6.1601,6.1601,6.1581,6.1514,6.1514,6.1514,4.2407,4.172,4.094,4.146,4.1702,4.2184,4.3652,4.3893,4.4228,4.5751,4.6197,4.603,4.5212,4.5417,4.5658,4.5528,4.642,4.759,4.8927,5.0543,5.1844,5.2512,5.3311,5.3813,5.3813,5.5317,5.6302,5.6302,5.7788,5.8716,5.8716,5.8716,5.8716,5.8716,5.8716,5.8716,5.8716,5.8716,5.8781,5.8964,5.9178,5.9383,5.9562,5.9786,6.0245,6.089,6.089,6.1382,6.2178,6.2178,6.2273,6.2406,6.2406,6.2823,6.3391,6.3391,6.3865,6.4471,6.4471,6.4471,6.4244,6.2861,6.2861,6.3391,6.3531,6.4125,6.4775,6.4839,6.4913,6.4974,6.4974,6.4638,6.4363,6.454,6.4103,6.3521,6.301,6.2211,6.1607,6.1607,6.1607,6.1607,6.1607,6.1607,6.1607,6.1607,6.1607,6.1607,6.1607,6.1607,6.1607,6.1607,6.1606,6.1592,6.1595,6.1654,6.1705,6.1701,6.1701,6.1701,6.1701,6.1701,6.1701,6.1701,6.1701,6.1686,6.167,6.167,6.1651,6.1581,6.1581,6.1555,4.2705,4.224,4.1739,4.2129,4.2222,4.2426,4.3206,4.2723,4.2352,4.315,4.3318,4.3206,4.2816,4.3429,4.4135,4.4562,4.5677,4.6921,4.811,5.0079,5.1546,5.1936,5.307,5.3813,5.3813,5.5317,5.6302,5.6302,5.7788,5.8716,5.8716,5.8716,5.8716,5.8716,5.8716,5.8716,5.8716,5.8716,5.8821,5.8984,5.9215,5.9419,5.9616,6.0255,6.0738,6.1117,6.1572,6.2254,6.3031,6.3031,6.3296,6.3713,6.3713,6.3941,6.4282,6.4282,6.4547,6.4907,6.4907,6.4907,6.4775,6.396,6.396,6.4282,6.4385,6.479,6.5213,6.5277,6.5352,6.5394,6.5394,6.5263,6.5182,6.5408,6.5028,6.4309,6.3156,6.2562,6.2133,6.1685,6.1607,6.1607,6.1607,6.1607,6.1607,6.1607,6.1607,6.1607,6.1607,6.1607,6.1607,6.1607,6.1597,6.1603,6.1595,6.1621,6.166,6.1696,6.1701,6.1701,6.1701,6.1701,6.1701,6.1701,6.1701,6.1701,6.1701,6.1701,6.167,6.1648,6.1648,6.1635,4.2742,4.2667,4.2537,4.2537,4.2537,4.2537,4.2537,4.1553,4.0661,4.0661,4.0661,4.0587,4.042,4.1571,4.2742,4.3373,4.5045,4.6513,4.733,4.9726,5.1398,5.1398,5.2828,5.3813,5.3813,5.5317,5.6302,5.6302,5.7788,5.8716,5.8716,5.8716,5.8716,5.8716,5.8716,5.8716,5.8716,5.8739,5.8843,5.9063,5.9272,5.9549,5.9949,6.0728,6.1288,6.1667,6.2368,6.3126,6.3884,6.3884,6.4282,6.4907,6.4907,6.4907,6.4907,6.4907,6.4907,6.4907,6.4907,6.4907,6.4907,6.4907,6.4907,6.4888,6.4974,6.5095,6.5213,6.5277,6.5352,6.5394,6.5394,6.555,6.5779,6.6089,6.5732,6.4947,6.3468,6.303,6.264,6.1763,6.1607,6.1607,6.1607,6.1607,6.1607,6.1607,6.1607,6.1607,6.1607,6.1607,6.1607,6.1607,6.1607,6.1606,6.1607,6.1595,6.1628,6.1696,6.1696,6.1701,6.1701,6.1701,6.1701,6.1701,6.1701,6.1701,6.1701,6.1701,6.1701,6.1701,6.1701,6.1701,4.2593,4.2259,4.1702,4.1702,4.1702,4.1702,4.1702,4.159,4.1479,4.1479,4.1479,4.1256,4.0513,4.1107,4.172,4.1813,4.3838,4.5677,4.6494,4.9373,5.1398,5.1398,5.2828,5.3813,5.3813,5.5317,5.6302,5.6302,5.7788,5.8716,5.8716,5.8716,5.8716,5.8716,5.8716,5.8716,5.8716,5.8884,5.9063,5.9253,5.9491,6.0062,6.0984,6.106,6.1932,6.3372,6.3467,6.3998,6.4794,6.4794,6.4832,6.4907,6.4907,6.4907,6.4907,6.4907,6.4907,6.4907,6.4907,6.4907,6.4907,6.4907,6.4907,6.4888,6.4974,6.5095,6.5213,6.5277,6.5352,6.5394,6.5394,6.555,6.5808,6.6276,6.5732,6.4914,6.4159,6.3419,6.264,6.1763,6.1607,6.1607,6.1607,6.1607,6.1607,6.1607,6.1607,6.1607,6.1607,6.1607,6.1607,6.1607,6.1607,6.1597,6.1603,6.1607,6.1621,6.1699,6.1691,6.1701,6.1701,6.1701,6.1701,6.1701,6.1701,6.1701,6.1701,6.1701,6.1701,6.1701,6.1701,6.1701,4.211,4.1832,4.159,4.159,4.159,4.159,4.159,4.1219,4.0866,4.0866,4.0457,3.9993,3.9677,3.9881,4.042,4.1441,4.3243,4.4971,4.6308,4.9336,5.1398,5.1398,5.2828,5.3813,5.3813,5.5317,5.671,5.7676,5.8345,5.8716,5.8716,5.8716,5.8716,5.8716,5.8716,5.8739,5.8884,5.8964,5.914,5.951,6.009,6.0626,6.1117,6.214,6.2974,6.3638,6.4149,6.4585,6.4907,6.4907,6.4907,6.4907,6.4907,6.4907,6.4907,6.4907,6.4907,6.4907,6.4907,6.4907,6.4907,6.4907,6.4907,6.4942,6.5061,6.5147,6.5213,6.5321,6.5383,6.5394,6.5394,6.555,6.5755,6.5945,6.5838,6.5486,6.4682,6.3845,6.3006,6.2118,6.168,6.1433,6.1433,6.1528,6.1607,6.1607,6.1607,6.1607,6.1607,6.1607,6.1607,6.1607,6.1607,6.1606,6.16,6.1595,6.1628,6.1691,6.1696,6.1701,6.1701,6.1701,6.1701,6.1701,6.1701,6.1701,6.1701,6.1701,6.1701,6.1701,6.1701,6.1701,4.1683,4.159,4.159,4.159,4.159,4.146,4.0958,4.042,3.9881,3.9398,3.9008,3.8748,3.8748,3.8934,3.9565,4.1014,4.2593,4.4228,4.59,4.8964,5.1119,5.1361,5.2828,5.3813,5.3813,5.5317,5.697,5.8586,5.8716,5.8716,5.8716,5.8716,5.8716,5.8716,5.8716,5.8781,5.8924,5.9024,5.9215,5.9526,6.05,6.1149,6.1534,6.2955,6.3751,6.4036,6.4642,6.4907,6.4907,6.4907,6.4907,6.4907,6.4907,6.4907,6.4907,6.4907,6.4907,6.4907,6.4907,6.4907,6.4907,6.4907,6.4907,6.4942,6.5147,6.518,6.5213,6.5352,6.5364,6.5394,6.5394,6.5513,6.564,6.568,6.5851,6.5754,6.4966,6.4116,6.3245,6.2375,6.1651,6.1209,6.1209,6.133,6.1433,6.1433,6.1433,6.1433,6.1433,6.1433,6.1433,6.1433,6.1433,6.1479,6.16,6.1561,6.1561,6.1609,6.1634,6.1634,6.1634,6.1671,6.1701,6.1701,6.1701,6.1701,6.1701,6.1701,6.1701,6.1701,6.1701,6.1701,4.1386,4.159,4.159,4.159,4.159,4.1163,3.9491,3.912,3.8655,3.7058,3.7355,3.7912,3.7912,3.8562,3.938,4.0271,4.1757,4.3392,4.5082,4.8091,5.0432,5.1305,5.2828,5.3813,5.3813,5.5317,5.697,5.8586,5.8716,5.8716,5.8716,5.8716,5.8716,5.8716,5.8716,5.8716,5.8698,5.912,5.929,5.9309,6.0513,6.1553,6.2425,6.324,6.4073,6.4888,6.4907,6.4907,6.4907,6.4907,6.4907,6.4907,6.4907,6.4907,6.4907,6.4907,6.4907,6.4907,6.4907,6.4907,6.4907,6.4907,6.4907,6.4942,6.5147,6.518,6.5213,6.5277,6.5352,6.5394,6.5394,6.5394,6.5446,6.5647,6.5705,6.5548,6.4925,6.4116,6.3245,6.2375,6.1563,6.1002,6.1002,6.1002,6.1002,6.1002,6.1002,6.1002,6.1002,6.1002,6.1002,6.1002,6.1002,6.1174,6.1567,6.1481,6.1392,6.1392,6.1481,6.149,6.149,6.1628,6.1701,6.1701,6.1701,6.1701,6.1701,6.1701,6.1701,6.1701,6.1701,6.1701,3.9825,3.9881,3.9881,3.9881,3.9472,3.8934,3.8395,3.7838,3.7318,3.6798,3.7336,3.7894,3.7894,3.8562,3.938,4.0253,4.2203,4.4005,4.5138,4.8574,5.1082,5.1361,5.2828,5.4258,5.541,5.5986,5.697,5.8586,5.8716,5.8716,5.8716,5.8716,5.8716,5.8716,5.8716,5.8821,5.912,5.9234,5.9719,6.0531,6.1504,6.2425,6.3259,6.4111,6.4642,6.4907,6.4907,6.4907,6.4907,6.4907,6.4907,6.4907,6.4907,6.4907,6.4907,6.4907,6.4907,6.4907,6.4907,6.4907,6.4907,6.4907,6.4907,6.4942,6.5147,6.518,6.5213,6.5352,6.5364,6.5394,6.5394,6.5394,6.5425,6.5475,6.5485,6.5437,6.5252,6.4089,6.3015,6.2746,6.1666,6.0798,6.0798,6.0905,6.1002,6.1002,6.1002,6.1002,6.1002,6.1002,6.1002,6.1002,6.1,6.1051,6.1177,6.1177,6.1192,6.12,6.1259,6.1292,6.1292,6.1328,6.1351,6.1351,6.1351,6.1351,6.1351,6.1351,6.1351,6.1351,6.1351,6.1351,3.805,3.8414,3.8562,3.8265,3.8042,3.7745,3.7132,3.6593,3.624,3.624,3.6891,3.7541,3.7838,3.8562,3.938,4.0253,4.2166,4.3968,4.5119,4.8537,5.1268,5.2197,5.32,5.4463,5.6134,5.6302,5.697,5.8586,5.8716,5.8716,5.8716,5.8716,5.8716,5.8716,5.8716,5.8862,5.9178,5.9253,5.9905,6.1035,6.1955,6.2823,6.3638,6.4509,6.4907,6.4907,6.4907,6.4907,0.0,6.4907,6.4907,6.4907,6.4907,6.4907,6.4907,6.4907,6.4907,6.4907,6.4907,6.4907,6.4907,6.4907,6.4942,6.5046,6.5147,6.5245,6.529,6.5383,6.5394,6.5394,6.5394,6.5394,6.5394,6.5394,6.5394,6.5394,6.5394,6.4344,6.3293,6.2968,6.1885,6.0942,6.0635,6.0681,6.0776,6.0776,6.0776,6.0776,6.0776,6.0776,6.0776,6.0776,6.0781,6.0783,6.0783,6.0906,6.0999,6.0978,6.1048,6.11,6.11,6.1158,6.1206,6.1206,6.1206,6.1206,6.1206,6.1206,6.1206,6.1186,6.0875,6.074,0.0,3.7121,3.766,3.6898,3.7233,3.7363,3.5857,3.5504,0.0,3.5504,3.6185,3.7002,3.7764,3.8562,3.938,4.0253,4.1739,4.3392,4.5045,4.8129,5.1101,5.3515,5.3813,5.4463,5.6134,5.6302,5.697,5.8586,5.8716,5.8716,5.8716,5.8716,5.8716,5.8698,5.8698,5.8821,5.9024,5.9215,5.987,6.1028,6.1943,6.2861,6.3732,6.4528,6.4907,6.4907,6.4907,6.4907,6.4907,6.4907,6.4907,6.4907,6.4907,6.4907,6.4907,6.4907,6.4907,6.4907,6.4907,6.4907,6.4907,6.4907,6.5046,6.518,6.5199,6.529,6.5394,6.5394,6.5394,6.5394,6.5394,6.5394,6.5394,6.5394,6.5394,6.5394,6.5394,6.4764,6.3942,6.3083,6.2204,6.1344,6.0523,6.0389,6.0389,6.0389,6.0389,6.0389,6.0389,6.0389,6.0389,6.0389,6.0389,6.0389,6.0389,6.0618,6.0783,6.0783,6.0845,6.0885,6.0885,6.1068,6.1177,6.1177,6.1177,6.1177,6.1177,6.1119,6.108,6.1061,6.0245,5.9876,3.384,0.0,3.7168,3.6962,3.6611,3.6176,0.0,3.5571,3.5565,3.5504,3.663,3.7671,3.7856,3.8562,3.938,4.0253,4.1739,4.3392,4.5045,4.863,5.1769,5.359,5.3813,5.4463,5.6134,5.6302,5.697,5.8586,5.8716,5.8716,5.8716,5.8716,5.8781,5.8924,5.8924,5.9042,5.9215,5.9419,6.0386,6.2053,6.2277,6.3183,6.4604,6.4813,6.4907,6.4907,6.4907,6.4907,6.4907,6.4907,6.4907,6.4907,6.4907,6.4907,6.4907,6.4907,6.4907,6.4907,6.4907,6.4907,6.4907,6.4907,6.4958,6.5061,6.518,6.529,6.5394,6.5394,6.5394,6.5394,6.5394,6.5394,6.5394,6.5394,6.5394,6.5394,6.5394,6.4764,6.3942,6.3083,6.2204,6.1344,6.0523,6.0389,6.0389,6.0389,6.0389,6.0389,6.0389,6.0389,6.0389,6.0389,6.0389,6.0389,6.0389,6.0514,6.0572,6.0572,6.0671,6.0742,6.0742,6.0836,6.0901,6.0901,6.0901,6.0901,6.0901,6.0226,5.9917,5.9878,5.9068,5.8702,3.2109,3.4083,3.5871,3.5806,3.5796,3.5758,3.5684,3.5666,3.5895,3.6633,3.7436,3.8093,3.8465,3.9527,4.0477,4.0894,4.3018,4.54,4.7757,5.0005,5.1992,5.3608,5.3813,5.4463,5.6134,5.6302,5.697,5.8586,5.8716,5.8716,5.8716,5.8716,5.8781,5.8984,5.9101,5.9215,5.9455,5.9958,6.0947,6.2406,6.2785,6.3657,6.4907,6.4907,6.4907,6.4907,6.4907,6.4907,6.4907,6.4907,6.4907,6.4907,6.4907,6.4907,6.4907,6.4907,6.4907,6.4907,6.4907,6.4907,6.4907,6.4907,6.4958,6.5042,6.5147,6.5277,6.5352,6.5394,6.5394,6.5394,6.5394,6.5394,6.5394,6.5394,6.5394,6.5394,6.5394,6.505,6.4382,6.314,6.2529,6.1803,6.0599,6.0389,6.0389,6.0389,6.0389,6.0389,6.0389,6.0389,6.0389,6.0389,6.0389,6.0389,6.0389,6.0472,6.0499,6.0499,6.0604,6.068,6.0685,6.0757,6.0734,6.0572,6.0349,6.0138,5.9977,5.9269,5.8954,5.8934,5.8088,5.7616,3.1063,3.2789,3.4285,3.4292,3.4974,3.5675,3.5735,3.5874,3.6427,3.7962,3.8278,3.8551,3.9504,4.0718,4.1717,4.2114,4.4922,4.7998,5.0821,5.1416,5.2122,5.3627,5.3924,5.4593,5.6153,5.6413,5.7045,5.8461,5.8642,5.8661,5.8572,5.8642,5.8821,5.9024,5.9215,5.9419,5.9631,6.0481,6.1455,6.2425,6.3221,6.4073,6.4907,6.4907,6.4907,6.4907,6.4907,6.4907,6.4907,6.4907,6.4907,6.4907,6.4907,6.4907,6.4907,6.4907,6.4907,6.4907,6.4907,6.4907,6.4907,6.4907,6.4924,6.5008,6.5147,6.5245,6.5309,6.5383,6.5394,6.5394,6.5394,6.5394,6.5394,6.5394,6.5394,6.5394,6.5394,6.5394,6.4898,6.3236,6.2911,6.2376,6.0676,6.0389,6.0389,6.0389,6.0389,6.0389,6.0389,6.0389,6.0389,6.0389,6.0389,6.0389,6.0361,6.037,6.0398,6.037,6.048,6.0501,6.0374,6.0405,6.0252,5.9855,5.9409,5.9026,5.872,5.8221,5.7954,5.7915,5.7052,5.6515,3.1593,3.2465,3.292,3.362,3.4434,3.519,3.5805,3.6481,3.719,3.7978,3.8651,3.9578,4.1118,4.0971,4.1547,4.4423,4.6959,4.898,5.0135,5.1528,5.2754,5.3701,5.4407,5.5224,5.6209,5.6933,5.7497,5.7898,5.839,5.8483,5.7954,5.8409,5.8843,5.9253,5.929,5.9491,5.9853,6.0667,6.1519,6.2425,6.3221,6.4073,6.4907,6.4907,6.4907,6.4907,6.4907,6.4907,6.4907,6.4907,6.4907,6.4907,6.4907,6.4907,6.4907,6.4907,6.4907,6.4907,6.4907,6.4907,6.4907,6.4907,6.4907,6.4924,6.5147,6.5213,6.5245,6.5383,6.5394,6.5394,6.5394,6.5394,6.5394,6.5394,6.5394,6.5394,6.5394,6.5394,6.4898,6.3236,6.2911,6.2376,6.0676,6.0389,6.0389,6.0389,6.0389,6.0389,6.0389,6.0389,6.0389,6.0389,6.0389,6.0304,6.0057,6.0057,6.0007,5.9828,6.011,5.9826,5.8867,5.8829,5.8505,5.7772,5.7669,5.7593,5.7563,5.6757,5.6339,5.632,5.5522,5.5113,3.108,3.2084,3.271,3.4017,3.4984,3.5912,3.7076,3.7702,3.8213,3.8931,3.9614,4.0364,4.1217,4.2425,4.4279,4.7117,4.8315,4.9355,5.0618,5.1844,5.2902,5.3701,5.4518,5.5354,5.6227,5.7026,5.7571,5.7769,5.8476,5.8609,5.7997,5.8651,5.9158,5.9455,5.9455,5.9597,5.9885,6.1174,6.2008,6.2425,6.3694,6.4509,6.4907,6.4907,6.4907,6.4907,6.4907,6.4907,6.4907,6.4907,6.4907,6.4907,6.4907,6.4907,6.4907,6.4907,6.4907,6.4907,6.4907,6.4907,6.4907,6.4907,6.4907,6.4942,6.5147,6.518,6.5213,6.5383,6.5394,6.5394,6.5394,6.5394,6.5394,6.5394,6.507,6.4745,6.4745,6.4382,6.356,6.1879,6.1554,6.1019,5.9338,5.9052,5.9052,5.9052,5.9052,5.9052,5.9052,5.8854,5.8728,5.8728,5.8558,5.8381,5.8268,5.8283,5.8505,5.8992,5.9203,5.8867,5.7889,5.7851,5.7586,5.7031,5.6753,5.6507,5.6333,5.5662,5.5356,5.5337,5.4977,5.4716,3.0871,3.2217,3.3449,3.5325,3.5988,3.6612,3.8196,3.8637,3.8982,3.9962,4.0519,4.1117,4.1939,4.457,4.7177,4.899,4.9396,5.0005,5.1472,5.2364,5.3181,5.3998,5.4854,5.5711,5.6567,5.7425,5.7842,5.7641,5.854,5.8709,5.7899,5.8801,5.9383,5.9597,5.9616,5.9685,5.9885,6.1572,6.2406,6.2425,6.4111,6.4907,6.4907,6.4907,6.4907,6.4907,6.4907,6.4907,6.4907,6.4907,6.4907,6.4907,6.4907,6.4907,6.4907,6.4907,6.4907,6.4907,6.4907,6.4907,6.4907,6.4907,6.4907,6.4942,6.5147,6.518,6.5213,6.5383,6.5261,6.5165,6.5356,6.5261,6.5127,6.5127,6.4477,6.3885,6.3885,6.3369,6.2471,6.0962,6.0523,5.9931,5.844,5.802,5.7905,5.7905,5.7813,5.7739,5.7739,5.74,5.7175,5.7175,5.6945,5.6791,5.672,5.6701,5.696,5.7567,5.7909,5.7711,5.6814,5.6776,5.6568,5.6104,5.5706,5.5367,5.5113,5.4731,5.456,5.456,5.456,5.443,3.1838,3.3486,3.5325,3.7807,3.7296,3.6632,3.83,3.8679,3.9113,4.0604,4.0957,4.1889,4.4805,4.7323,4.894,4.894,5.0209,5.1528,5.2401,5.3218,5.4017,5.4834,5.5845,5.6799,5.7621,5.8578,5.8613,5.7246,5.8461,5.8668,5.7243,5.8535,5.9383,5.9597,5.9616,5.9685,5.9885,6.1572,6.2406,6.2425,6.4111,6.4907,6.4907,6.4907,6.4907,6.4907,6.4907,6.4907,6.4907,6.4907,6.4907,6.4907,6.4907,6.4907,6.4907,6.4907,6.4907,6.4907,6.4907,6.4907,6.4907,6.4907,6.4907,6.4942,6.5147,6.518,6.5213,6.5383,6.4859,6.4458,6.5203,6.484,6.4286,6.4286,6.3618,6.2987,6.2987,6.2949,6.2643,6.1688,6.0905,6.0102,5.9166,5.8383,5.7905,5.7905,5.7587,5.7351,5.7351,5.7064,5.6861,5.6861,5.6826,5.672,5.6556,5.6327,5.589,5.5283,5.6293,5.6386,5.5229,5.5153,5.48,5.4018,5.3981,5.3963,5.3925,5.3907,5.387,5.387,5.387,5.387,3.2615,3.4036,3.5514,3.8054,3.9001,3.9475,4.01,4.0252,4.0397,4.0906,4.224,4.4263,4.7435,4.8602,4.9444,5.0421,5.1452,5.2252,5.2568,5.3292,5.411,5.4909,5.5842,5.6796,5.7696,5.8146,5.7997,5.7148,5.8113,5.8298,5.7346,5.8793,5.9719,5.9786,5.9786,5.982,5.9885,6.1572,6.2406,6.2425,6.4111,6.4907,6.4907,6.4907,6.4907,6.4907,6.4907,6.4907,6.4907,6.4907,6.4907,6.4907,6.4907,6.4907,6.4907,6.4907,6.4907,6.4907,6.4907,6.4907,6.4907,6.4907,6.4924,6.4879,6.4519,6.4413,6.4362,6.397,6.3637,6.3579,6.442,6.4019,6.3388,6.3388,6.2739,6.2089,6.2089,6.1707,6.1096,6.0217,5.9197,5.8223,5.7386,5.6353,5.5649,5.5649,5.5535,5.5419,5.5419,5.5111,5.4895,5.4895,5.4707,5.457,5.451,5.4566,5.4473,5.4197,5.5136,5.523,5.4296,5.4258,5.411,5.3813,5.3813,5.3813,5.3813,5.3813,5.3813,5.3813,5.3813,5.3813,3.3164,3.4661,3.6234,3.8509,4.0157,4.1275,4.1522,4.1787,4.2048,4.22,4.4101,4.6525,4.8945,4.9636,5.0291,5.1689,5.2361,5.2754,5.294,5.372,5.4558,5.5317,5.6232,5.713,5.8088,5.8053,5.7751,5.7129,5.7687,5.7881,5.7422,5.8748,5.9639,5.9885,5.9885,5.9885,5.9885,6.1572,6.2406,6.2425,6.4111,6.4907,6.4907,6.4907,6.4907,6.4907,6.4907,6.4907,6.4907,6.4907,6.4907,6.4907,6.4907,6.4907,6.4907,6.4907,6.4907,6.4907,6.4907,6.4718,6.449,6.449,6.4355,6.4082,6.3644,6.3518,6.3466,6.3034,6.2701,6.2595,6.3059,6.2852,6.249,6.249,6.1841,6.1211,6.1211,6.0685,6.0036,5.9445,5.811,5.6922,5.6374,5.5178,5.4315,5.4315,5.4193,5.4123,5.4123,5.3776,5.3563,5.3563,5.3422,5.3318,5.3359,5.3558,5.3695,5.3734,5.4294,5.437,5.3831,5.3813,5.3813,5.3813,5.3813,5.3813,5.3813,5.3678,5.3639,5.3639,5.3521,5.3462,3.3468,3.5514,3.7807,3.9494,4.0593,4.1465,4.2242,4.3095,4.3947,4.4762,4.6646,4.8389,4.9271,5.0527,5.1676,5.2475,5.2789,5.3104,5.3739,5.469,5.5548,5.6249,5.7188,5.8088,5.891,5.8613,5.8031,5.7163,5.727,5.7384,5.7384,5.8218,5.907,5.9847,5.9885,5.9885,5.9885,6.1553,6.2406,6.2425,6.4092,6.4888,6.4907,6.4907,6.4907,6.4907,6.4907,6.4907,6.4907,6.4907,6.4907,6.4907,6.4907,6.4888,6.4888,6.4888,6.4888,6.4888,6.4888,6.432,6.36,6.36,6.305,6.2421,6.2547,6.2592,6.2623,6.2814,6.2261,6.1487,6.1102,6.1279,6.1593,6.1593,6.0981,6.0389,6.0389,6.0068,5.9791,5.9791,5.811,5.6718,5.6718,5.535,5.4281,5.4281,5.3944,5.3682,5.3682,5.34,5.3206,5.3206,5.3254,5.3341,5.3499,5.3598,5.3734,5.3813,5.3813,5.3813,5.3813,5.3813,5.3813,5.3813,5.3813,5.3813,5.3794,5.3481,5.3318,5.3277,5.2937,5.2806,3.415,3.6386,3.8565,3.9646,4.2337,4.4478,4.3531,4.3894,4.4971,4.6955,4.8179,4.9332,5.0871,5.1759,5.2531,5.3497,5.3591,5.3833,5.4708,5.5006,5.5618,5.697,5.7401,5.8008,5.9103,5.8032,5.7288,5.7308,5.6841,5.655,5.655,5.7914,5.8805,5.9051,5.9601,5.9885,5.9885,6.0947,6.1799,6.2425,6.3486,6.432,6.4907,6.4907,6.4907,6.4907,6.4907,6.4907,6.4907,6.4907,6.4907,6.4907,6.4907,6.4528,6.3998,6.3998,6.3638,6.3145,6.3145,6.2974,6.2766,6.2766,6.2629,6.2321,6.1561,6.1372,6.1254,6.0513,6.0119,5.9896,5.9771,5.9826,5.993,5.993,5.9707,5.9571,5.9571,5.9467,5.9397,5.9397,5.8184,5.702,5.6461,5.5278,5.4168,5.3595,5.34,5.3336,5.3336,5.3272,5.3206,5.3206,5.3254,5.3341,5.3499,5.3598,5.3734,5.3813,5.3813,5.3813,5.3813,5.3813,5.3813,5.3813,5.3561,5.344,5.344,5.3091,5.2937,5.2937,5.285,5.2806,3.4434,3.6746,3.8888,3.9702,4.2829,4.5647,4.5578,4.5684,4.6275,4.8032,4.9126,5.0174,5.1536,5.2543,5.3386,5.3907,5.4298,5.4671,5.5119,5.5733,5.6455,5.7379,5.7788,5.8151,5.8653,5.7547,5.6804,5.6803,5.6121,5.583,5.6171,5.7156,5.7839,5.8161,5.8653,5.89,5.89,5.9715,6.0397,6.0947,6.2065,6.288,6.341,6.4092,6.4396,6.4377,6.4055,6.3922,6.3922,6.3922,6.3922,6.3922,6.3922,6.36,6.3126,6.3126,6.27,6.2121,6.2121,6.1913,6.1613,6.1431,6.1314,6.1114,6.0283,6.0114,6.0056,5.9383,5.9215,5.9159,5.9008,5.8969,5.9008,5.9159,5.9215,5.9215,5.9215,5.9084,5.8969,5.8969,5.7977,5.7019,5.6538,5.5288,5.4234,5.3757,5.3408,5.3206,5.3206,5.3206,5.3206,5.3206,5.3048,5.3072,5.3277,5.3217,5.3198,5.3381,5.3381,5.3381,5.3381,5.3521,5.36,5.36,5.3258,5.3109,5.3109,5.2743,5.2563,5.2563,5.2444,5.2351,3.4415,3.6803,3.8982,3.9721,4.2318,4.5363,4.7956,4.7935,4.7629,4.8428,4.9751,5.0946,5.1604,5.3061,5.4092,5.4019,5.4874,5.5507,5.5322,5.674,5.7728,5.7602,5.8252,5.8464,5.7882,5.7192,5.6563,5.5975,5.5283,5.5242,5.6038,5.6152,5.6531,5.727,5.7365,5.7403,5.7403,5.818,5.8616,5.871,6.017,6.0909,6.1041,6.2728,6.3505,6.3467,6.2728,6.2406,6.2406,6.2406,6.2406,6.2406,6.2406,6.2368,6.2292,6.2258,6.1934,6.1449,6.1411,6.0942,6.0246,5.9831,5.9547,5.929,5.8949,5.8928,5.9064,5.9103,5.9084,5.9026,5.8628,5.8563,5.8628,5.9008,5.9084,5.9084,5.9084,5.8772,5.8563,5.8563,5.7666,5.6895,5.6822,5.5592,5.4564,5.4418,5.372,5.3206,5.3206,5.3206,5.3164,5.3121,5.2751,5.2617,5.2985,5.2645,5.2572,5.2962,5.3024,5.3024,5.3024,5.3182,5.3258,5.3258,5.2919,5.2761,5.2761,5.2361,5.2155,5.2155,5.1853,5.169,3.4263,3.722,3.9683,3.9851,4.1446,4.4094,4.8564,4.8431,4.7924,4.9751,5.1023,5.1983,5.2648,5.3628,5.4562,5.5322,5.5409,5.5846,5.7229,5.7506,5.7773,5.8364,5.8605,5.8545,5.8072,5.7302,5.6616,5.6185,5.5364,5.4977,5.5166,5.583,5.6285,5.6455,5.7062,5.7403,5.7403,5.7592,5.8009,5.8691,5.9051,5.9544,6.0207,6.1894,6.2671,6.2652,6.2482,6.2406,6.2406,6.2406,6.2406,6.2406,6.2406,6.1989,6.133,6.1032,6.0398,5.9703,5.9393,5.916,5.897,5.8888,5.8899,5.8868,5.854,5.8516,5.8577,5.8319,5.8257,5.8213,5.8142,5.8142,5.8142,5.8231,5.8257,5.8257,5.8257,5.8186,5.8142,5.8142,5.7941,5.7538,5.6914,5.651,5.5868,5.4583,5.372,5.3206,5.3206,5.3206,5.306,5.2608,5.2499,5.2625,5.3175,5.3146,5.353,5.4565,5.4601,5.4601,5.4601,5.3507,5.2893,5.2893,5.2545,5.2343,5.2343,5.2,5.1822,5.1822,5.174,5.169,3.4226,3.7068,3.9911,4.2318,4.2659,4.372,4.8742,4.859,4.8159,5.079,5.1744,5.2309,5.2996,5.3856,5.4769,5.5616,5.5999,5.6589,5.781,5.8202,5.8458,5.8642,5.8781,5.8607,5.7997,5.7265,5.6598,5.6071,5.5333,5.4901,5.4901,5.5337,5.5583,5.5583,5.5981,5.6209,5.6209,5.6209,5.6436,5.6891,5.7289,5.7914,5.8748,6.0435,6.1193,6.1193,6.1193,6.1193,6.1193,6.1193,6.1193,6.1193,6.1193,6.0789,6.0163,5.9947,5.9343,5.8568,5.8332,5.8245,5.8245,5.8023,5.822,5.8516,5.8078,5.8097,5.8205,5.8042,5.7997,5.7997,5.7997,5.7997,5.7997,5.7997,5.7997,5.7997,5.7997,5.7997,5.7997,5.7997,5.7997,5.7868,5.7446,5.706,5.6253,5.4638,5.4051,5.3647,5.3261,5.3555,5.3584,5.2969,5.3039,5.3221,5.3566,5.3348,5.3596,5.4517,5.4585,5.4585,5.4585,5.3809,5.3291,5.3098,5.2342,5.1933,5.1933,5.1772,5.169,5.169,5.169,5.1904,3.3979,3.6765,4.0006,4.4611,4.4289,4.4004,4.8439,4.8496,4.8488,5.1525,5.2156,5.2409,5.3231,5.4062,5.4918,5.5785,5.6553,5.731,5.7997,5.8728,5.9081,5.8781,5.8884,5.8646,5.7921,5.736,5.677,5.6215,5.551,5.5129,5.5129,5.4977,5.4901,5.4901,5.4901,5.4901,5.4901,5.4901,5.4901,5.492,5.5621,5.6349,5.71,5.8532,5.9265,5.9468,5.962,5.9677,5.9696,5.9828,5.9853,5.9767,5.9767,5.9505,5.9084,5.9008,5.8526,5.7905,5.7812,5.7784,5.7737,5.732,5.766,5.8123,5.7726,5.781,5.7997,5.7997,5.7997,5.7997,5.7997,5.7997,5.7997,5.7997,5.7997,5.7997,5.7997,5.7997,5.7997,5.7997,5.7997,5.7997,5.7997,5.7446,5.6565,5.5225,5.5023,5.4785,5.4124,5.4386,5.4437,5.3821,5.3754,5.3798,5.3851,5.3503,5.3591,5.4296,5.4367,5.442,5.442,5.4295,5.4076,5.3716,5.2627,5.2101,5.2101,5.2101,5.2101,5.2101,5.2101,5.244,3.2975,3.6746,4.0442,4.3322,4.4308,4.5122,4.7245,4.8136,4.9254,5.1841,5.2371,5.2786,5.4145,5.4635,5.5364,5.6904,5.6964,5.7446,5.9114,5.9025,5.8803,5.8964,5.8803,5.8586,5.8109,5.7977,5.7724,5.7226,5.6474,5.6019,5.6019,5.5318,5.4901,5.4901,5.4901,5.4901,5.4901,5.4901,5.4901,5.4901,5.5015,5.5316,5.5755,5.598,5.6677,5.7782,5.8521,5.8843,5.89,5.9601,5.9681,5.9289,5.9289,5.9046,5.8628,5.8245,5.7978,5.7812,5.7419,5.7289,5.7289,5.7338,5.7534,5.7679,5.7745,5.7904,5.7997,5.7997,5.7997,5.7997,5.7997,5.7997,5.7997,5.7997,5.7997,5.7997,5.7997,5.7997,5.7997,5.7997,5.7997,5.7997,5.7997,5.7905,5.7776,5.7556,5.7519,5.7483,5.7373,5.6398,5.5496,5.4952,5.3812,5.3331,5.3742,5.3987,5.4574,5.5547,5.5897,5.6079,5.6079,5.5419,5.4991,5.4937,5.4117,5.3706,5.3706,5.3706,5.3706,5.3706,5.3706,5.376,3.3922,3.7447,4.0382,4.2469,4.3947,4.5217,4.6449,4.7738,4.914,5.0675,5.1755,5.2882,5.4489,5.4822,5.5299,5.6531,5.6857,5.7438,5.8732,5.9101,5.9196,5.9178,5.9196,5.9084,5.8802,5.8461,5.817,5.798,5.7264,5.6872,5.6872,5.6076,5.5621,5.5621,5.5148,5.4901,5.4901,5.4901,5.4901,5.4901,5.4901,5.4868,5.4841,5.4841,5.55,5.6758,5.7133,5.7302,5.7358,5.8165,5.8372,5.8256,5.8684,5.8609,5.8157,5.7996,5.7737,5.7468,5.7289,5.7188,5.7206,5.7257,5.7388,5.7486,5.7649,5.7792,5.7886,5.7997,5.7997,5.7997,5.7997,5.7997,5.8107,5.8584,5.8676,5.8804,5.9245,5.8988,5.8822,5.9263,5.9336,5.9336,5.9336,5.9336,5.9189,5.8749,5.8354,5.7996,5.7571,5.7036,5.6474,5.5879,5.5713,5.5644,5.5723,5.5881,5.6325,5.7135,5.6936,5.6893,5.7061,5.6294,5.5865,5.5865,5.4652,5.4028,5.4028,5.4028,5.4028,5.4028,5.4028,5.4259,3.4434,3.739,3.9683,4.1351,4.3189,4.4876,4.5937,4.7169,4.8477,4.9917,5.1054,5.2343,5.4257,5.4769,5.5155,5.5977,5.6506,5.7182,5.8257,5.8813,5.9193,5.9345,5.9419,5.9419,5.9383,5.8964,5.8729,5.8797,5.8135,5.7725,5.7725,5.6948,5.6493,5.6493,5.5678,5.5223,5.5223,5.5015,5.4901,5.4901,5.4791,5.4533,5.4158,5.4033,5.4446,5.5277,5.5705,5.5877,5.5933,5.675,5.7004,5.6996,5.7788,5.7844,5.7444,5.7664,5.7516,5.7188,5.7188,5.7188,5.7206,5.7239,5.7338,5.7504,5.7601,5.7745,5.7886,5.7997,5.8143,5.8309,5.8309,5.8455,5.8767,5.9373,5.952,5.9685,6.0272,5.9942,5.9685,6.0291,6.0401,6.0401,6.0401,6.0566,6.0511,5.9905,5.9452,5.8983,5.8386,5.7959,5.7506,5.7044,5.7306,5.7381,5.7178,5.7242,5.7461,5.7938,5.7546,5.7347,5.7637,5.7068,5.6748,5.6878,5.5703,5.4901,5.4616,5.4616,5.4616,5.4616,5.4616,5.4937,3.3335,3.5628,3.7921,3.9627,4.192,4.4194,4.5824,4.6259,4.7245,5.0467,5.0542,5.0789,5.3309,5.4389,5.5106,5.5799,5.5937,5.6522,5.8163,5.8108,5.8297,5.9451,5.9253,5.9178,5.9526,5.9578,5.9609,5.9796,5.907,5.8616,5.8616,5.7801,5.7327,5.7327,5.655,5.6133,5.6133,5.5318,5.4901,5.4901,5.4533,5.4123,5.372,5.3367,5.298,5.2781,5.433,5.4964,5.502,5.5895,5.6006,5.5698,5.6463,5.6492,5.6187,5.6967,5.7239,5.7188,5.7188,5.7188,5.7188,5.7356,5.7504,5.7583,5.7745,5.7886,5.7997,5.7997,5.8547,5.9153,5.9153,5.9703,6.0291,6.0346,6.0346,6.0346,6.0401,6.0382,6.0346,6.0401,6.0401,6.0401,6.0401,6.1025,6.152,6.1465,6.1615,6.1697,6.1661,5.9995,5.8817,5.8773,5.7625,5.6854,5.6805,5.7114,5.7289,5.7352,5.7551,5.7702,5.7702,5.7667,5.7754,5.8096,5.8025,5.7437,5.6276,5.6276,5.6276,5.6276,5.6276,5.6294,3.324,3.5514,3.7675,3.8831,4.1427,4.3701,4.3758,4.5426,4.715,4.7851,4.9443,5.0846,5.1187,5.2729,5.417,5.4918,5.5303,5.5798,5.6677,5.7014,5.7618,5.8883,5.891,5.9065,5.973,5.9786,5.982,5.9885,5.962,5.9468,5.9468,5.8672,5.8218,5.8218,5.7403,5.672,5.6209,5.5337,5.4901,5.4901,5.45,5.4069,5.3683,5.3267,5.2875,5.2544,5.3097,5.3365,5.3438,5.4261,5.4519,5.4428,5.5229,5.5704,5.6029,5.6319,5.6754,5.7188,5.7188,5.7188,5.7206,5.7257,5.7289,5.7447,5.8123,5.8434,5.864,5.9249,5.9693,5.9979,5.9979,6.0181,6.0529,6.1043,6.1557,6.1942,6.1942,6.1539,6.1318,6.1851,6.1942,6.1942,6.1942,6.1843,6.18,6.18,6.1178,6.0651,6.0651,5.9692,5.8984,5.8984,5.8492,5.8219,5.8219,5.8354,5.8487,5.8768,5.841,5.8258,5.8447,5.7956,5.7772,5.7877,5.7877,5.7665,5.715,5.715,5.6882,5.6401,5.6401,5.6401,3.2482,3.4472,3.65,3.7902,4.0157,4.2166,4.2716,4.4326,4.588,4.6468,4.8155,4.969,5.0239,5.128,5.2504,5.386,5.4405,5.4919,5.5706,5.6218,5.6945,5.811,5.8205,5.8494,5.9412,5.9487,5.9601,5.9866,5.9885,5.9885,5.9885,5.9374,5.8976,5.871,5.8142,5.7441,5.6607,5.5754,5.5337,5.5337,5.4514,5.3961,5.3683,5.312,5.2761,5.2498,5.2498,5.2498,5.2534,5.3078,5.3295,5.3385,5.4182,5.4798,5.5287,5.5812,5.6337,5.6826,5.7098,5.7188,5.7243,5.7514,5.7655,5.7851,5.8718,5.9106,5.9414,6.0042,6.0488,6.0805,6.0805,6.1006,6.1355,6.1887,6.242,6.2805,6.2805,6.2383,6.2163,6.2713,6.2805,6.2805,6.2805,6.2482,6.2131,6.1951,6.101,6.0237,6.0019,5.9383,5.9012,5.9012,5.9012,5.9012,5.9012,5.9012,5.9081,5.9369,5.8883,5.872,5.8916,5.8427,5.8212,5.8356,5.8356,5.8097,5.7686,5.7419,5.6869,5.6106,5.6106,5.6162,0.0,0.0,0.0,3.6708,3.8016,3.9551,4.2848,4.3,4.336,4.6582,4.6733,4.7245,5.0467,5.0134,5.0172,5.2644,5.322,5.3868,5.5326,5.5706,5.6209,5.722,5.7168,5.7475,5.8559,5.8653,5.8995,5.9791,5.9847,5.9866,5.9885,5.9885,5.9525,5.8748,5.871,5.8293,5.7441,5.6645,5.6209,5.619,5.4535,5.3701,5.3683,5.2875,5.2498,5.2498,5.2498,5.2498,5.2498,5.2498,5.2498,5.257,5.3367,5.3675,5.3874,5.5377,5.5957,5.612,5.6917,5.7224,5.7369,5.8166,5.854,5.8787,5.9605,5.9994,6.0243,6.0262,6.0927,6.163,6.163,6.2218,6.2805,6.2805,6.2805,6.2805,6.2805,6.2805,6.2805,6.2805,6.2805,6.2805,6.2805,6.2755,6.2534,6.1951,6.1265,6.0615,6.0065,5.9383,5.9012,5.9012,5.9012,5.9012,5.9012,5.9012,5.9012,5.9012,5.9012,5.9012,5.9012,5.9012,5.9149,5.9569,5.9551,5.8933,5.7745,5.7017,5.6227,5.5472,5.5472,5.5648,3.0966,0.0,0.0,0.0,0.0,0.0,4.0612,4.2134,4.3315,4.3696,4.5918,4.7764,4.7598,4.8182,4.9284,5.1186,5.1837,5.2555,5.3822,5.4056,5.4698,5.633,5.6481,5.6772,5.7668,5.7763,5.8104,5.8957,5.9014,5.9279,5.9866,5.9885,5.9791,5.9563,5.8995,5.8578,5.8331,5.7479,5.6777,5.619,5.5115,5.424,5.3683,5.2875,5.2498,5.2498,5.2498,5.2498,5.2498,5.2498,5.2498,5.2516,5.2752,5.3186,5.3748,5.4182,5.5033,5.612,5.6917,5.7587,5.8202,5.9017,5.9271,5.9468,6.0284,6.0625,6.0941,6.1576,6.2058,6.2375,6.2425,6.264,6.2805,6.2805,6.2805,6.2805,6.2805,6.2805,6.2805,6.2805,6.2805,6.2805,6.2805,6.2041,6.1379,6.1207,6.0246,5.9499,5.9334,5.9132,5.9012,5.9012,5.9012,5.9012,5.9012,5.9012,5.9012,5.9012,5.9012,5.9012,5.9012,5.9012,5.9081,5.9149,5.863,5.7936,5.7049,5.7332,5.6789,5.5472,5.5472,5.5531,3.053,3.1876,3.3354,3.4188,0.0,0.0,3.9134,4.1018,4.2621,4.2882,4.4802,4.6592,4.715,4.7303,4.8032,5.0137,5.0365,5.0892,5.2604,5.2942,5.3513,5.4996,5.5166,5.5621,5.6796,5.6891,5.7251,5.8085,5.8161,5.8521,5.9336,5.9715,5.9885,5.9885,5.9449,5.9184,5.9184,5.835,5.7624,5.6932,5.5548,5.457,5.3927,5.2951,5.2498,5.2498,5.2498,5.2498,5.2498,5.2498,5.2498,5.2498,5.2498,5.2788,5.3241,5.3585,5.4472,5.5703,5.6808,5.7732,5.8601,5.9742,6.0104,6.0267,6.1082,6.1407,6.1586,6.2164,6.2449,6.2654,6.2773,6.2805,6.2773,6.2705,6.2755,6.2755,6.2705,6.2755,6.2805,6.2805,6.2805,6.2805,6.2805,6.1987,6.1207,6.0956,6.0012,5.9334,5.9012,5.9012,5.9012,5.9012,5.9012,5.9012,5.9012,5.9012,5.9012,5.9012,5.9012,5.9012,5.9012,5.9012,5.9012,5.9012,5.8288,5.7374,5.6305,5.6675,5.6237,5.5113,5.5234,5.5294,3.0059,3.1212,3.2596,3.3354,3.4889,0.0,3.8073,3.9797,4.1442,4.2848,4.3412,4.4586,4.7586,4.6781,4.6501,4.9083,4.8748,4.9079,5.1647,5.2086,5.2494,5.3442,5.3556,5.4143,5.5621,5.5868,5.6266,5.7062,5.7289,5.7782,5.8635,5.9374,5.9809,5.9885,5.9885,5.9885,5.9885,5.9133,5.848,5.7958,5.6031,5.4851,5.4374,5.3181,5.2625,5.2625,5.2534,5.2498,5.2498,5.2498,5.2498,5.2498,5.2498,5.2498,5.2589,5.3403,5.4218,5.5124,5.6663,5.7786,5.8782,6.0321,6.0883,6.1082,6.1788,6.206,6.2203,6.2203,6.2397,6.2603,6.2705,6.2773,6.2723,6.2603,6.2654,6.2705,6.2603,6.2705,6.2755,6.2755,6.2773,6.2805,6.2805,6.2308,6.164,6.1015,6.0406,5.9761,5.9081,5.9012,5.9012,5.9012,5.9012,5.9012,5.9012,5.9012,5.9012,5.9012,5.9012,5.9012,5.9012,5.9012,5.8978,5.8892,5.8081,5.6943,5.5495,5.5495,5.515,5.4512,5.4807,5.493,3.1118,0.0,0.0,0.0,0.0,0.0,3.6594,3.8385,3.9928,3.9719,4.1732,4.3788,4.453,4.4378,4.4757,4.662,4.6746,4.7723,5.0922,5.0799,5.094,5.2475,5.2665,5.2779,5.312,5.3783,5.4522,5.5337,5.6645,5.7782,5.8635,5.8843,5.9222,5.9866,5.9885,5.9885,5.9885,5.9354,5.8743,5.7977,5.6862,5.5974,5.5218,5.4036,5.3476,5.344,5.277,5.2498,5.2498,5.2498,5.2498,5.2498,5.2498,5.2498,5.2589,5.3403,5.4218,5.5124,5.6663,5.8148,5.9524,6.0502,6.1245,6.1806,6.1969,6.2023,6.206,6.215,6.231,6.2467,6.2467,6.2467,6.2467,6.2467,6.2467,6.2467,6.2467,6.2552,6.2603,6.2519,6.2672,6.2805,6.2805,6.2308,6.164,6.1015,6.0406,5.9761,5.9081,5.9012,5.9012,5.9012,5.9012,5.9012,5.9012,5.9012,5.9012,5.9012,5.9012,5.9012,5.9012,5.9012,5.8737,5.8133,5.6753,5.5615,5.4718,5.4718,5.4649,5.4512,5.4575,5.4637,0.0,0.0,0.0,3.3051,0.0,0.0,0.0,3.7425,3.8596,3.8679,4.0302,4.1978,4.2882,4.3057,4.3739,4.5862,4.5843,4.643,4.8951,4.9652,5.0201,5.1054,5.1547,5.1812,5.1812,5.257,5.3404,5.4238,5.5849,5.6986,5.7422,5.8237,5.8881,5.9279,5.9677,5.9801,5.954,5.9344,5.8763,5.7932,5.7099,5.6356,5.5694,5.4731,5.4309,5.4291,5.3874,5.3693,5.3693,5.3693,5.3458,5.3059,5.2661,5.2752,5.315,5.3548,5.4436,5.5613,5.679,5.7985,5.9198,6.043,6.1082,6.1498,6.1897,6.2023,6.2023,6.215,6.2257,6.231,6.2362,6.2415,6.2362,6.231,6.2362,6.2362,6.231,6.2415,6.2449,6.2415,6.2519,6.2603,6.2705,6.1987,6.1283,6.0956,6.0093,5.9383,5.9012,5.9012,5.9012,5.9012,5.9012,5.9012,5.9012,5.9012,5.9012,5.9012,5.9012,5.9012,5.9012,5.8668,5.7926,5.6788,5.6012,5.5253,5.4512,5.4512,5.4512,5.4512,5.4512,5.4512,0.0,0.0,0.0,0.0,0.0,3.5078,0.0,0.0,0.0,3.8054,3.8869,3.993,4.1616,4.1787,4.2356,4.4421,4.4573,4.4781,4.5805,4.7681,4.8988,4.9159,5.0088,5.0599,5.0277,5.1263,5.2343,5.3366,5.4863,5.5792,5.5943,5.7384,5.8274,5.8426,5.9241,5.9435,5.8971,5.9065,5.8691,5.7905,5.7153,5.6627,5.621,5.545,5.5106,5.5106,5.4961,5.4907,5.4907,5.4907,5.4526,5.3874,5.3222,5.3259,5.3748,5.4037,5.4925,5.612,5.6917,5.7732,5.8619,5.9923,6.0557,6.0937,6.1589,6.1897,6.2005,6.2096,6.215,6.2203,6.231,6.231,6.231,6.2203,6.2257,6.231,6.2203,6.2257,6.2362,6.231,6.2362,6.2415,6.2552,6.1824,6.1091,6.0855,5.9966,5.9199,5.9012,5.8823,5.8737,5.8806,5.8599,5.8513,5.8581,5.8581,5.8581,5.8581,5.8581,5.8581,5.8581,5.7874,5.6874,5.5632,5.5477,5.5115,5.4512,5.4512,5.4512,5.4512,5.4512,5.4512,0.0,0.0,0.0,0.0,3.4832,0.0,3.5022,0.0,3.6348,3.6462,0.0,3.8205,3.9873,0.0,0.0,3.9494,4.1313,4.2242,4.0934,4.3474,4.5748,4.6525,4.8003,4.8401,4.6904,4.8837,5.0827,5.2438,5.3442,5.4295,5.5015,5.5962,5.6815,5.7535,5.8388,5.8623,5.8145,5.8516,5.8418,5.7905,5.7377,5.7112,5.7043,5.6228,5.5866,5.583,5.5178,5.4907,5.4907,5.4907,5.4852,5.4762,5.4671,5.4255,5.3874,5.5233,5.5848,5.612,5.6917,5.7732,5.8438,5.8619,5.9651,6.0828,6.0919,6.1444,6.2005,6.2005,6.2005,6.2023,6.206,6.2078,6.206,6.2023,6.2005,6.2005,6.2023,6.2114,6.2203,6.206,6.2222,6.2415,6.2415,6.2291,6.186,6.0729,6.0424,5.9937,5.8978,5.8135,5.7724,5.7962,5.7292,5.683,5.7047,5.7047,5.7047,5.7047,5.7047,5.7047,5.7047,5.6288,5.5788,5.5615,5.4977,5.4598,5.4512,5.4512,5.4512,5.4512,5.4512,5.4512,3.8452,3.7732,3.7087,0.0,0.0,0.0,3.6462,0.0,3.6746,0.0,0.0,0.0,0.0,0.0,0.0,0.0,3.957,4.0347,4.0631,4.1882,4.3417,4.5236,4.6506,4.7359,4.7605,4.9462,5.0959,5.1661,5.2494,5.3309,5.4162,5.4996,5.583,5.6683,5.7497,5.7842,5.7581,5.7757,5.7722,5.7516,5.7289,5.7188,5.7188,5.6844,5.6699,5.6681,5.6373,5.6228,5.6228,5.6228,5.5957,5.5577,5.6047,5.574,5.5106,5.5758,5.6283,5.6736,5.708,5.7424,5.7786,5.8257,5.918,6.0104,6.0104,6.0357,6.072,6.119,6.1317,6.1426,6.1897,6.2023,6.2023,6.2023,6.2023,6.2023,6.2023,6.1697,6.1353,6.1317,6.1044,6.077,6.077,6.1009,6.0898,5.9958,5.9117,5.8305,5.7466,5.7004,5.6799,5.6986,5.6644,5.6388,5.6522,5.6522,5.6522,5.6522,5.6522,5.6316,5.5853,5.5461,5.5084,5.4655,5.4346,5.4175,5.4175,5.4175,5.4175,5.4239,5.4385,5.4512,4.0385,3.9835,3.9323,3.9077,3.8679,3.8224,3.7845,0.0,0.0,0.0,3.6651,0.0,0.0,0.0,3.7125,3.7296,0.0,3.8186,3.8717,3.9399,4.084,4.3568,4.4649,4.5994,4.8136,4.9443,5.0163,5.0163,5.1357,5.2248,5.2646,5.3878,5.4863,5.5489,5.6531,5.6911,5.6655,5.706,5.7173,5.6862,5.708,5.7188,5.7188,5.7188,5.7188,5.7188,5.7188,5.7188,5.7188,5.7188,5.6862,5.6373,5.6971,5.6826,5.6319,5.6319,5.6699,5.7188,5.7188,5.7188,5.7297,5.7876,5.8619,5.9271,5.9271,5.9434,5.9724,6.0321,6.0484,6.0629,6.1208,6.1353,6.1353,6.1353,6.1353,6.1353,6.1353,6.0883,6.0484,6.0484,6.0013,5.9615,5.9615,5.9907,5.9829,5.9005,5.7956,5.7091,5.6303,5.5996,5.5877,5.5928,5.5757,5.5637,5.5637,5.5704,5.5704,5.5704,5.5704,5.5381,5.48,5.4783,5.4527,5.3997,5.398,5.398,5.398,5.398,5.398,5.3997,5.4239,5.4385,4.1598,4.1143,4.0934,4.006,3.8641,3.7656,3.8472,3.7997,3.7163,0.0,0.0,0.0,0.0,0.0,0.0,0.0,0.0,0.0,0.0,3.4813,3.758,4.0934,4.2033,4.3815,4.7112,4.7491,4.751,4.751,4.9841,5.0884,5.0069,5.2381,5.3745,5.3783,5.5375,5.5833,5.5001,5.6503,5.6878,5.6047,5.6826,5.7188,5.7188,5.7188,5.7188,5.7188,5.7188,5.7188,5.7188,5.7188,5.717,5.7152,5.7188,5.717,5.7152,5.7152,5.717,5.7188,5.7188,5.7188,5.7188,5.7224,5.7786,5.8438,5.8438,5.8981,5.9615,5.9633,5.9651,5.9651,5.9669,5.9687,5.9687,5.9687,5.9687,5.9687,5.9687,5.9669,5.9651,5.9651,5.9633,5.9615,5.9615,5.9633,5.9222,5.7963,5.7702,5.7248,5.615,5.5212,5.4754,5.5125,5.4343,5.3851,5.4066,5.4049,5.4049,5.4049,5.4049,5.4049,5.4032,5.4032,5.3997,5.398,5.398,5.398,5.398,5.398,5.398,5.398,5.398,5.398,4.3152,4.3246,4.3322,4.192,4.156,4.1351,4.0536,3.9683,3.8982,3.8698,0.0,0.0,0.0,0.0,0.0,0.0,0.0,0.0,0.0,3.4794,3.6159,3.8414,4.0877,4.3284,4.552,4.6752,4.7397,4.7397,4.9235,5.0201,4.9917,5.1263,5.2551,5.3669,5.3987,5.4378,5.4909,5.5697,5.6071,5.5993,5.6808,5.7188,5.7188,5.7188,5.7188,5.7188,5.7188,5.7188,5.7188,5.7188,5.7188,5.7188,5.7188,5.7188,5.7188,5.7188,5.7188,5.7188,5.7188,5.7188,5.7188,5.7188,5.7387,5.7605,5.7605,5.7804,5.8112,5.8655,5.8818,5.8927,5.947,5.9615,5.9615,5.9615,5.9615,5.9615,5.9615,5.918,5.8818,5.8818,5.8383,5.8003,5.8003,5.8003,5.7783,5.7046,5.6473,5.575,5.4482,5.4093,5.394,5.4058,5.3771,5.3618,5.3685,5.3685,5.3685,5.3685,5.3685,5.3685,5.3685,5.3685,5.3685,5.3685,5.3685,5.3685,5.3685,5.3685,5.3685,5.3685,5.3685,5.38,4.4895,4.4971,4.5028,4.3644,4.3512,4.3493,4.2697,4.1635,4.0726,4.0423,3.9475,0.0,0.0,0.0,0.0,0.0,0.0,0.0,0.0,3.4017,3.4624,3.631,3.921,4.1863,4.3815,4.552,4.6639,4.6942,4.823,4.914,4.9443,5.0277,5.1509,5.3177,5.3289,5.3684,5.4463,5.5036,5.5412,5.5613,5.6391,5.6917,5.7188,5.7188,5.7188,5.7188,5.7188,5.7188,5.7188,5.7188,5.7188,5.7188,5.7188,5.7188,5.7188,5.7188,5.7188,5.7188,5.7188,5.7188,5.7188,5.7188,5.7188,5.7188,5.7188,5.7188,5.7369,5.8166,5.8184,5.8166,5.8963,5.8963,5.8746,5.8746,5.8746,5.8746,5.8746,5.8347,5.7967,5.7967,5.755,5.7138,5.6915,5.7036,5.6955,5.6194,5.5683,5.4922,5.3685,5.3501,5.3501,5.3501,5.3501,5.3501,5.3501,5.3501,5.3501,5.3501,5.3501,5.3501,5.3501,5.3501,5.3501,5.3501,5.3501,5.3501,5.3501,5.3501,5.3501,5.3501,5.3501,5.3635]},{"header":{"parameterUnit":"m.s-1","parameterCategory":1,"la1":30.6,"la2":29.2853,"lo1":-89.7004,"lo2":-87.6739,"dx":0.0162,"dy":0.0183,"nx":112,"ny":82,"refTime":"2022-12-16T18:00:00:Z","depth":0,"parameterNumber":3,"parameterNumberName":"V-component_of_WINDS"},"data":[0.0,0.0,0.0,0.0,0.0,0.0,0.0,0.0,0.0,0.0,0.0,0.0,0.0,0.0,0.0,0.0,0.0,0.0,0.0,0.0,0.0,0.0,0.0,0.0,0.0,0.0,0.0,0.0,0.0,0.0,0.0,0.0,0.0,0.0,0.0,0.0,0.0,0.0,0.0,0.0,0.0,0.0,0.0,0.0,0.0,0.0,0.0,0.0,0.0,0.0,0.0,0.0,0.0,0.0,0.0,0.0,0.0,0.0,0.0,0.0,0.0,0.0,0.0,0.0,0.0,0.0,0.0,0.0,0.0,0.0,0.0,0.0,0.0,0.0,0.0,0.0,0.0,0.0,0.0,0.0,0.0,0.0,0.0,0.0,0.0,0.0,0.0,0.0,0.0,0.0,-0.4242,-0.4154,-0.3845,-0.3632,-0.3556,-0.3271,-0.2981,-0.2635,0.0,0.0,0.0,0.0,0.0,0.0,0.0,0.0,0.0,0.0,0.0,0.0,0.0,0.0,0.0,0.0,0.0,0.0,0.0,0.0,0.0,0.0,0.0,0.0,0.0,0.0,0.0,0.0,0.0,0.0,0.0,0.0,0.0,0.0,0.0,0.0,0.0,0.0,0.0,0.0,0.0,0.0,0.0,0.0,0.0,0.0,0.0,0.0,0.0,0.0,0.0,0.0,0.0,0.0,0.0,0.0,0.0,0.0,0.0,0.0,0.0,0.0,0.0,0.0,0.0,0.0,0.0,0.0,0.0,0.0,0.0,0.0,0.0,0.0,0.0,0.0,0.0,0.0,0.0,0.0,0.0,0.0,0.0,0.0,0.0,0.0,0.0,0.0,0.0,0.0,0.0,0.0,0.0,0.0,0.0,0.0,0.0,0.0,0.0,0.0,0.0,0.0,0.0,0.0,-0.456,-0.3946,-0.3878,-0.3722,-0.3392,-0.3324,-0.2998,-0.23,0.0,0.0,0.0,0.0,0.0,0.0,0.0,0.0,0.0,0.0,0.0,0.0,0.0,0.0,0.0,0.0,0.0,0.0,0.0,0.0,0.0,0.0,0.0,0.0,0.0,0.0,0.0,0.0,0.0,0.0,0.0,0.0,0.0,0.0,0.0,0.0,0.0,0.0,0.0,0.0,0.0,0.0,0.0,0.0,0.0,0.0,0.0,0.0,0.0,0.0,0.0,0.0,0.0,0.0,0.0,0.0,0.0,0.0,0.0,0.0,0.0,0.0,0.0,0.0,0.0,0.0,0.0,0.0,0.0,0.0,0.0,0.0,0.0,0.0,0.0,0.0,0.0,0.0,0.0,0.0,0.0,0.0,0.0,0.0,0.0,0.0,0.0,0.0,0.0,0.0,0.0,0.0,0.0,0.0,0.0,0.0,0.0,0.0,0.0,0.0,0.0,0.0,0.0,-0.4703,-0.4407,-0.3898,-0.3901,-0.3851,-0.3618,-0.3618,-0.3266,-0.2646,-0.2488,0.0,0.0,0.0,0.0,0.0,0.0,0.0,0.0,0.0,0.0,0.0,0.0,0.0,0.0,0.0,0.0,0.0,0.0,0.0,0.0,0.0,0.0,0.0,0.0,0.0,0.0,0.0,0.0,0.0,0.0,0.0,0.0,0.0,0.0,0.0,0.0,0.0,0.0,0.0,0.0,0.0,0.0,0.0,0.0,0.0,0.0,0.0,0.0,0.0,0.0,0.0,0.0,0.0,0.0,0.0,0.0,0.0,0.0,0.0,0.0,0.0,0.0,0.0,0.0,0.0,0.0,0.0,0.0,0.0,0.0,0.0,0.0,0.0,0.0,0.0,0.0,0.0,0.0,0.0,0.0,0.0,0.0,0.0,0.0,0.0,0.0,0.0,0.0,0.0,0.0,0.0,0.0,0.0,0.0,0.0,0.0,0.0,0.0,0.0,0.0,0.0,0.0,-0.4451,-0.4234,-0.3969,-0.4004,-0.4009,-0.3979,-0.3892,-0.3636,-0.3056,-0.2813,0.0,0.0,0.0,0.0,0.0,0.0,0.0,0.0,0.0,0.0,0.0,0.0,0.0,0.0,0.0,0.0,0.0,0.0,0.0,0.0,0.0,0.0,0.0,0.0,0.0,0.0,0.0,0.0,0.0,0.0,0.0,0.0,0.0,0.0,0.0,0.0,0.0,0.0,0.0,0.0,0.0,0.0,0.0,0.0,0.0,0.0,0.0,0.0,0.0,0.0,0.0,0.0,0.0,0.0,0.0,0.0,0.0,0.0,0.0,0.0,0.0,0.0,0.0,0.0,0.0,0.0,0.0,0.0,0.0,0.0,0.0,0.0,0.0,0.0,0.0,0.0,0.0,0.0,0.0,0.0,0.0,0.0,0.0,0.0,0.0,0.0,0.0,0.0,0.0,0.0,0.0,0.0,0.0,0.0,0.0,0.0,0.0,0.0,0.0,0.0,0.0,0.0,-0.4504,-0.4096,-0.4105,-0.4205,-0.423,-0.4115,-0.4096,-0.3872,-0.3304,-0.3047,0.0,0.0,0.0,0.0,0.0,0.0,0.0,0.0,0.0,0.0,0.0,0.0,0.0,0.0,0.0,0.0,0.0,0.0,0.0,0.0,0.0,0.0,0.0,0.0,0.0,0.0,0.0,0.0,0.0,0.0,0.0,0.0,0.0,0.0,0.0,0.0,0.0,0.0,0.0,0.0,0.0,0.0,0.0,0.0,0.0,0.0,0.0,0.0,0.0,0.0,0.0,0.0,0.0,0.0,0.0,0.0,0.0,0.0,0.0,0.0,0.0,0.0,0.0,0.0,0.0,0.0,0.0,0.0,0.0,0.0,0.0,0.0,0.0,0.0,0.0,0.0,0.0,0.0,0.0,0.0,0.0,0.0,0.0,0.0,0.0,0.0,0.0,0.0,0.0,0.0,0.0,0.0,0.0,0.0,0.0,0.0,0.0,0.0,0.0,0.0,0.0,0.0,-0.4898,-0.4613,-0.4505,-0.4561,-0.4441,-0.4117,-0.4041,-0.3617,-0.2861,0.0,0.0,0.0,0.0,0.0,0.0,0.0,0.0,0.0,0.0,0.0,0.0,0.0,0.0,0.0,0.0,0.0,0.0,0.0,0.0,0.0,0.0,0.0,0.0,0.0,0.0,0.0,0.0,0.0,0.0,0.0,0.0,0.0,0.0,0.0,0.0,0.0,0.0,0.0,0.0,0.0,0.0,0.0,0.0,0.0,0.0,0.0,0.0,0.0,0.0,0.0,0.0,0.0,0.0,0.0,0.0,0.0,0.0,0.0,0.0,0.0,0.0,0.0,0.0,0.0,0.0,0.0,0.0,0.0,0.0,0.0,0.0,0.0,0.0,0.0,0.0,0.0,0.0,0.0,0.0,0.0,0.0,0.0,0.0,0.0,0.0,0.0,0.0,0.0,0.0,0.0,0.0,0.0,0.0,0.0,0.0,0.0,0.0,0.0,0.0,0.0,0.0,-0.5213,-0.5048,-0.4845,-0.4814,-0.4844,-0.4707,-0.418,-0.4046,-0.3586,-0.2779,0.0,0.0,0.0,0.0,0.0,0.0,0.0,0.0,0.0,0.0,0.0,0.0,0.0,0.0,0.0,0.0,0.0,0.0,0.0,0.0,0.0,0.0,0.0,0.0,0.0,0.0,0.0,0.0,0.0,0.0,0.0,0.0,0.0,0.0,0.0,0.0,0.0,0.0,0.0,0.0,0.0,0.0,0.0,0.0,0.0,0.0,0.0,0.0,0.0,0.0,0.0,0.0,0.0,0.0,0.0,0.0,0.0,0.0,0.0,0.0,0.0,0.0,0.0,0.0,0.0,0.0,0.0,0.0,0.0,0.0,0.0,0.0,0.0,0.0,0.0,0.0,0.0,0.0,0.0,0.0,0.0,0.0,0.0,0.0,0.0,0.0,0.0,0.0,0.0,0.0,0.0,0.0,0.0,0.0,0.0,0.0,0.0,0.0,0.0,0.0,0.0,0.0,-0.5051,-0.4853,-0.4751,-0.4993,-0.5023,-0.4784,-0.4309,-0.4201,-0.3822,0.0,0.0,0.0,0.0,0.0,0.0,0.0,0.0,0.0,0.0,0.0,0.0,0.0,0.0,0.0,0.0,0.0,0.0,0.0,0.0,0.0,0.0,0.0,0.0,0.0,0.0,0.0,0.0,0.0,0.0,0.0,0.0,0.0,0.0,0.0,0.0,0.0,0.0,0.0,0.0,0.0,0.0,0.0,0.0,0.0,0.0,0.0,0.0,0.0,0.0,0.0,0.0,0.0,0.0,0.0,0.0,0.0,0.0,0.0,0.0,0.0,0.0,0.0,0.0,0.0,0.0,0.0,0.0,0.0,0.0,0.0,0.0,0.0,0.0,0.0,0.0,0.0,0.0,0.0,0.0,0.0,0.0,0.0,0.0,0.0,0.0,0.0,0.0,0.0,0.0,0.0,0.0,0.0,0.0,0.0,0.0,0.0,0.0,0.0,0.0,0.0,0.0,0.0,-0.5077,-0.5069,-0.501,-0.4841,-0.4843,-0.4525,-0.3708,-0.3658,-0.3262,-0.2539,0.0,0.0,0.0,0.0,0.0,0.0,0.0,0.0,0.0,0.0,0.0,0.0,0.0,0.0,0.0,0.0,0.0,0.0,0.0,0.0,0.0,0.0,0.0,0.0,0.0,0.0,0.0,0.0,0.0,0.0,0.0,0.0,0.0,0.0,0.0,0.0,0.0,0.0,0.0,0.0,0.0,0.0,0.0,0.0,0.0,0.0,0.0,0.0,0.0,0.0,0.0,0.0,0.0,0.0,0.0,0.0,0.0,0.0,0.0,0.0,0.0,0.0,0.0,0.0,0.0,0.0,0.0,0.0,0.0,0.0,0.0,0.0,0.0,0.0,0.0,0.0,0.0,0.0,0.0,0.0,0.0,0.0,0.0,0.0,0.0,0.0,0.0,0.0,0.0,0.0,0.0,0.0,0.0,0.0,0.0,0.0,0.0,0.0,0.0,0.0,0.0,0.0,-0.545,-0.5378,-0.5228,-0.4872,-0.4984,-0.4574,-0.3629,-0.3456,-0.3146,-0.247,0.0,0.0,0.0,0.0,0.0,0.0,0.0,0.0,0.0,0.0,0.0,0.0,0.0,0.0,0.0,0.0,0.0,0.0,0.0,0.0,0.0,0.0,0.0,0.0,0.0,0.0,0.0,0.0,0.0,0.0,0.0,0.0,0.0,0.0,0.0,0.0,0.0,0.0,0.0,0.0,0.0,0.0,0.0,0.0,0.0,0.0,0.0,0.0,0.0,0.0,0.0,0.0,0.0,0.0,0.0,0.0,0.0,0.0,0.0,0.0,0.0,0.0,0.0,0.0,0.0,0.0,0.0,0.0,0.0,0.0,0.0,0.0,0.0,0.0,0.0,0.0,0.0,0.0,0.0,0.0,0.0,0.0,0.0,0.0,0.0,0.0,0.0,0.0,0.0,0.0,0.0,0.0,0.0,0.0,0.0,0.0,0.0,0.0,0.0,0.0,0.0,0.0,-0.5867,-0.5616,-0.5318,-0.5071,-0.5083,-0.4759,-0.3806,-0.353,-0.3235,-0.287,0.0,0.0,0.0,0.0,0.0,0.0,0.0,0.0,0.0,0.0,0.0,0.0,0.0,0.0,0.0,0.0,0.0,0.0,0.0,0.0,0.0,0.0,0.0,0.0,0.0,0.0,0.0,0.0,0.0,0.0,0.0,0.0,0.0,0.0,0.0,0.0,0.0,0.0,0.0,0.0,0.0,0.0,0.0,0.0,0.0,0.0,0.0,0.0,0.0,0.0,0.0,0.0,0.0,0.0,0.0,0.0,0.0,0.0,0.0,0.0,-0.9057,-0.8429,0.0,0.0,0.0,0.0,0.0,0.0,0.0,0.0,0.0,0.0,0.0,0.0,0.0,0.0,0.0,0.0,0.0,0.0,0.0,0.0,0.0,0.0,0.0,0.0,0.0,0.0,0.0,0.0,0.0,0.0,0.0,0.0,0.0,0.0,0.0,0.0,0.0,0.0,0.0,0.0,-0.5638,-0.531,-0.5059,-0.4718,-0.4368,-0.3903,-0.3333,-0.3202,-0.3115,-0.2792,-0.2711,0.0,0.0,0.0,0.0,0.0,0.0,0.0,0.0,0.0,0.0,0.0,0.0,0.0,0.0,0.0,0.0,0.0,0.0,0.0,0.0,0.0,0.0,0.0,0.0,0.0,0.0,0.0,0.0,0.0,0.0,0.0,0.0,0.0,0.0,0.0,0.0,0.0,0.0,0.0,0.0,0.0,0.0,0.0,0.0,0.0,0.0,0.0,0.0,0.0,0.0,0.0,0.0,0.0,0.0,0.0,0.0,0.0,0.0,0.0,-0.9564,-0.9053,0.0,0.0,0.0,0.0,0.0,0.0,0.0,0.0,0.0,0.0,0.0,0.0,0.0,0.0,0.0,0.0,0.0,0.0,0.0,0.0,0.0,0.0,0.0,0.0,0.0,0.0,0.0,0.0,0.0,0.0,0.0,0.0,0.0,0.0,0.0,0.0,0.0,0.0,0.0,0.0,-0.6037,-0.5619,-0.5154,-0.4724,-0.4184,-0.3722,-0.3234,-0.3109,-0.3053,-0.2961,-0.2846,0.0,0.0,0.0,0.0,0.0,0.0,0.0,0.0,0.0,0.0,0.0,0.0,0.0,0.0,0.0,0.0,0.0,0.0,0.0,0.0,0.0,0.0,0.0,0.0,0.0,0.0,0.0,0.0,0.0,0.0,0.0,0.0,0.0,0.0,0.0,0.0,0.0,0.0,0.0,0.0,0.0,0.0,0.0,0.0,0.0,0.0,0.0,0.0,0.0,0.0,0.0,0.0,0.0,-1.1132,-1.1303,-1.1643,-1.1471,-1.1389,-1.1341,-1.0472,-1.0048,-1.0054,-0.9796,0.0,0.0,0.0,0.0,0.0,0.0,0.0,0.0,0.0,0.0,0.0,0.0,0.0,0.0,0.0,0.0,0.0,0.0,0.0,0.0,0.0,0.0,-0.6369,-0.6225,-0.6388,-0.6488,-0.6222,0.0,0.0,0.0,0.0,0.0,0.0,0.0,0.0,0.0,0.0,0.0,-0.643,-0.5797,-0.5205,-0.4644,-0.4214,-0.365,-0.3247,-0.32,-0.3162,-0.314,-0.2954,-0.2804,0.0,0.0,0.0,0.0,0.0,0.0,0.0,0.0,0.0,0.0,0.0,0.0,0.0,0.0,0.0,0.0,0.0,0.0,0.0,0.0,0.0,0.0,0.0,0.0,0.0,0.0,0.0,0.0,0.0,0.0,0.0,0.0,-0.9821,-1.057,0.0,0.0,0.0,0.0,0.0,0.0,0.0,0.0,0.0,0.0,0.0,0.0,0.0,-1.0706,-1.09,-1.1178,-1.1467,-1.1769,-1.1999,-1.2246,-1.2499,-1.2493,-1.2493,-1.2487,-1.2349,0.0,-1.0936,-1.0677,0.0,0.0,0.0,0.0,0.0,0.0,0.0,0.0,0.0,0.0,0.0,0.0,0.0,0.0,0.0,0.0,0.0,0.0,0.0,0.0,0.0,0.0,-0.5445,-0.5507,-0.5627,-0.5689,-0.5621,-0.621,-0.6546,-0.61,-0.6236,-0.6317,0.0,0.0,0.0,0.0,0.0,0.0,-0.5686,-0.5167,-0.4662,-0.4205,-0.3716,-0.3413,-0.3309,-0.3301,-0.3252,-0.3146,-0.311,-0.2996,-0.2781,-0.2683,0.0,0.0,0.0,0.0,0.0,0.0,0.0,0.0,0.0,0.0,0.0,0.0,0.0,0.0,0.0,0.0,0.0,0.0,0.0,0.0,0.0,0.0,0.0,0.0,0.0,0.0,0.0,0.0,0.0,-1.0045,-0.9863,-1.0222,-0.99,-1.0058,0.0,0.0,0.0,0.0,0.0,0.0,0.0,0.0,0.0,-1.1465,-1.154,-1.1817,-1.224,-1.221,-1.2403,-1.2813,-1.2783,-1.291,-1.3163,-1.3163,-1.3242,-1.3369,-1.3224,-1.2982,-1.2638,-1.2071,-1.1587,-1.1126,0.0,0.0,0.0,0.0,-0.9703,-0.9479,-0.9326,-0.8702,-0.785,-0.7704,0.0,0.0,0.0,0.0,0.0,0.0,0.0,-0.6512,-0.6465,-0.6276,-0.6051,-0.583,-0.5812,-0.5852,-0.5852,-0.6125,-0.6304,-0.577,-0.6276,-0.6559,-0.609,-0.5993,0.0,0.0,0.0,-0.5659,-0.5558,-0.4867,-0.4341,-0.4203,-0.3686,-0.3372,-0.3372,-0.3372,-0.3335,-0.3247,-0.321,-0.3128,-0.2989,-0.2861,-0.27,0.0,0.0,0.0,0.0,0.0,0.0,0.0,0.0,0.0,0.0,0.0,0.0,0.0,0.0,0.0,0.0,0.0,0.0,0.0,0.0,0.0,0.0,0.0,0.0,0.0,0.0,0.0,0.0,-1.0073,-1.0038,-1.0112,-1.0021,-1.0309,0.0,0.0,0.0,0.0,0.0,0.0,-1.1684,-1.1835,-1.2059,-1.2324,-1.2584,-1.2916,-1.332,-1.3254,-1.3423,-1.3821,-1.3694,-1.3731,-1.3924,-1.3924,-1.4026,-1.4201,-1.4008,-1.4032,-1.4147,-1.3088,-1.2359,-1.1753,-1.1497,-1.1133,-1.0648,-1.048,-1.0317,-1.0075,-1.0075,-0.9137,-0.7944,-0.8118,-0.7268,-0.6242,-0.6665,0.0,0.0,0.0,0.0,-0.7032,-0.6765,-0.6741,-0.6679,-0.6335,-0.6268,-0.6268,-0.6268,-0.6341,-0.6219,-0.5798,-0.6274,-0.6545,-0.582,-0.5753,0.0,-0.5825,-0.5577,-0.5372,-0.5273,-0.4556,-0.4111,-0.4045,-0.3624,-0.3413,-0.3413,-0.3413,-0.3387,-0.3326,-0.3279,-0.3226,-0.3165,-0.3035,-0.2712,-0.2225,0.0,0.0,0.0,0.0,0.0,0.0,0.0,0.0,0.0,0.0,0.0,0.0,0.0,0.0,0.0,0.0,0.0,0.0,0.0,0.0,0.0,0.0,0.0,0.0,0.0,0.0,0.0,0.0,0.0,-1.0753,-1.0816,0.0,0.0,0.0,0.0,-1.1756,-1.1793,-1.2083,-1.2578,-1.2886,-1.3163,-1.3429,-1.3688,-1.3839,-1.387,-1.4364,-1.463,-1.466,-1.4896,-1.5016,-1.5028,-1.5028,-1.5034,-1.5046,-1.5034,-1.5034,-1.4962,-1.3339,-1.2638,-1.2535,-1.1619,-1.1247,-1.1242,-1.0784,-1.0605,-1.06,-1.06,-1.0053,-0.9221,-0.8474,-0.7263,-0.6145,-0.6142,-0.6142,0.0,0.0,-0.6327,-0.6382,-0.6521,-0.6581,-0.6613,-0.6736,-0.6766,-0.6766,-0.6766,-0.6878,-0.6819,-0.6377,-0.6323,-0.6203,-0.5703,0.0,-0.5673,-0.4963,-0.4854,-0.4757,-0.4243,-0.4084,-0.3896,-0.3505,-0.3413,-0.3413,-0.3413,-0.3413,-0.3387,-0.3326,-0.3319,-0.3289,-0.3229,-0.3217,-0.2518,-0.0983,-0.077,0.0,0.0,0.0,0.0,0.0,0.0,0.0,0.0,0.0,0.0,0.0,0.0,0.0,0.0,0.0,0.0,0.0,0.0,0.0,0.0,0.0,0.0,0.0,0.0,0.0,0.0,0.0,0.0,-1.1605,-1.1702,0.0,-1.2662,-1.2725,-1.2702,-1.2872,-1.2881,-1.3025,-1.3218,-1.364,-1.4008,-1.428,-1.4539,-1.46,-1.4431,-1.4618,-1.4714,-1.4714,-1.4811,-1.4944,-1.5107,-1.5107,-1.5197,-1.5348,-1.5179,-1.4999,-1.47,-1.3668,-1.3166,-1.3161,-1.2464,-1.1969,-1.1572,-1.1473,-1.1373,-1.1373,-1.1373,-1.0471,-0.9067,-0.7756,-0.6949,-0.6545,-0.6545,-0.6545,-0.6438,-0.6098,-0.6191,-0.6311,-0.5672,-0.5796,-0.5923,-0.5718,-0.5636,-0.5636,-0.5636,-0.5712,-0.5684,-0.5577,-0.5853,-0.5932,-0.5236,-0.5192,-0.5146,-0.4864,-0.4603,-0.4448,-0.4286,-0.3988,-0.3692,-0.3521,-0.3525,-0.3525,-0.3525,-0.3525,-0.3484,-0.3386,-0.3414,-0.3391,-0.3293,-0.3289,-0.2724,-0.1647,-0.0377,0.0814,0.0,0.0,0.0,0.0,0.0,0.0,0.0,0.0,0.0,0.0,0.0,0.0,0.0,0.0,0.0,0.0,0.0,0.0,0.0,0.0,0.0,0.0,0.0,0.0,0.0,-1.139,-1.1874,-1.2318,-1.2488,-1.2751,-1.3374,-1.3496,-1.3603,-1.3773,-1.3853,-1.396,-1.4051,-1.4298,-1.4564,-1.4841,-1.5016,-1.5065,-1.498,-1.5071,-1.5113,-1.5113,-1.5113,-1.5203,-1.5372,-1.5463,-1.5602,-1.5759,-1.568,-1.5423,-1.4922,-1.4226,-1.38,-1.3493,-1.263,-1.2127,-1.1817,-1.1817,-1.1817,-1.1714,-1.1507,-1.046,-0.91,-0.7638,-0.7009,-0.6801,-0.6801,-0.6801,-0.6687,-0.6123,-0.6113,-0.6235,-0.5348,-0.5365,-0.5605,-0.5265,-0.5178,-0.5178,-0.5178,-0.5045,-0.4933,-0.4991,-0.5348,-0.5494,-0.4802,-0.4704,-0.4628,-0.4498,-0.4189,-0.4,-0.4071,-0.3749,-0.3536,-0.3555,-0.3556,-0.3556,-0.3556,-0.3575,-0.3545,-0.3447,-0.3495,-0.3474,-0.3357,-0.3371,-0.2819,-0.1629,0.0399,0.1824,0.2623,0.0,0.0,0.0,0.0,0.0,0.0,0.0,0.0,0.0,0.0,0.0,0.0,0.0,0.0,0.0,0.0,0.0,0.0,0.0,0.0,0.0,0.0,0.0,-1.1452,-1.193,-1.2394,-1.2923,-1.3069,-1.326,-1.3513,-1.3785,-1.4045,-1.428,-1.4564,-1.4835,-1.5083,-1.4871,-1.4859,-1.5125,-1.5131,-1.5252,-1.5511,-1.5771,-1.5903,-1.5903,-1.591,-1.5916,-1.5922,-1.6181,-1.6296,-1.6308,-1.6585,-1.6239,-1.5654,-1.5106,-1.4409,-1.3472,-1.2298,-1.1841,-1.1836,-1.1836,-1.1836,-1.1733,-1.0911,-1.0072,-0.9231,-0.8391,-0.7554,-0.6929,-0.6931,-0.6825,-0.6741,-0.6204,-0.6124,-0.606,-0.5577,-0.5506,-0.5531,-0.5506,-0.5528,-0.5528,-0.5528,-0.4995,-0.4596,-0.4596,-0.4927,-0.5062,-0.458,-0.4479,-0.4281,-0.3783,-0.3578,0.0,-0.3585,-0.3493,-0.3444,-0.3499,-0.3504,-0.3504,-0.3504,-0.3559,-0.3567,-0.3503,-0.3556,-0.3538,-0.342,-0.3467,-0.258,-0.083,0.173,0.3532,0.4453,0.0,0.0,0.0,0.0,0.0,0.0,0.0,0.0,0.0,0.0,0.0,0.0,0.0,0.0,0.0,0.0,0.0,0.0,0.0,0.0,0.0,-1.2047,-1.2373,-1.2109,-1.2535,-1.3003,-1.3343,-1.3694,-1.4002,-1.4075,-1.4503,-1.4642,-1.4322,-1.4733,-1.495,-1.4829,-1.5119,-1.5403,-1.5662,-1.5674,-1.571,-1.5783,-1.6042,-1.6175,-1.6175,-1.638,-1.6477,-1.6483,-1.6549,-1.6585,-1.6585,-1.6204,-1.5665,-1.5106,-1.4432,-1.3828,-1.3173,-1.274,-1.2408,-1.2266,-1.2266,-1.2266,-1.2178,-1.1455,-1.1059,-1.0745,-0.9976,-0.9567,-0.9233,-0.8562,-0.8448,-0.7981,-0.6235,-0.5998,-0.6012,-0.4582,-0.4478,-0.4726,-0.4339,-0.4239,-0.4239,-0.4239,-0.4106,-0.3978,-0.3978,-0.4064,-0.413,-0.3936,-0.381,-0.3833,-0.3669,-0.365,-0.365,-0.3711,-0.3691,-0.3677,-0.3692,-0.3695,-0.3695,-0.3695,-0.371,-0.3674,-0.357,-0.362,-0.36,-0.3478,-0.2505,-0.0648,0.1899,0.3215,0.4186,0.0,0.0,0.0,0.0,0.0,0.0,0.0,0.0,0.0,0.0,0.0,0.0,0.0,0.0,0.0,0.0,0.0,0.0,0.0,0.0,0.0,0.0,-1.2789,-1.3194,-1.3151,-1.3417,-1.367,-1.3827,-1.431,-1.4636,-1.4636,-1.5022,-1.5143,-1.4823,-1.5191,-1.5366,-1.5215,-1.5493,-1.5783,-1.6048,-1.6054,-1.6109,-1.6229,-1.638,-1.6453,-1.6459,-1.6622,-1.67,-1.6706,-1.6815,-1.675,-1.6415,-1.6166,-1.5517,-1.4714,-1.4366,-1.3852,-1.3183,0.0,0.0,0.0,0.0,-1.2701,-1.2608,-1.2271,-1.1629,-1.085,-1.0494,-0.9831,-0.9136,-0.8558,-0.8209,-0.761,-0.604,-0.5681,-0.5342,-0.4097,-0.3988,-0.4239,-0.3949,-0.3845,-0.3852,-0.3875,-0.3862,-0.3852,-0.3876,-0.3861,0.0,-0.3752,-0.3698,-0.3684,-0.3745,-0.3733,-0.3739,-0.38,-0.3785,-0.377,-0.377,-0.377,-0.377,-0.377,-0.3792,0.0,0.0,0.0,-0.3699,-0.3353,-0.176,0.0,0.0,0.0,0.4222,0.5028,0.499,0.0,0.0,0.4547,0.4538,0.0,0.0,0.0,0.0,0.0,0.0,0.0,0.0,0.0,0.0,0.0,0.0,0.0,0.0,0.0,0.0,-1.3459,-1.4008,-1.4304,-1.4395,-1.4419,-1.4389,-1.4841,-1.5155,-1.5155,-1.539,-1.5547,-1.5547,-1.5789,-1.5934,-1.5934,-1.5964,0.0,0.0,0.0,-1.6459,-1.6742,-1.6748,-1.6761,-1.6791,-1.6791,-1.6791,-1.6797,-1.7032,-1.6801,-1.6147,-1.6362,-1.5758,-1.4705,-1.4585,-1.4123,-1.3466,-1.3178,-1.3065,-1.3065,-1.3065,-1.3065,-1.3069,-1.3093,0.0,0.0,-1.0581,-0.9425,-0.8028,-0.7808,-0.734,-0.6634,-0.5937,-0.523,-0.4773,-0.4118,-0.389,-0.3903,-0.3958,-0.397,-0.3984,-0.4034,-0.4006,-0.3985,-0.4036,-0.4004,-0.397,-0.397,-0.3869,-0.3808,-0.3862,-0.3824,-0.3809,-0.3864,-0.3823,-0.3789,-0.3789,-0.3789,0.0,-0.3789,-0.3839,-0.3843,-0.3783,-0.3823,-0.3563,-0.2883,-0.1116,0.0329,0.1426,0.2847,0.4127,0.5139,0.5057,0.5018,0.5014,0.4902,0.4894,0.0,0.0,0.0,0.0,0.0,0.0,0.0,0.0,0.0,0.0,0.0,0.0,0.0,0.0,0.0,-1.3839,-1.3942,-1.4081,-1.457,-1.5004,-1.5185,-1.4974,-1.5234,-1.5421,-1.5421,-1.5662,-1.5813,-1.5813,-1.6072,-1.6217,-1.6205,-1.6416,-1.6567,-1.6616,-1.6622,-1.6748,-1.7014,-1.7014,-1.7123,-1.7334,-1.7334,0.0,-1.7334,-1.7382,-1.7162,-1.664,-1.6211,-1.5735,-1.517,-1.4557,-1.429,-1.4062,-1.3343,-1.3065,-1.3065,-1.3065,-1.3065,-1.3093,-1.3268,-1.3091,-1.2646,-1.2082,-1.165,-1.1071,-0.9503,-0.9048,0.0,-0.6556,-0.595,-0.5575,-0.4325,-0.4075,-0.4078,-0.4089,-0.4091,-0.4094,-0.4105,-0.41,-0.4094,-0.4106,-0.41,-0.4091,-0.4091,-0.3995,-0.392,-0.3931,-0.3924,-0.392,-0.3932,-0.3922,-0.3916,-0.3916,-0.3916,-0.3916,-0.3916,-0.3927,-0.3907,-0.3846,-0.3569,-0.2712,-0.1054,0.0229,0.159,0.3068,0.4375,0.5123,0.5328,0.531,0.5302,0.5296,0.5057,0.4955,0.0,0.0,0.0,0.0,0.0,0.0,0.0,0.0,0.0,0.0,0.0,-1.2602,-1.2868,0.0,-1.3676,-1.4208,-1.4304,-1.4497,-1.5034,-1.5221,-1.5252,-1.5125,-1.5457,-1.5747,-1.5879,-1.6006,-1.6145,-1.6284,-1.6423,-1.6501,-1.6489,-1.6748,-1.6893,-1.6893,-1.7026,-1.7153,-1.7286,-1.7418,-1.7545,-1.7678,-1.7823,-1.7889,-1.7889,-1.7889,-1.7467,-1.6475,-1.6235,-1.5566,-1.4808,-1.4433,-1.4312,-1.427,-1.3854,-1.3688,-1.3688,-1.3688,-1.3688,-1.3703,-1.3811,-1.3485,-1.313,-1.2733,-1.1896,-1.0798,-0.9876,-0.8764,-0.764,-0.6549,-0.5666,-0.5024,-0.4254,-0.4125,-0.4125,-0.4125,-0.4125,-0.4134,-0.4165,-0.4147,-0.4135,-0.4165,-0.4146,-0.4125,-0.4125,-0.4078,-0.4038,-0.4038,-0.4012,-0.3993,-0.3993,-0.3969,-0.3951,-0.3951,-0.3951,-0.3951,-0.3951,-0.3951,-0.3815,-0.3662,-0.3366,-0.262,-0.1547,0.0469,0.1974,0.2671,0.4496,0.5512,0.5512,0.5467,0.5445,0.5441,0.5304,0.5218,0.0,0.0,0.0,0.0,0.0,0.0,0.0,-1.1805,-1.2216,-1.2427,-1.2898,-1.3338,-1.355,-1.3978,-1.4334,-1.4437,-1.4642,-1.4944,-1.536,-1.533,-1.5264,-1.5264,-1.568,-1.6048,-1.626,-1.6332,-1.6477,-1.6754,-1.6779,-1.6797,-1.6851,-1.705,-1.7189,-1.7243,-1.7449,-1.7581,-1.7636,-1.7853,-1.7956,-1.7956,-1.8185,-1.8294,-1.8294,-1.8294,-1.7572,-1.6366,-1.6159,-1.5428,-1.4435,-1.4435,-1.4435,-1.4435,-1.4435,-1.4435,-1.4421,-1.434,-1.4312,-1.4312,-1.4312,-1.3806,-1.3174,-1.2922,-1.1783,-1.027,-0.9918,-0.8517,-0.6852,-0.6358,-0.5456,-0.442,-0.4161,-0.4161,-0.4161,-0.4161,-0.4161,-0.4174,-0.4224,-0.4195,-0.4176,-0.4225,-0.4195,-0.4161,-0.4161,-0.4161,-0.4153,-0.413,-0.4083,-0.4052,-0.4052,-0.4003,-0.3966,-0.3966,-0.3956,-0.3828,-0.3826,-0.3826,-0.3703,-0.3332,-0.3048,-0.2664,-0.2301,0.0358,0.1896,0.1891,0.4369,0.5661,0.5643,0.5569,0.5533,0.5533,0.5533,0.5488,-1.0912,-1.0864,-1.1027,-1.16,-1.1763,-1.1914,0.0,-1.2765,-1.2994,-1.3025,-1.3453,-1.3827,-1.3857,-1.4099,-1.4455,-1.4938,-1.504,-1.5083,-1.5143,-1.5529,-1.5801,-1.5801,-1.606,-1.6247,-1.6278,-1.6507,-1.6761,-1.7026,-1.705,-1.7153,-1.7382,-1.7424,-1.7545,-1.7781,-1.7817,-1.795,-1.8197,-1.8233,-1.8245,-1.8251,-1.8275,-1.8294,-1.8294,-1.8294,-1.7671,-1.6498,-1.5555,-1.499,-1.4865,-1.4865,-1.4865,-1.4865,-1.4865,-1.4865,-1.4818,-1.4449,-1.4312,-1.4312,-1.4312,-1.4182,-1.4057,-1.3174,-1.2796,-1.2194,-1.0555,-0.9818,-0.9193,-0.6929,-0.6289,-0.5889,-0.4554,-0.4288,-0.4288,-0.4288,-0.4288,-0.4289,-0.4296,-0.4292,-0.4289,-0.4296,-0.4292,-0.4288,-0.4288,-0.4288,-0.4249,-0.4142,-0.412,-0.4115,-0.4115,-0.4063,-0.4026,-0.4026,-0.3981,-0.3826,-0.358,-0.3579,-0.3332,-0.259,-0.2586,-0.2338,-0.2094,0.0491,0.1947,0.18,0.444,0.5725,0.5643,0.5633,0.5629,0.5629,0.5629,0.558,-1.1757,-1.1926,-1.2131,-1.2524,-1.2741,-1.291,-1.3127,-1.3266,-1.3393,-1.355,-1.3876,-1.4183,-1.4346,-1.4594,-1.4896,-1.5276,-1.5209,-1.5215,-1.5517,-1.5753,-1.5946,-1.6097,-1.6495,-1.6754,-1.6754,-1.6857,-1.7038,-1.7298,-1.7322,-1.7436,-1.7696,-1.7708,-1.7835,-1.8106,-1.8118,-1.8173,-1.8294,-1.8444,-1.8523,-1.8523,-1.8674,-1.8752,-1.8746,-1.8362,-1.7401,-1.6224,-1.5284,-1.4931,-1.4931,-1.4931,-1.4931,-1.4931,-1.4931,-1.4931,-1.4912,-1.4737,-1.4671,-1.4671,-1.4671,-1.4671,-1.4543,-1.4153,-1.3633,-1.3001,-1.2165,-1.0474,-0.864,-0.7629,-0.6311,-0.4978,-0.4442,-0.4308,-0.4308,-0.4308,-0.4308,-0.4308,-0.4308,-0.4308,-0.4308,-0.4308,-0.4308,-0.4308,-0.4308,-0.4308,-0.429,-0.4239,-0.4202,-0.4179,-0.4179,-0.4125,-0.4074,-0.4038,-0.3984,-0.3828,-0.3703,-0.358,-0.3332,-0.2837,-0.259,-0.2345,-0.1977,0.0616,0.1964,0.1951,0.4514,0.5841,0.5802,0.5802,0.5802,0.5802,0.5802,0.5782,-1.2542,-1.2783,-1.2976,-1.3181,-1.3375,-1.3513,-1.3513,-1.3568,-1.3676,-1.387,-1.4177,-1.4473,-1.4678,-1.4992,-1.5252,-1.5372,-1.5354,-1.5433,-1.5741,-1.5903,-1.6097,-1.6362,-1.6809,-1.7123,-1.7195,-1.7201,-1.728,-1.7473,-1.7551,-1.7678,-1.7865,-1.795,-1.8118,-1.839,-1.8402,-1.8438,-1.8511,-1.8698,-1.8794,-1.8794,-1.8982,-1.9078,-1.9078,-1.8168,-1.713,-1.5974,-1.5192,-1.4931,-1.4931,-1.4931,-1.4931,-1.4931,-1.4931,-1.4931,-1.4931,-1.4931,-1.4931,-1.4931,-1.4931,-1.4931,-1.4931,-1.4931,-1.4403,-1.3608,-1.3346,-1.1351,-0.9226,-0.8565,-0.684,-0.5109,-0.4975,-0.4575,-0.4308,-0.4308,-0.4308,-0.4308,-0.4308,-0.4308,-0.4308,-0.4308,-0.4308,-0.4308,-0.4308,-0.4308,-0.4308,-0.4308,-0.427,-0.4241,-0.4241,-0.4188,-0.412,-0.4042,-0.3999,-0.3844,-0.3704,-0.3455,-0.3209,-0.2716,-0.2468,-0.2222,-0.1977,0.0246,0.1601,0.1969,0.4186,0.5544,0.5916,0.5916,0.5916,0.5916,0.5916,0.5916,-1.3471,-1.3483,-1.3495,-1.3501,-1.3507,-1.3513,-1.3513,-1.3713,-1.3894,-1.3906,-1.4328,-1.4708,-1.4714,-1.5143,-1.5409,-1.5161,-1.5541,-1.5783,-1.5547,-1.5946,-1.6374,-1.6658,-1.6923,-1.7195,-1.7449,-1.7473,-1.7473,-1.7485,-1.7714,-1.7865,-1.7871,-1.8131,-1.8402,-1.8668,-1.8674,-1.8794,-1.9048,-1.906,-1.906,-1.906,-1.9072,-1.9078,-1.9072,-1.7653,-1.6613,-1.5974,-1.5192,-1.4931,-1.4931,-1.4931,-1.4931,-1.4931,-1.4931,-1.4931,-1.4931,-1.4931,-1.4931,-1.4931,-1.4931,-1.4931,-1.4931,-1.4931,-1.4931,-1.4539,-1.3214,-1.2684,-1.2285,-1.017,-0.8579,-0.7247,-0.6577,-0.5376,-0.4308,-0.4308,-0.4308,-0.4308,-0.4308,-0.4308,-0.4308,-0.4308,-0.4308,-0.4308,-0.4308,-0.4308,-0.4308,-0.4308,-0.4307,-0.4305,-0.4305,-0.4252,-0.4168,-0.4048,-0.4033,-0.3759,-0.3089,-0.2961,-0.2716,-0.2099,-0.1977,-0.1977,-0.1977,-0.0617,0.0616,0.1969,0.3322,0.4555,0.5916,0.5916,0.5916,0.5916,0.5916,0.5916,-1.3984,-1.3906,-1.3773,-1.3773,-1.3773,-1.3773,-1.3773,-1.3978,-1.422,-1.4407,-1.4588,-1.4823,-1.5173,-1.524,-1.5324,-1.5584,-1.5626,-1.5722,-1.5982,-1.6332,-1.6658,-1.693,-1.7195,-1.7382,-1.7473,-1.7485,-1.7551,-1.7732,-1.7823,-1.8034,-1.839,-1.8505,-1.8674,-1.8933,-1.8945,-1.8988,-1.9078,-1.9078,-1.9078,-1.9078,-1.9078,-1.8559,-1.7653,-1.7265,-1.6359,-1.5323,-1.5062,-1.4931,-1.4931,-1.4931,-1.4931,-1.4931,-1.4931,-1.4931,-1.4931,-1.4931,-1.4931,-1.4931,-1.4931,-1.4931,-1.4931,-1.4931,-1.4931,-1.48,-1.4403,-1.3206,-1.201,-1.1219,-0.8967,-0.6711,-0.6441,-0.5376,-0.4308,-0.4308,-0.4308,-0.4308,-0.4308,-0.4308,-0.4308,-0.4308,-0.4308,-0.4308,-0.4308,-0.4308,-0.4308,-0.4308,-0.4308,-0.4308,-0.4308,-0.4255,-0.4202,-0.4159,-0.4119,-0.3817,-0.3386,-0.3131,-0.2869,-0.2346,-0.2099,-0.1977,-0.1977,-0.074,0.0616,0.1969,0.3199,0.4555,0.5916,0.5916,0.5916,0.5916,0.5916,0.5916,-1.4111,-1.4099,-1.402,-1.393,-1.3906,-1.393,-1.402,-1.4177,-1.4401,-1.4781,-1.4932,-1.5071,-1.5312,-1.5372,-1.5439,-1.559,-1.5704,-1.5897,-1.6229,-1.6604,-1.6905,-1.7074,-1.7322,-1.7485,-1.7485,-1.7569,-1.769,-1.7859,-1.8052,-1.8318,-1.8668,-1.877,-1.8903,-1.9066,-1.9078,-1.9078,-1.9078,-1.9078,-1.9078,-1.9078,-1.8816,-1.8168,-1.7001,-1.6742,-1.5969,-1.4931,-1.4931,-1.4931,-1.4931,-1.4931,-1.4931,-1.4931,-1.4931,-1.4931,-1.4931,-1.4931,-1.4931,-1.4931,-1.4931,-1.4931,-1.4931,-1.4931,-1.4931,-1.48,-1.467,-1.3604,-1.2541,-1.2281,-1.0161,-0.7907,-0.7907,-0.6443,-0.5109,-0.5109,-0.4708,-0.4308,-0.4308,-0.4308,-0.4308,-0.4308,-0.4308,-0.4308,-0.4308,-0.4308,-0.4308,-0.4308,-0.4308,-0.4308,-0.4308,-0.4273,-0.4241,-0.4218,-0.4051,-0.3747,-0.344,-0.3053,-0.2787,-0.2383,-0.2133,-0.2007,-0.2007,-0.1254,-0.0125,0.1252,0.2002,0.3378,0.5258,0.5258,0.5509,0.601,0.601,0.601,-1.3924,-1.4087,-1.4201,-1.3966,-1.3906,-1.3972,-1.4238,-1.4322,-1.4491,-1.5022,-1.5324,-1.5427,-1.5191,-1.5529,-1.5692,-1.5228,-1.5765,-1.6254,-1.6296,-1.6748,-1.708,-1.7111,-1.7334,-1.7485,-1.7485,-1.7732,-1.7895,-1.7895,-1.8384,-1.8692,-1.8704,-1.8939,-1.9078,-1.9078,-1.9078,-1.9078,-1.9078,-1.9078,-1.9078,-1.9072,-1.8296,-1.7647,-1.7007,-1.6359,-1.5583,-1.4931,-1.4931,-1.4931,-1.4931,-1.4931,-1.4931,-1.4931,-1.4931,-1.4941,-1.495,-1.495,-1.4955,-1.4964,-1.4964,-1.495,-1.4931,-1.4931,-1.4941,-1.4819,-1.4155,-1.3897,-1.3774,-1.3124,-1.1791,-1.0727,-1.0727,-0.8587,-0.6449,-0.6449,-0.5379,-0.4441,-0.4308,-0.4308,-0.4308,-0.4308,-0.4308,-0.4308,-0.4308,-0.4308,-0.4308,-0.4308,-0.4308,-0.4308,-0.4308,-0.4308,-0.4285,-0.4228,-0.3956,-0.354,-0.3104,-0.2842,-0.2453,-0.2064,-0.2064,-0.2064,-0.2064,-0.2064,-0.1419,-0.0129,-0.0129,0.1159,0.3862,0.3862,0.4634,0.6052,0.6052,0.618,-1.4141,-1.396,-1.3749,-1.3876,-1.3906,-1.3972,-1.4238,-1.4612,-1.4992,-1.533,-1.5451,-1.5535,-1.5668,-1.5481,-1.539,-1.565,-1.5692,-1.591,-1.6507,-1.6712,-1.6948,-1.7334,-1.7443,-1.7485,-1.7485,-1.7913,-1.8185,-1.8185,-1.8499,-1.877,-1.8963,-1.9042,-1.9078,-1.9078,-1.9078,-1.9078,-1.9078,-1.9078,-1.9078,-1.9072,-1.8296,-1.7647,-1.7007,-1.6359,-1.5583,-1.4931,-1.4931,-1.4931,-1.4931,-1.4931,-1.4931,-1.4931,-1.4931,-1.5026,-1.5153,-1.5153,-1.5262,-1.5399,-1.5399,-1.5196,-1.4931,-1.4931,-1.5035,-1.5153,-1.4888,-1.4593,-1.4305,-1.4175,-1.2671,-1.1033,-1.1033,-0.9585,-0.789,-0.6808,-0.6221,-0.5644,-0.4575,-0.4308,-0.4308,-0.4308,-0.4308,-0.4308,-0.4308,-0.4308,-0.4308,-0.4308,-0.4308,-0.4308,-0.4308,-0.4308,-0.4301,-0.4286,-0.4016,-0.3594,-0.3152,-0.2885,-0.248,-0.2065,-0.2064,-0.2064,-0.2064,-0.2064,-0.1419,-0.0129,-0.0129,0.0773,0.2446,0.2446,0.3218,0.4504,0.4504,0.5149,-1.3912,-1.3827,-1.3694,-1.3725,-1.3821,-1.3972,-1.4238,-1.4443,-1.4654,-1.492,-1.5071,-1.5161,-1.5185,-1.524,-1.5342,-1.5517,-1.5716,-1.6,-1.6453,-1.6718,-1.6984,-1.728,-1.7412,-1.7485,-1.7485,-1.7974,-1.8294,-1.8294,-1.8644,-1.8921,-1.9066,-1.9078,-1.9078,-1.9078,-1.9078,-1.9078,-1.9078,-1.9078,-1.9078,-1.9072,-1.8039,-1.7389,-1.7007,-1.5969,-1.5323,-1.4931,-1.4931,-1.4983,-1.5063,-1.5063,-1.512,-1.521,-1.521,-1.5276,-1.5375,-1.5375,-1.5456,-1.556,-1.556,-1.5404,-1.521,-1.521,-1.5285,-1.5375,-1.5106,-1.4774,-1.4455,-1.4323,-1.3223,-1.212,-1.212,-1.0528,-0.8686,-0.7864,-0.6566,-0.5291,-0.4482,-0.4326,-0.4308,-0.4308,-0.4308,-0.4308,-0.4308,-0.4308,-0.4308,-0.4308,-0.4308,-0.4308,-0.4308,-0.4308,-0.4308,-0.4308,-0.4038,-0.3622,-0.3195,-0.2794,-0.252,-0.2105,-0.2104,-0.2104,-0.2104,-0.2104,-0.1841,-0.1052,-0.1052,-0.0394,0.105,0.105,0.1836,0.3146,0.3146,0.3671,-1.3556,-1.3682,-1.3755,-1.3562,-1.3682,-1.393,-1.4226,-1.4123,-1.4045,-1.434,-1.46,-1.4684,-1.4401,-1.4926,-1.5318,-1.5089,-1.5656,-1.6151,-1.6217,-1.6694,-1.705,-1.7086,-1.7322,-1.7485,-1.7485,-1.7974,-1.8294,-1.8294,-1.8776,-1.9078,-1.9078,-1.9078,-1.9078,-1.9078,-1.9078,-1.9078,-1.9078,-1.9078,-1.9072,-1.8944,-1.7653,-1.7001,-1.6872,-1.5448,-1.4945,-1.4974,-1.4974,-1.5087,-1.5276,-1.5276,-1.5389,-1.556,-1.556,-1.5578,-1.5602,-1.5602,-1.5616,-1.5645,-1.5645,-1.5645,-1.5635,-1.5578,-1.5578,-1.5597,-1.5183,-1.4791,-1.4534,-1.413,-1.3717,-1.3441,-1.3441,-1.1327,-0.9226,-0.8948,-0.6796,-0.4681,-0.4401,-0.435,-0.4308,-0.4308,-0.4308,-0.4308,-0.4308,-0.4308,-0.4308,-0.4308,-0.4308,-0.4308,-0.4308,-0.4308,-0.4308,-0.4308,-0.4038,-0.3632,-0.3228,-0.2827,-0.2559,-0.2155,-0.2155,-0.2155,-0.2155,-0.2155,-0.2155,-0.2155,-0.2155,-0.1615,-0.0269,-0.0269,0.0403,0.1879,0.1879,0.1879,-1.3779,-1.3556,-1.3302,-1.3471,-1.355,-1.3707,-1.4183,-1.4262,-1.437,-1.4865,-1.501,-1.4956,-1.469,-1.4757,-1.4835,-1.4793,-1.5083,-1.5463,-1.5897,-1.6423,-1.6845,-1.7062,-1.7322,-1.7485,-1.7485,-1.7974,-1.8294,-1.8294,-1.8776,-1.9078,-1.9078,-1.9078,-1.9078,-1.9078,-1.9078,-1.9078,-1.9078,-1.9078,-1.8816,-1.8168,-1.7389,-1.6748,-1.6099,-1.5323,-1.5021,-1.5182,-1.5182,-1.5304,-1.5503,-1.5503,-1.5526,-1.556,-1.556,-1.5663,-1.5805,-1.5805,-1.5923,-1.6075,-1.6075,-1.6075,-1.6018,-1.5673,-1.5673,-1.5805,-1.5399,-1.5099,-1.4806,-1.4523,-1.4094,-1.3811,-1.3811,-1.2418,-1.0626,-0.9358,-0.7587,-0.5837,-0.4682,-0.435,-0.4308,-0.4308,-0.4308,-0.4308,-0.4308,-0.4308,-0.4308,-0.4308,-0.4308,-0.4308,-0.4308,-0.4308,-0.4308,-0.4308,-0.4038,-0.3632,-0.3228,-0.2827,-0.2559,-0.2155,-0.2155,-0.2155,-0.2155,-0.2155,-0.2155,-0.2155,-0.2155,-0.2019,-0.1884,-0.1884,-0.1076,0.0403,0.0403,0.094,-1.3876,-1.3725,-1.3562,-1.3688,-1.3719,-1.3785,-1.4039,-1.3882,-1.3761,-1.402,-1.4075,-1.4039,-1.3912,-1.4111,-1.434,-1.4479,-1.4841,-1.5246,-1.5632,-1.6272,-1.6748,-1.6875,-1.7243,-1.7485,-1.7485,-1.7974,-1.8294,-1.8294,-1.8776,-1.9078,-1.9078,-1.9078,-1.9078,-1.9078,-1.9078,-1.9078,-1.9078,-1.9078,-1.8688,-1.8033,-1.726,-1.6618,-1.5974,-1.5303,-1.5144,-1.5238,-1.5352,-1.5522,-1.5715,-1.5715,-1.5782,-1.5886,-1.5886,-1.5942,-1.6027,-1.6027,-1.6093,-1.6183,-1.6183,-1.6183,-1.615,-1.5947,-1.5947,-1.6027,-1.5606,-1.5256,-1.4906,-1.4621,-1.4189,-1.39,-1.39,-1.2686,-1.1054,-0.9629,-0.7409,-0.5344,-0.4555,-0.4375,-0.4345,-0.4313,-0.4308,-0.4308,-0.4308,-0.4308,-0.4308,-0.4308,-0.4308,-0.4308,-0.4308,-0.4308,-0.4308,-0.4308,-0.4172,-0.3768,-0.3228,-0.3095,-0.2692,-0.2289,-0.2155,-0.2155,-0.2155,-0.2155,-0.2155,-0.2155,-0.2155,-0.2155,-0.2155,-0.2155,-0.1884,-0.1211,-0.1211,-0.0807,-1.3888,-1.3863,-1.3821,-1.3821,-1.3821,-1.3821,-1.3821,-1.3501,-1.3212,-1.3212,-1.3212,-1.3188,-1.3133,-1.3507,-1.3888,-1.4093,-1.4636,-1.5113,-1.5378,-1.6157,-1.67,-1.67,-1.7165,-1.7485,-1.7485,-1.7974,-1.8294,-1.8294,-1.8776,-1.9078,-1.9078,-1.9078,-1.9078,-1.9078,-1.9078,-1.9078,-1.9078,-1.8944,-1.8553,-1.7776,-1.7136,-1.6514,-1.5783,-1.5423,-1.5281,-1.5375,-1.555,-1.5739,-1.5928,-1.5928,-1.6027,-1.6183,-1.6183,-1.6183,-1.6183,-1.6183,-1.6183,-1.6183,-1.6183,-1.6183,-1.6183,-1.6183,-1.6183,-1.6178,-1.5749,-1.5328,-1.4906,-1.4621,-1.4189,-1.39,-1.39,-1.2742,-1.1155,-0.9288,-0.6909,-0.4969,-0.4577,-0.4407,-0.438,-0.4319,-0.4308,-0.4308,-0.4308,-0.4308,-0.4308,-0.4308,-0.4308,-0.4308,-0.4308,-0.4308,-0.4308,-0.4308,-0.4308,-0.4038,-0.3363,-0.3228,-0.296,-0.2289,-0.2289,-0.2155,-0.2155,-0.2155,-0.2155,-0.2155,-0.2155,-0.2155,-0.2155,-0.2155,-0.2155,-0.2155,-0.2155,-0.2155,-1.3839,-1.3731,-1.355,-1.355,-1.355,-1.355,-1.355,-1.3513,-1.3477,-1.3477,-1.3477,-1.3405,-1.3163,-1.3357,-1.3556,-1.3586,-1.4244,-1.4841,-1.5107,-1.6042,-1.67,-1.67,-1.7165,-1.7485,-1.7485,-1.7974,-1.8294,-1.8294,-1.8776,-1.9078,-1.9078,-1.9078,-1.9078,-1.9078,-1.9078,-1.9078,-1.9078,-1.8425,-1.7776,-1.713,-1.6359,-1.5813,-1.5205,-1.5224,-1.5441,-1.58,-1.5824,-1.5956,-1.6155,-1.6155,-1.6164,-1.6183,-1.6183,-1.6183,-1.6183,-1.6183,-1.6183,-1.6183,-1.6183,-1.6183,-1.6183,-1.6183,-1.6183,-1.6178,-1.5749,-1.5328,-1.4906,-1.4621,-1.4189,-1.39,-1.39,-1.2742,-1.0865,-0.7844,-0.6909,-0.6251,-0.4768,-0.4435,-0.438,-0.4319,-0.4308,-0.4308,-0.4308,-0.4308,-0.4308,-0.4308,-0.4308,-0.4308,-0.4308,-0.4308,-0.4308,-0.4308,-0.4308,-0.4172,-0.3768,-0.3363,-0.3095,-0.2694,-0.2424,-0.2155,-0.2155,-0.2155,-0.2155,-0.2155,-0.2155,-0.2155,-0.2155,-0.2155,-0.2155,-0.2155,-0.2155,-0.2155,-1.3682,-1.3592,-1.3513,-1.3513,-1.3513,-1.3513,-1.3513,-1.3393,-1.3278,-1.3278,-1.3145,-1.2994,-1.2892,-1.2958,-1.3133,-1.3465,-1.4051,-1.4612,-1.5046,-1.603,-1.67,-1.67,-1.7165,-1.7485,-1.7485,-1.7974,-1.8426,-1.874,-1.8957,-1.9078,-1.9078,-1.9078,-1.9078,-1.9078,-1.9078,-1.8944,-1.8425,-1.8168,-1.7518,-1.6364,-1.6242,-1.582,-1.5238,-1.5493,-1.5701,-1.5867,-1.5994,-1.6103,-1.6183,-1.6183,-1.6183,-1.6183,-1.6183,-1.6183,-1.6183,-1.6183,-1.6183,-1.6183,-1.6183,-1.6183,-1.6183,-1.6183,-1.6183,-1.6042,-1.547,-1.519,-1.4906,-1.4332,-1.4047,-1.39,-1.39,-1.2742,-1.1299,-1.0003,-0.9106,-0.8186,-0.7513,-0.7274,-0.7039,-0.7077,-0.6211,-0.551,-0.551,-0.4842,-0.4308,-0.4308,-0.4308,-0.4308,-0.4308,-0.4308,-0.4308,-0.4308,-0.4308,-0.4038,-0.3498,-0.3228,-0.296,-0.2424,-0.2289,-0.2155,-0.2155,-0.2155,-0.2155,-0.2155,-0.2155,-0.2155,-0.2155,-0.2155,-0.2155,-0.2155,-0.2155,-0.2155,-1.3544,-1.3513,-1.3513,-1.3513,-1.3513,-1.3471,-1.3308,-1.3133,-1.2958,-1.2801,-1.2674,-1.259,-1.259,-1.265,-1.2856,-1.3326,-1.3839,-1.437,-1.4914,-1.591,-1.661,-1.6688,-1.7165,-1.7485,-1.7485,-1.7974,-1.8511,-1.9036,-1.9078,-1.9078,-1.9078,-1.9078,-1.9078,-1.9078,-1.9078,-1.8816,-1.8296,-1.7905,-1.726,-1.6229,-1.6069,-1.5672,-1.5342,-1.5697,-1.5895,-1.5966,-1.6117,-1.6183,-1.6183,-1.6183,-1.6183,-1.6183,-1.6183,-1.6183,-1.6183,-1.6183,-1.6183,-1.6183,-1.6183,-1.6183,-1.6183,-1.6183,-1.6183,-1.6042,-1.519,-1.5048,-1.4906,-1.4189,-1.4043,-1.39,-1.39,-1.3031,-1.2166,-1.1729,-1.0725,-0.9827,-0.9275,-0.9011,-0.8889,-0.8766,-0.7843,-0.7109,-0.7109,-0.6176,-0.551,-0.551,-0.551,-0.551,-0.551,-0.551,-0.551,-0.551,-0.551,-0.4973,-0.3498,-0.3496,-0.3496,-0.2959,-0.2826,-0.2826,-0.2826,-0.2423,-0.2155,-0.2155,-0.2155,-0.2155,-0.2155,-0.2155,-0.2155,-0.2155,-0.2155,-0.2155,-1.3447,-1.3513,-1.3513,-1.3513,-1.3513,-1.3375,-1.2831,-1.2711,-1.256,-1.2041,-1.2137,-1.2318,-1.2318,-1.253,-1.2795,-1.3085,-1.3568,-1.4099,-1.4648,-1.5626,-1.6386,-1.667,-1.7165,-1.7485,-1.7485,-1.7974,-1.8511,-1.9036,-1.9078,-1.9078,-1.9078,-1.9078,-1.9078,-1.9078,-1.9078,-1.9078,-1.9072,-1.7653,-1.7001,-1.7007,-1.5791,-1.5347,-1.5564,-1.5767,-1.5975,-1.6178,-1.6183,-1.6183,-1.6183,-1.6183,-1.6183,-1.6183,-1.6183,-1.6183,-1.6183,-1.6183,-1.6183,-1.6183,-1.6183,-1.6183,-1.6183,-1.6183,-1.6183,-1.6042,-1.519,-1.5048,-1.4906,-1.4621,-1.4189,-1.39,-1.39,-1.39,-1.3464,-1.2019,-1.1586,-1.1116,-0.9558,-0.9011,-0.8889,-0.8766,-0.8652,-0.8573,-0.8573,-0.8573,-0.8573,-0.8573,-0.8573,-0.8573,-0.8573,-0.8573,-0.8573,-0.8573,-0.8573,-0.724,-0.4035,-0.4434,-0.4832,-0.4832,-0.4434,-0.43,-0.43,-0.296,-0.2155,-0.2155,-0.2155,-0.2155,-0.2155,-0.2155,-0.2155,-0.2155,-0.2155,-0.2155,-1.294,-1.2958,-1.2958,-1.2958,-1.2825,-1.265,-1.2475,-1.2294,-1.2125,-1.1956,-1.2131,-1.2312,-1.2312,-1.253,-1.2795,-1.3079,-1.3713,-1.4298,-1.4666,-1.5783,-1.6598,-1.6688,-1.7165,-1.763,-1.8004,-1.8191,-1.8511,-1.9036,-1.9078,-1.9078,-1.9078,-1.9078,-1.9078,-1.9078,-1.9078,-1.8688,-1.7653,-1.7265,-1.6561,-1.5795,-1.562,-1.5564,-1.5772,-1.5985,-1.6117,-1.6183,-1.6183,-1.6183,-1.6183,-1.6183,-1.6183,-1.6183,-1.6183,-1.6183,-1.6183,-1.6183,-1.6183,-1.6183,-1.6183,-1.6183,-1.6183,-1.6183,-1.6183,-1.6042,-1.519,-1.5048,-1.4906,-1.4189,-1.4043,-1.39,-1.39,-1.39,-1.3757,-1.3321,-1.3174,-1.3016,-1.2536,-1.2168,-1.1964,-1.1913,-1.0873,-1.0038,-1.0038,-0.9238,-0.8573,-0.8573,-0.8573,-0.8573,-0.8573,-0.8573,-0.8573,-0.8573,-0.8302,-0.7767,-0.67,-0.67,-0.6566,-0.6297,-0.5899,-0.5767,-0.5767,-0.5366,-0.5098,-0.5098,-0.5098,-0.5098,-0.5098,-0.5098,-0.5098,-0.5098,-0.5098,-0.5098,-1.2272,-1.2481,-1.253,-1.2433,-1.2361,-1.2264,-1.2065,-1.189,-1.1775,-1.1775,-1.1986,-1.2198,-1.2294,-1.253,-1.2795,-1.3079,-1.3701,-1.4286,-1.466,-1.5771,-1.6658,-1.696,-1.7286,-1.7696,-1.8239,-1.8294,-1.8511,-1.9036,-1.9078,-1.9078,-1.9078,-1.9078,-1.9078,-1.9078,-1.9078,-1.8559,-1.7389,-1.713,-1.6473,-1.5643,-1.5591,-1.5663,-1.5867,-1.6084,-1.6183,-1.6183,-1.6183,-1.6183,0.0,-1.6183,-1.6183,-1.6183,-1.6183,-1.6183,-1.6183,-1.6183,-1.6183,-1.6183,-1.6183,-1.6183,-1.6183,-1.6183,-1.6042,-1.5616,-1.519,-1.4763,-1.4474,-1.4047,-1.39,-1.39,-1.39,-1.39,-1.39,-1.39,-1.39,-1.39,-1.39,-1.3677,-1.3453,-1.3384,-1.245,-1.157,-1.1512,-1.0836,-1.017,-1.017,-1.017,-1.017,-1.017,-1.017,-1.017,-1.017,-0.9899,-0.9763,-0.9763,-0.8831,-0.8166,-0.8028,-0.7631,-0.7367,-0.7367,-0.6698,-0.6433,-0.6433,-0.6433,-0.6433,-0.6433,-0.6433,-0.6433,-0.6431,-0.6398,-0.6384,0.0,-1.1972,-1.2146,-1.19,-1.2008,-1.205,-1.1564,-1.145,0.0,-1.145,-1.1757,-1.2023,-1.227,-1.253,-1.2795,-1.3079,-1.3562,-1.4099,-1.4636,-1.5638,-1.6604,-1.7388,-1.7485,-1.7696,-1.8239,-1.8294,-1.8511,-1.9036,-1.9078,-1.9078,-1.9078,-1.9078,-1.9078,-1.9072,-1.9072,-1.8688,-1.7905,-1.726,-1.6744,-1.621,-1.5875,-1.5673,-1.589,-1.6089,-1.6183,-1.6183,-1.6183,-1.6183,-1.6183,-1.6183,-1.6183,-1.6183,-1.6183,-1.6183,-1.6183,-1.6183,-1.6183,-1.6183,-1.6183,-1.6183,-1.6183,-1.6183,-1.5616,-1.5048,-1.5052,-1.4474,-1.39,-1.39,-1.39,-1.39,-1.39,-1.39,-1.39,-1.39,-1.39,-1.39,-1.39,-1.3766,-1.3591,-1.3409,-1.3222,-1.3039,-1.2865,-1.2836,-1.2836,-1.2836,-1.2836,-1.2836,-1.2836,-1.2836,-1.2836,-1.2836,-1.2836,-1.2836,-1.2836,-1.0962,-0.9763,-0.9763,-0.9501,-0.9235,-0.9235,-0.7633,-0.67,-0.67,-0.67,-0.67,-0.67,-0.6694,-0.6689,-0.6687,-0.6598,-0.6558,-1.0024,0.0,-1.1098,-1.1036,-1.0845,-1.0802,0.0,-1.1045,-1.1128,-1.145,-1.1902,-1.224,-1.23,-1.253,-1.2795,-1.3079,-1.3562,-1.4099,-1.4636,-1.5801,-1.6821,-1.7412,-1.7485,-1.7696,-1.8239,-1.8294,-1.8511,-1.9036,-1.9078,-1.9078,-1.9078,-1.9078,-1.8816,-1.8296,-1.8296,-1.791,-1.726,-1.6618,-1.6039,-1.576,-1.5672,-1.5753,-1.6108,-1.616,-1.6183,-1.6183,-1.6183,-1.6183,-1.6183,-1.6183,-1.6183,-1.6183,-1.6183,-1.6183,-1.6183,-1.6183,-1.6183,-1.6183,-1.6183,-1.6183,-1.6183,-1.6183,-1.5895,-1.547,-1.5048,-1.4474,-1.39,-1.39,-1.39,-1.39,-1.39,-1.39,-1.39,-1.39,-1.39,-1.39,-1.39,-1.3766,-1.3591,-1.3409,-1.3222,-1.3039,-1.2865,-1.2836,-1.2836,-1.2836,-1.2836,-1.2836,-1.2836,-1.2836,-1.2836,-1.2836,-1.2836,-1.2836,-1.2836,-1.2037,-1.1637,-1.1637,-1.1108,-1.0711,-1.0711,-1.0044,-0.9646,-0.9646,-0.9646,-0.9646,-0.9646,-0.9539,-0.949,-0.9484,-0.9355,-0.9297,-0.8754,-0.9532,-1.0455,-1.0606,-1.0433,-1.0423,-1.074,-1.0734,-1.0718,-1.1112,-1.1624,-1.2011,-1.2128,-1.2463,-1.2762,-1.3189,-1.3667,-1.4424,-1.5517,-1.6247,-1.6893,-1.7418,-1.7485,-1.7696,-1.8239,-1.8294,-1.8511,-1.9036,-1.9078,-1.9078,-1.9078,-1.9078,-1.8816,-1.8033,-1.7647,-1.726,-1.6488,-1.6206,-1.5904,-1.556,-1.5654,-1.5871,-1.6183,-1.6183,-1.6183,-1.6183,-1.6183,-1.6183,-1.6183,-1.6183,-1.6183,-1.6183,-1.6183,-1.6183,-1.6183,-1.6183,-1.6183,-1.6183,-1.6183,-1.6183,-1.6183,-1.6183,-1.5895,-1.5465,-1.519,-1.4621,-1.4189,-1.39,-1.39,-1.39,-1.39,-1.39,-1.39,-1.39,-1.39,-1.39,-1.39,-1.3827,-1.3685,-1.3421,-1.3291,-1.3137,-1.2881,-1.2836,-1.2836,-1.2836,-1.2836,-1.2836,-1.2836,-1.2836,-1.2836,-1.2836,-1.2836,-1.2836,-1.2836,-1.2441,-1.2309,-1.2309,-1.178,-1.1383,-1.1247,-1.085,-1.0982,-1.1637,-1.0913,-1.0875,-1.1523,-1.0851,-1.0395,-1.0392,-1.0243,-1.0549,-0.7817,-0.8786,-0.975,-1.0077,-1.0111,-1.0146,-1.05,-1.0372,-1.0359,-1.0885,-1.1338,-1.1786,-1.2077,-1.2449,-1.2854,-1.3481,-1.4056,-1.5019,-1.639,-1.6706,-1.6936,-1.7424,-1.7521,-1.7738,-1.8245,-1.833,-1.8535,-1.8854,-1.9054,-1.906,-1.889,-1.9054,-1.8688,-1.7905,-1.726,-1.6618,-1.5839,-1.6064,-1.5893,-1.5564,-1.5763,-1.5975,-1.6183,-1.6183,-1.6183,-1.6183,-1.6183,-1.6183,-1.6183,-1.6183,-1.6183,-1.6183,-1.6183,-1.6183,-1.6183,-1.6183,-1.6183,-1.6183,-1.6183,-1.6183,-1.6183,-1.6183,-1.6037,-1.5607,-1.519,-1.4763,-1.4479,-1.4047,-1.39,-1.39,-1.39,-1.39,-1.39,-1.39,-1.39,-1.39,-1.39,-1.39,-1.3794,-1.3441,-1.3372,-1.3258,-1.2897,-1.2836,-1.2836,-1.2836,-1.2836,-1.2836,-1.2836,-1.2836,-1.2836,-1.2836,-1.2836,-1.2836,-1.2968,-1.2832,-1.27,-1.2832,-1.2305,-1.1897,-1.1735,-1.1468,-1.1848,-1.2996,-1.1682,-1.1607,-1.2884,-1.1449,-1.0872,-1.0865,-1.0703,-1.1113,-0.795,-0.8245,-0.8437,-0.8695,-0.8825,-0.9101,-0.9678,-0.9946,-1.0314,-1.125,-1.1725,-1.21,-1.2473,-1.282,-1.32,-1.3688,-1.4806,-1.5797,-1.629,-1.6742,-1.7141,-1.7449,-1.7678,-1.7943,-1.8263,-1.8499,-1.8405,-1.7978,-1.8691,-1.8721,-1.7995,-1.8697,-1.8553,-1.713,-1.7001,-1.6359,-1.5062,-1.5267,-1.5481,-1.5564,-1.5763,-1.5975,-1.6183,-1.6183,-1.6183,-1.6183,-1.6183,-1.6183,-1.6183,-1.6183,-1.6183,-1.6183,-1.6183,-1.6183,-1.6183,-1.6183,-1.6183,-1.6183,-1.6183,-1.6183,-1.6183,-1.6183,-1.6183,-1.6037,-1.519,-1.4906,-1.4763,-1.4047,-1.39,-1.39,-1.39,-1.39,-1.39,-1.39,-1.39,-1.39,-1.39,-1.39,-1.3794,-1.3441,-1.3372,-1.3258,-1.2897,-1.2836,-1.2836,-1.2836,-1.2836,-1.2836,-1.2836,-1.2836,-1.2836,-1.2836,-1.2836,-1.3231,-1.4141,-1.4141,-1.4268,-1.4917,-1.3739,-1.34,-1.3997,-1.3988,-1.3911,-1.387,-1.3712,-1.3694,-1.382,-1.3495,-1.3396,-1.3391,-1.3202,-1.3232,-0.7749,-0.7999,-0.8155,-0.8481,-0.8722,-0.9037,-0.9761,-0.9838,-0.9971,-1.0614,-1.1359,-1.1861,-1.1722,-1.2466,-1.3221,-1.3957,-1.5118,-1.6036,-1.6447,-1.6845,-1.7189,-1.7449,-1.7714,-1.7986,-1.8269,-1.8529,-1.8429,-1.78,-1.8157,-1.8058,-1.718,-1.7652,-1.7523,-1.6488,-1.6488,-1.5969,-1.4931,-1.5252,-1.546,-1.5564,-1.5881,-1.6084,-1.6183,-1.6183,-1.6183,-1.6183,-1.6183,-1.6183,-1.6183,-1.6183,-1.6183,-1.6183,-1.6183,-1.6183,-1.6183,-1.6183,-1.6183,-1.6183,-1.6183,-1.6183,-1.6183,-1.6183,-1.6183,-1.6042,-1.519,-1.5048,-1.4906,-1.4047,-1.39,-1.39,-1.39,-1.39,-1.39,-1.39,-1.3831,-1.3762,-1.3762,-1.3685,-1.351,-1.3153,-1.3084,-1.297,-1.2613,-1.2552,-1.2552,-1.2552,-1.2552,-1.2552,-1.2552,-1.3182,-1.3559,-1.3559,-1.4194,-1.4827,-1.5341,-1.5209,-1.513,-1.5119,-1.435,-1.3997,-1.4299,-1.429,-1.4625,-1.5281,-1.4413,-1.4351,-1.5094,-1.4266,-1.3802,-1.3797,-1.3707,-1.4023,-0.7697,-0.8033,-0.834,-0.8807,-0.8973,-0.9213,-0.9878,-0.9812,-0.9719,-1.0149,-1.0952,-1.15,-1.1532,-1.257,-1.3751,-1.4511,-1.5456,-1.6247,-1.6724,-1.7014,-1.728,-1.7545,-1.7691,-1.7833,-1.8107,-1.8244,-1.796,-1.7211,-1.7479,-1.739,-1.6466,-1.6722,-1.6748,-1.5969,-1.5974,-1.5714,-1.4931,-1.5352,-1.556,-1.5564,-1.5985,-1.6183,-1.6183,-1.6183,-1.6183,-1.6183,-1.6183,-1.6183,-1.6183,-1.6183,-1.6183,-1.6183,-1.6183,-1.6183,-1.6183,-1.6183,-1.6183,-1.6183,-1.6183,-1.6183,-1.6183,-1.6183,-1.6183,-1.6042,-1.519,-1.5048,-1.4906,-1.4047,-1.3872,-1.3851,-1.3892,-1.3872,-1.3843,-1.3843,-1.3705,-1.3579,-1.3579,-1.347,-1.3279,-1.2958,-1.2865,-1.2739,-1.2422,-1.2333,-1.2308,-1.2308,-1.2552,-1.28,-1.28,-1.3913,-1.4654,-1.4654,-1.5525,-1.6151,-1.6398,-1.6393,-1.6199,-1.5695,-1.5246,-1.4925,-1.4958,-1.4948,-1.5422,-1.6486,-1.5318,-1.5225,-1.6325,-1.5178,-1.4619,-1.4619,-1.4619,-1.5095,-0.7938,-0.8349,-0.8807,-0.9426,-0.9299,-0.9133,-0.9549,-0.9644,-0.9843,-1.0785,-1.0975,-1.142,-1.2742,-1.4018,-1.5079,-1.5666,-1.6314,-1.6742,-1.7026,-1.7292,-1.7551,-1.7817,-1.7474,-1.7365,-1.7616,-1.7352,-1.6669,-1.5607,-1.6488,-1.6546,-1.5472,-1.6371,-1.6748,-1.5969,-1.5974,-1.5714,-1.4931,-1.5352,-1.556,-1.5564,-1.5985,-1.6183,-1.6183,-1.6183,-1.6183,-1.6183,-1.6183,-1.6183,-1.6183,-1.6183,-1.6183,-1.6183,-1.6183,-1.6183,-1.6183,-1.6183,-1.6183,-1.6183,-1.6183,-1.6183,-1.6183,-1.6183,-1.6183,-1.6042,-1.519,-1.5048,-1.4906,-1.4047,-1.3786,-1.3701,-1.3859,-1.3782,-1.3664,-1.3664,-1.3522,-1.3388,-1.3388,-1.338,-1.3315,-1.3112,-1.2946,-1.2775,-1.2576,-1.241,-1.2308,-1.2308,-1.3295,-1.4034,-1.4034,-1.5157,-1.5903,-1.5903,-1.6027,-1.6398,-1.7022,-1.7895,-1.8295,-1.7696,-1.6675,-1.6568,-1.7546,-1.7655,-1.7542,-1.7421,-1.728,-1.7274,-1.7391,-1.7256,-1.7244,-1.7244,-1.7244,-1.7244,-0.8132,-0.8486,-0.8855,-0.9488,-0.9724,-0.9842,-0.9998,-1.0036,-1.026,-1.0865,-1.1318,-1.2068,-1.349,-1.4512,-1.5235,-1.5777,-1.647,-1.6978,-1.708,-1.7316,-1.7581,-1.7841,-1.7875,-1.7772,-1.7639,-1.75,-1.6904,-1.5447,-1.5843,-1.5757,-1.4697,-1.5342,-1.5583,-1.5323,-1.5323,-1.5192,-1.4931,-1.5352,-1.556,-1.5564,-1.5985,-1.6183,-1.6183,-1.6183,-1.6183,-1.6183,-1.6183,-1.6183,-1.6183,-1.6183,-1.6183,-1.6183,-1.6183,-1.6183,-1.6183,-1.6183,-1.6183,-1.6183,-1.6183,-1.6183,-1.6183,-1.6183,-1.6037,-1.5726,-1.5044,-1.4723,-1.4416,-1.3743,-1.3526,-1.3514,-1.3693,-1.3608,-1.3474,-1.3474,-1.3336,-1.3197,-1.3197,-1.3116,-1.2986,-1.28,-1.3259,-1.3576,-1.3381,-1.392,-1.4392,-1.4392,-1.4751,-1.5109,-1.5109,-1.6194,-1.6914,-1.6914,-1.7512,-1.7995,-1.8239,-1.8257,-1.8226,-1.8003,-1.7517,-1.7414,-1.7642,-1.763,-1.7581,-1.7485,-1.7485,-1.7485,-1.7485,-1.7485,-1.7485,-1.7485,-1.7485,-1.7485,-0.8269,-0.8642,-0.9034,-0.9601,-1.0012,-1.0291,-1.0353,-1.0419,-1.0581,-1.1012,-1.192,-1.2903,-1.4035,-1.4939,-1.5736,-1.6174,-1.6509,-1.6887,-1.7201,-1.7325,-1.7464,-1.7974,-1.8,-1.8013,-1.7759,-1.7334,-1.656,-1.5441,-1.5322,-1.4969,-1.4317,-1.4648,-1.487,-1.4931,-1.4931,-1.4931,-1.4931,-1.5352,-1.556,-1.5564,-1.5985,-1.6183,-1.6183,-1.6183,-1.6183,-1.6183,-1.6183,-1.6183,-1.6183,-1.6183,-1.6183,-1.6183,-1.6183,-1.6183,-1.6183,-1.6183,-1.6183,-1.6183,-1.6183,-1.6136,-1.6079,-1.6079,-1.5896,-1.5533,-1.484,-1.4518,-1.4215,-1.3542,-1.3327,-1.3448,-1.398,-1.3646,-1.3283,-1.3283,-1.3145,-1.3011,-1.3011,-1.3315,-1.3447,-1.3315,-1.4219,-1.4854,-1.4711,-1.5173,-1.5575,-1.5575,-1.5924,-1.6161,-1.6161,-1.7343,-1.8052,-1.8052,-1.8525,-1.8881,-1.8765,-1.8311,-1.7966,-1.7849,-1.7772,-1.7666,-1.7491,-1.7485,-1.7485,-1.7485,-1.7485,-1.7485,-1.7485,-1.783,-1.7948,-1.7948,-1.8298,-1.8409,-0.8344,-0.8855,-0.9426,-0.9847,-1.0121,-1.0338,-1.0532,-1.0745,-1.0957,-1.1161,-1.2608,-1.399,-1.4245,-1.5568,-1.6791,-1.705,-1.6518,-1.6489,-1.7331,-1.7113,-1.7248,-1.8141,-1.7894,-1.7759,-1.8011,-1.6669,-1.5549,-1.5317,-1.4678,-1.4307,-1.4307,-1.4515,-1.4728,-1.4922,-1.4931,-1.4931,-1.4931,-1.5347,-1.556,-1.5564,-1.598,-1.6178,-1.6183,-1.6183,-1.6183,-1.6183,-1.6183,-1.6183,-1.6183,-1.6183,-1.6183,-1.6183,-1.6183,-1.6178,-1.6178,-1.6178,-1.6178,-1.6178,-1.6178,-1.6037,-1.5857,-1.5857,-1.572,-1.5419,-1.4728,-1.445,-1.4314,-1.3638,-1.3234,-1.3491,-1.481,-1.4147,-1.3092,-1.3092,-1.2962,-1.2836,-1.2836,-1.4006,-1.4907,-1.4907,-1.5706,-1.6264,-1.6264,-1.6002,-1.5693,-1.5693,-1.675,-1.7572,-1.7572,-1.8648,-1.9366,-1.9366,-1.912,-1.8758,-1.8421,-1.8194,-1.7849,-1.7485,-1.7485,-1.7485,-1.7485,-1.7485,-1.7485,-1.7485,-1.7485,-1.7485,-1.7479,-1.8415,-1.8881,-1.8997,-1.9924,-2.027,-0.8514,-0.9072,-0.9615,-0.9885,-1.0556,-1.109,-1.0853,-1.125,-1.184,-1.2362,-1.3588,-1.473,-1.4828,-1.5948,-1.6942,-1.6739,-1.6897,-1.7103,-1.7118,-1.7343,-1.7804,-1.8511,-1.8512,-1.8151,-1.7367,-1.664,-1.5753,-1.4687,-1.4304,-1.4099,-1.4099,-1.444,-1.4662,-1.4723,-1.486,-1.4931,-1.4931,-1.5196,-1.5408,-1.5564,-1.5829,-1.6037,-1.6183,-1.6183,-1.6183,-1.6183,-1.6183,-1.6183,-1.6183,-1.6183,-1.6183,-1.6183,-1.6183,-1.6089,-1.5956,-1.5956,-1.5867,-1.5744,-1.5744,-1.5701,-1.5649,-1.5649,-1.547,-1.525,-1.5635,-1.5586,-1.5414,-1.5791,-1.5828,-1.5909,-1.6296,-1.617,-1.5778,-1.5778,-1.5859,-1.5684,-1.5684,-1.6073,-1.6333,-1.6333,-1.7235,-1.7842,-1.7667,-1.8094,-1.8519,-1.8323,-1.8648,-1.8887,-1.8887,-1.9127,-1.9366,-1.9366,-1.912,-1.8758,-1.8421,-1.8194,-1.7849,-1.7485,-1.7485,-1.7485,-1.7485,-1.7485,-1.7485,-1.7485,-1.8181,-1.8532,-1.8532,-1.9455,-1.9924,-1.9924,-2.0155,-2.027,-0.8585,-0.9162,-0.9696,-0.9899,-1.0679,-1.1487,-1.1681,-1.1815,-1.2183,-1.287,-1.3971,-1.4981,-1.5266,-1.6189,-1.6832,-1.6868,-1.686,-1.6976,-1.7247,-1.7572,-1.8072,-1.8644,-1.8776,-1.8475,-1.7374,-1.6773,-1.5887,-1.469,-1.4123,-1.392,-1.4005,-1.4251,-1.4421,-1.4501,-1.4624,-1.4685,-1.4685,-1.4889,-1.5059,-1.5196,-1.5474,-1.5678,-1.581,-1.598,-1.6056,-1.6051,-1.5971,-1.5938,-1.5938,-1.5938,-1.5938,-1.5938,-1.5938,-1.5857,-1.5739,-1.5739,-1.6069,-1.6355,-1.6355,-1.63,-1.6365,-1.6892,-1.6429,-1.5805,-1.6718,-1.6671,-1.6514,-1.6888,-1.698,-1.7103,-1.7619,-1.7748,-1.7619,-1.7103,-1.698,-1.698,-1.698,-1.7361,-1.7748,-1.7748,-1.8698,-1.9355,-1.9192,-1.9579,-1.974,-1.9566,-1.9439,-1.9366,-1.9366,-1.9366,-1.9366,-1.9366,-1.957,-1.9448,-1.8997,-1.9107,-1.91,-1.8642,-1.8642,-1.8642,-1.8642,-1.8298,-1.8064,-1.8064,-1.8991,-1.9461,-1.9461,-2.0378,-2.0838,-2.0838,-2.1189,-2.1417,-0.8581,-0.9176,-0.9719,-0.9904,-1.0551,-1.1415,-1.2626,-1.2397,-1.2096,-1.2976,-1.3914,-1.4849,-1.5654,-1.6096,-1.6667,-1.7162,-1.6646,-1.6442,-1.7576,-1.7754,-1.8063,-1.8716,-1.8927,-1.8715,-1.7696,-1.6941,-1.5952,-1.4998,-1.4169,-1.3773,-1.3972,-1.4,-1.4095,-1.4279,-1.4303,-1.4312,-1.4312,-1.4506,-1.4615,-1.4638,-1.5002,-1.5186,-1.5219,-1.564,-1.5834,-1.5824,-1.564,-1.556,-1.556,-1.556,-1.556,-1.556,-1.556,-1.555,-1.5531,-1.5667,-1.6451,-1.762,-1.7754,-1.7619,-1.7703,-1.8865,-1.8063,-1.6861,-1.7882,-1.8016,-1.7636,-1.7367,-1.7361,-1.7625,-1.8908,-1.917,-1.8908,-1.7619,-1.7361,-1.7361,-1.7361,-1.839,-1.917,-1.917,-1.9997,-2.0708,-2.0681,-2.0234,-1.986,-1.9806,-1.9553,-1.9366,-1.9366,-1.9366,-1.9482,-1.9597,-2.0249,-2.0594,-2.0074,-2.0737,-2.0974,-2.0463,-2.0354,-2.0354,-2.0354,-1.9488,-1.8991,-1.8991,-1.9917,-2.0385,-2.0385,-2.1288,-2.1737,-2.1737,-2.2546,-2.3014,-0.8543,-0.928,-0.9894,-1.0028,-1.0334,-1.1096,-1.2221,-1.2188,-1.2282,-1.3914,-1.415,-1.4416,-1.5221,-1.5631,-1.5774,-1.5602,-1.615,-1.6808,-1.6952,-1.7856,-1.8632,-1.8963,-1.9042,-1.8459,-1.7064,-1.6566,-1.5834,-1.4269,-1.3932,-1.3707,-1.3755,-1.392,-1.4033,-1.4076,-1.4227,-1.4312,-1.4312,-1.4359,-1.4463,-1.4633,-1.4723,-1.4846,-1.5011,-1.5432,-1.5626,-1.5621,-1.5578,-1.556,-1.556,-1.556,-1.556,-1.556,-1.556,-1.5456,-1.5433,-1.6496,-1.7034,-1.7261,-1.83,-1.8653,-1.8735,-1.8992,-1.8571,-1.8279,-1.9304,-1.9437,-1.9316,-2.0081,-2.0202,-2.0329,-2.0589,-2.0589,-2.0589,-2.0335,-2.0202,-2.0202,-2.0202,-2.0462,-2.0589,-2.0589,-2.0803,-2.0942,-2.0715,-2.0568,-2.0334,-1.9867,-1.9553,-1.9366,-1.9366,-1.9366,-1.9707,-2.0723,-2.0945,-2.1262,-2.1619,-2.1743,-2.1628,-2.1082,-2.1096,-2.1096,-2.1096,-2.0405,-2.004,-2.004,-2.0831,-2.1281,-2.1281,-2.2207,-2.2667,-2.2667,-2.2901,-2.3014,-0.8533,-0.9242,-0.9951,-1.0551,-1.0636,-1.0901,-1.2153,-1.2115,-1.2231,-1.3966,-1.4107,-1.4261,-1.5071,-1.5189,-1.5189,-1.5424,-1.5793,-1.636,-1.6987,-1.7517,-1.8152,-1.9054,-1.8816,-1.8198,-1.7317,-1.6691,-1.5829,-1.4632,-1.4053,-1.3688,-1.3688,-1.3797,-1.3859,-1.3859,-1.3958,-1.4014,-1.4014,-1.4014,-1.4071,-1.4185,-1.4284,-1.444,-1.4648,-1.5068,-1.5257,-1.5257,-1.5257,-1.5257,-1.5257,-1.5257,-1.5257,-1.5257,-1.5257,-1.558,-1.6121,-1.6907,-1.786,-1.903,-1.9801,-2.0055,-2.0055,-2.069,-2.0189,-1.9437,-2.0709,-2.0716,-2.0469,-2.0982,-2.1109,-2.1109,-2.1109,-2.1109,-2.1109,-2.1109,-2.1109,-2.1109,-2.1109,-2.1109,-2.1109,-2.1109,-2.1109,-2.1062,-2.0909,-2.0768,-2.0474,-1.9887,-1.9673,-1.9526,-1.9386,-1.9492,-2.0034,-2.1401,-2.2105,-2.2728,-2.3014,-2.3613,-2.3583,-2.2721,-2.261,-2.261,-2.261,-2.2288,-2.1802,-2.1184,-2.1949,-2.2312,-2.2312,-2.278,-2.3014,-2.3014,-2.3014,-2.3109,-0.8472,-0.9167,-0.9975,-1.1123,-1.1042,-1.0972,-1.2077,-1.2091,-1.2202,-1.3565,-1.3853,-1.4043,-1.4887,-1.4739,-1.4715,-1.5471,-1.5551,-1.5893,-1.718,-1.7396,-1.7781,-1.8816,-1.8425,-1.807,-1.757,-1.6855,-1.6011,-1.4931,-1.4227,-1.3745,-1.3745,-1.3707,-1.3688,-1.3688,-1.3688,-1.3688,-1.3688,-1.3688,-1.3688,-1.3693,-1.3868,-1.418,-1.4634,-1.4865,-1.4914,-1.4827,-1.4865,-1.4879,-1.4884,-1.4917,-1.5062,-1.5318,-1.5318,-1.6084,-1.7361,-1.7619,-1.9158,-2.1076,-2.1328,-2.1461,-2.1587,-2.2724,-2.1846,-2.0583,-2.1727,-2.1614,-2.1109,-2.1109,-2.1109,-2.1109,-2.1109,-2.1109,-2.1109,-2.1109,-2.1109,-2.1109,-2.1109,-2.1109,-2.1109,-2.1109,-2.1109,-2.1109,-2.1109,-2.0909,-2.0588,-2.01,-2.0027,-1.994,-1.97,-2.0064,-2.076,-2.2156,-2.3513,-2.4375,-2.4683,-2.5519,-2.5562,-2.4459,-2.4348,-2.4229,-2.4229,-2.4174,-2.3654,-2.2663,-2.302,-2.3197,-2.3197,-2.3197,-2.3197,-2.3197,-2.3197,-2.3348,-0.8222,-0.9162,-1.0083,-1.0801,-1.1047,-1.125,-1.1779,-1.2002,-1.228,-1.3046,-1.3179,-1.3529,-1.4508,-1.4257,-1.3932,-1.4452,-1.553,-1.6202,-1.6255,-1.7765,-1.8682,-1.8168,-1.8682,-1.8332,-1.6937,-1.6762,-1.6008,-1.4534,-1.4081,-1.3967,-1.3967,-1.3792,-1.3688,-1.3688,-1.3688,-1.3688,-1.3688,-1.3688,-1.3688,-1.3688,-1.3717,-1.4434,-1.5724,-1.5788,-1.5319,-1.4407,-1.4591,-1.4671,-1.4685,-1.486,-1.5574,-1.6721,-1.6721,-1.749,-1.8908,-2.0055,-2.0816,-2.1328,-2.2473,-2.2856,-2.2856,-2.2731,-2.223,-2.1853,-2.1734,-2.1362,-2.1109,-2.1109,-2.1109,-2.1109,-2.1109,-2.1109,-2.1109,-2.1109,-2.1109,-2.1109,-2.1109,-2.1109,-2.1109,-2.1109,-2.1109,-2.1109,-2.1109,-2.1076,-2.1029,-2.0949,-2.0935,-2.0922,-2.0882,-2.1649,-2.2704,-2.3894,-2.5093,-2.6011,-2.6941,-2.6624,-2.6177,-2.5902,-2.5327,-2.4968,-2.4968,-2.4674,-2.4484,-2.4316,-2.4094,-2.3912,-2.3912,-2.3912,-2.3912,-2.3912,-2.3912,-2.3935,-0.8458,-0.9337,-1.0162,-1.0589,-1.0957,-1.1274,-1.1581,-1.1902,-1.2252,-1.2635,-1.2904,-1.3308,-1.3965,-1.3923,-1.3788,-1.4095,-1.5102,-1.5794,-1.5875,-1.6668,-1.7394,-1.7389,-1.7394,-1.7221,-1.6861,-1.6488,-1.5859,-1.513,-1.4543,-1.418,-1.418,-1.3981,-1.3868,-1.3868,-1.375,-1.3688,-1.3688,-1.3688,-1.3688,-1.3688,-1.3688,-1.4446,-1.5725,-1.5725,-1.6046,-1.6409,-1.6518,-1.6566,-1.6583,-1.6816,-1.7291,-1.7811,-1.8081,-1.8902,-2.0309,-2.0823,-2.1587,-2.2348,-2.2856,-2.3106,-2.3113,-2.2988,-2.2606,-2.2355,-2.1985,-2.1607,-2.1355,-2.1109,-2.1109,-2.1109,-2.1109,-2.1109,-2.1149,-2.1323,-2.1356,-2.1403,-2.1563,-2.147,-2.141,-2.157,-2.1597,-2.1597,-2.1597,-2.1597,-2.1543,-2.1383,-2.2109,-2.2553,-2.2244,-2.3479,-2.4849,-2.6205,-2.6873,-2.7592,-2.8392,-2.8166,-2.7624,-2.6794,-2.6248,-2.5778,-2.5405,-2.5063,-2.4873,-2.4873,-2.4333,-2.4055,-2.4055,-2.4055,-2.4055,-2.4055,-2.4055,-2.4158,-0.8585,-0.9322,-0.9894,-1.031,-1.0768,-1.1189,-1.1453,-1.1761,-1.2087,-1.2446,-1.2729,-1.3051,-1.3528,-1.3655,-1.388,-1.4216,-1.4745,-1.5322,-1.561,-1.6172,-1.6555,-1.6737,-1.6618,-1.6618,-1.6748,-1.6214,-1.5736,-1.548,-1.4764,-1.4392,-1.4392,-1.4199,-1.4085,-1.4085,-1.3882,-1.3769,-1.3769,-1.3717,-1.3688,-1.3688,-1.4043,-1.4867,-1.6042,-1.6391,-1.7428,-1.8898,-1.8234,-1.8021,-1.8039,-1.8303,-1.8659,-1.8933,-1.9336,-2.02,-2.1478,-2.156,-2.2223,-2.3106,-2.3106,-2.3106,-2.3113,-2.2981,-2.2731,-2.2362,-2.2111,-2.1734,-2.1355,-2.1109,-2.1162,-2.1223,-2.1223,-2.1276,-2.139,-2.161,-2.1663,-2.1724,-2.1937,-2.1817,-2.1724,-2.1944,-2.1984,-2.1984,-2.1984,-2.2044,-2.2024,-2.1804,-2.312,-2.3981,-2.3738,-2.5352,-2.6968,-2.7976,-2.8416,-2.8922,-2.9449,-2.9324,-2.8806,-2.779,-2.7294,-2.6894,-2.6267,-2.6007,-2.5862,-2.5622,-2.5092,-2.4731,-2.4317,-2.4317,-2.4317,-2.4317,-2.4317,-2.446,-0.8311,-0.8883,-0.9455,-0.988,-1.0452,-1.1019,-1.1425,-1.1534,-1.1779,-1.2583,-1.2602,-1.2663,-1.3291,-1.3561,-1.3995,-1.4821,-1.4988,-1.5145,-1.5585,-1.68,-1.7268,-1.6208,-1.713,-1.7389,-1.6229,-1.5964,-1.5694,-1.5047,-1.4728,-1.4615,-1.4615,-1.4411,-1.4293,-1.4293,-1.4099,-1.3996,-1.3996,-1.3792,-1.3688,-1.3688,-1.4867,-1.6161,-1.7325,-1.8506,-1.9809,-2.0924,-1.8707,-1.7859,-1.7877,-1.8027,-1.8875,-1.9998,-2.0411,-2.1403,-2.2559,-2.2872,-2.2981,-2.3106,-2.3106,-2.3106,-2.3106,-2.2738,-2.2362,-2.2104,-2.1734,-2.1355,-2.1109,-2.1109,-2.1309,-2.153,-2.153,-2.173,-2.1944,-2.1964,-2.1964,-2.1964,-2.1984,-2.1977,-2.1964,-2.1984,-2.1984,-2.1984,-2.1984,-2.2211,-2.2392,-2.2372,-2.3806,-2.4927,-2.4913,-2.7026,-2.8528,-2.8665,-2.952,-3.0071,-3.0204,-2.9573,-2.919,-2.9065,-2.8537,-2.8143,-2.8143,-2.8126,-2.7857,-2.709,-2.7057,-2.6327,-2.5056,-2.5056,-2.5056,-2.5056,-2.5056,-2.5063,-0.8288,-0.8855,-0.9393,-0.9682,-1.0329,-1.0896,-1.091,-1.1326,-1.1756,-1.1931,-1.2328,-1.2677,-1.2762,-1.3514,-1.4262,-1.4715,-1.5597,-1.6,-1.5319,-1.608,-1.6386,-1.5228,-1.551,-1.5688,-1.5308,-1.5323,-1.5192,-1.4931,-1.4865,-1.4827,-1.4827,-1.4629,-1.4515,-1.4515,-1.4312,-1.4142,-1.4014,-1.3797,-1.3688,-1.3688,-1.4986,-1.6273,-1.7443,-1.8732,-2.0033,-2.1096,-2.0382,-1.9952,-1.998,-2.0287,-2.0655,-2.1166,-2.1477,-2.2083,-2.2637,-2.2754,-2.293,-2.3106,-2.3106,-2.3106,-2.3113,-2.2988,-2.2856,-2.2774,-2.2603,-2.2285,-2.2071,-2.2005,-2.1874,-2.183,-2.183,-2.1904,-2.2031,-2.2218,-2.2405,-2.2545,-2.2545,-2.2398,-2.2318,-2.2512,-2.2545,-2.2545,-2.2545,-2.343,-2.4033,-2.4033,-2.6126,-2.78,-2.78,-2.9275,-3.0379,-3.0379,-3.0774,-3.0956,-3.0956,-3.0701,-3.0446,-2.9944,-2.9441,-2.9046,-2.8664,-2.8424,-2.8177,-2.7916,-2.7916,-2.7043,-2.5445,-2.5445,-2.5326,-2.5111,-2.5111,-2.5111,-0.8099,-0.8595,-0.91,-0.945,-1.0012,-1.0513,-1.065,-1.1052,-1.1439,-1.1586,-1.2006,-1.2389,-1.2526,-1.3501,-1.4437,-1.481,-1.5472,-1.5877,-1.5318,-1.5591,-1.5525,-1.4623,-1.4647,-1.4856,-1.4813,-1.4832,-1.486,-1.4926,-1.4931,-1.4931,-1.4931,-1.4804,-1.4704,-1.4638,-1.4496,-1.4322,-1.4114,-1.3901,-1.3797,-1.3797,-1.5375,-1.6626,-1.7443,-1.9203,-2.0385,-2.1211,-2.1211,-2.1211,-2.1225,-2.1445,-2.1533,-2.1569,-2.1891,-2.214,-2.2337,-2.255,-2.2762,-2.2959,-2.3069,-2.3106,-2.3128,-2.3237,-2.3148,-2.308,-2.3278,-2.2985,-2.251,-2.2449,-2.2315,-2.2131,-2.2131,-2.2205,-2.2331,-2.2525,-2.2719,-2.2859,-2.2859,-2.2706,-2.2625,-2.2826,-2.2859,-2.2859,-2.2859,-2.3672,-2.4474,-2.4873,-2.7004,-2.8732,-2.9273,-3.0584,-3.1377,-3.1377,-3.1377,-3.1377,-3.1377,-3.1377,-3.1249,-3.0741,-3.0489,-3.0081,-2.9696,-2.945,-2.9182,-2.8937,-2.8937,-2.8179,-2.6441,-2.6319,-2.6067,-2.5717,-2.5717,-2.5594,0.0,0.0,0.0,-0.9152,-0.9478,-0.9861,-1.0683,-1.0721,-1.0811,-1.1614,-1.1652,-1.1779,-1.2583,-1.3551,-1.4505,-1.5095,-1.4634,-1.456,-1.5734,-1.5318,-1.4799,-1.4399,-1.4918,-1.5132,-1.46,-1.4624,-1.4709,-1.4907,-1.4922,-1.4926,-1.4931,-1.4931,-1.4841,-1.4648,-1.4638,-1.4534,-1.4322,-1.4123,-1.4014,-1.401,-1.6283,-1.7449,-1.7443,-2.0033,-2.1211,-2.1211,-2.1211,-2.1211,-2.1211,-2.1211,-2.1211,-2.124,-2.1562,-2.1686,-2.1767,-2.2374,-2.2608,-2.2674,-2.2996,-2.312,-2.3179,-2.3501,-2.3355,-2.3157,-2.3479,-2.318,-2.2524,-2.2531,-2.2477,-2.2432,-2.2432,-2.2645,-2.2859,-2.2859,-2.2859,-2.2859,-2.2859,-2.2859,-2.2859,-2.2859,-2.2859,-2.2859,-2.2859,-2.2996,-2.3536,-2.4873,-2.6321,-2.7784,-2.9134,-3.0584,-3.1377,-3.1377,-3.1377,-3.1377,-3.1377,-3.1377,-3.1377,-3.1377,-3.1377,-3.1377,-3.1377,-3.1377,-3.112,-3.0352,-3.0343,-2.9705,-2.832,-2.7809,-2.7424,-2.7056,-2.7056,-2.6692,-0.7721,0.0,0.0,0.0,0.0,0.0,-1.0126,-1.0799,-1.1303,-1.0996,-1.1768,-1.2353,-1.1978,-1.2685,-1.3552,-1.4075,-1.4864,-1.5194,-1.48,-1.4611,-1.4401,-1.4175,-1.4213,-1.4418,-1.4378,-1.4402,-1.4487,-1.47,-1.4714,-1.478,-1.4926,-1.4931,-1.4907,-1.4851,-1.4709,-1.4605,-1.4544,-1.4331,-1.4156,-1.401,-1.6457,-1.7624,-1.7443,-2.0033,-2.1211,-2.1211,-2.1211,-2.1211,-2.1211,-2.1211,-2.1211,-2.1218,-2.1313,-2.1489,-2.1715,-2.1891,-2.2235,-2.2674,-2.2996,-2.3267,-2.3515,-2.3845,-2.3947,-2.3876,-2.4203,-2.4034,-2.3546,-2.3637,-2.3357,-2.3011,-2.2875,-2.2799,-2.2859,-2.2859,-2.2859,-2.2859,-2.2859,-2.2859,-2.2859,-2.2859,-2.2859,-2.2859,-2.2859,-2.4595,-2.6054,-2.6455,-2.8575,-3.0316,-3.0723,-3.1111,-3.1377,-3.1377,-3.1377,-3.1377,-3.1377,-3.1377,-3.1377,-3.1377,-3.1377,-3.1377,-3.1377,-3.1377,-3.1249,-3.112,-3.0847,-3.032,-2.9698,-2.8584,-2.7698,-2.7056,-2.7056,-2.6935,-0.7612,-0.7947,-0.8316,-0.8524,0.0,0.0,-0.9757,-1.0513,-1.1023,-1.0791,-1.1482,-1.205,-1.1756,-1.2343,-1.287,-1.3083,-1.3967,-1.4473,-1.4218,-1.3938,-1.3839,-1.3712,-1.3755,-1.3868,-1.4161,-1.4185,-1.4274,-1.4482,-1.4501,-1.4591,-1.4794,-1.4889,-1.4931,-1.4931,-1.4822,-1.4756,-1.4756,-1.4548,-1.4635,-1.5122,-1.6983,-1.7995,-1.8437,-2.0326,-2.1211,-2.1211,-2.1211,-2.1211,-2.1211,-2.1211,-2.1211,-2.1211,-2.1211,-2.1328,-2.1511,-2.165,-2.2008,-2.2506,-2.2952,-2.3325,-2.3676,-2.4137,-2.4284,-2.4349,-2.4679,-2.4499,-2.4259,-2.4174,-2.3816,-2.327,-2.3003,-2.2859,-2.3003,-2.3133,-2.2996,-2.2996,-2.3133,-2.2996,-2.2859,-2.2859,-2.2859,-2.2859,-2.2859,-2.473,-2.6455,-2.698,-2.9108,-3.0723,-3.1377,-3.1377,-3.1377,-3.1377,-3.1377,-3.1377,-3.1377,-3.1377,-3.1377,-3.1377,-3.1377,-3.1377,-3.1377,-3.1377,-3.1377,-3.1377,-3.0992,-3.0506,-2.9938,-2.9189,-2.85,-2.7779,-2.7539,-2.7418,-0.7564,-0.7782,-0.8127,-0.8316,-0.8699,0.0,-0.9493,-0.9923,-1.0429,-1.0683,-1.0924,-1.122,-1.1865,-1.2098,-1.2243,-1.2238,-1.2607,-1.3036,-1.3718,-1.3349,-1.3088,-1.3325,-1.3353,-1.3499,-1.3868,-1.3929,-1.4029,-1.4227,-1.4284,-1.4407,-1.4619,-1.4804,-1.4912,-1.4931,-1.4931,-1.4931,-1.4931,-1.4881,-1.5533,-1.6756,-1.7666,-1.8753,-1.9925,-2.0815,-2.1262,-2.1262,-2.1225,-2.1211,-2.1211,-2.1211,-2.1211,-2.1211,-2.1211,-2.1211,-2.1247,-2.1576,-2.1906,-2.2271,-2.2893,-2.3347,-2.3749,-2.4371,-2.4598,-2.4679,-2.4964,-2.4916,-2.4503,-2.4503,-2.3952,-2.3406,-2.3133,-2.3003,-2.314,-2.3406,-2.327,-2.3133,-2.3406,-2.3133,-2.2996,-2.2996,-2.3003,-2.2859,-2.2859,-2.4074,-2.5532,-2.6847,-2.8328,-2.9796,-3.1249,-3.1377,-3.1377,-3.1377,-3.1377,-3.1377,-3.1377,-3.1377,-3.1377,-3.1377,-3.1377,-3.1377,-3.1377,-3.1377,-3.1359,-3.1313,-3.0882,-3.0277,-2.9507,-2.9507,-2.9324,-2.8984,-2.8379,-2.814,-0.7758,0.0,0.0,0.0,0.0,0.0,-0.9124,-0.9927,-1.0512,-0.9995,-1.0793,-1.1426,-1.1206,-1.1168,-1.1263,-1.1624,-1.1763,-1.212,-1.2933,-1.2783,-1.2701,-1.3084,-1.3131,-1.3159,-1.3244,-1.341,-1.3594,-1.3797,-1.4123,-1.4407,-1.4619,-1.4671,-1.4766,-1.4926,-1.4931,-1.4931,-1.4931,-1.6043,-1.6567,-1.6762,-1.9026,-2.0097,-2.0234,-2.1149,-2.1606,-2.1591,-2.132,-2.1211,-2.1211,-2.1211,-2.1211,-2.1211,-2.1211,-2.1211,-2.1247,-2.1576,-2.1906,-2.2271,-2.2893,-2.3493,-2.4049,-2.4444,-2.4744,-2.4971,-2.5037,-2.5059,-2.4916,-2.4638,-2.4231,-2.3823,-2.3823,-2.3823,-2.3823,-2.3823,-2.3823,-2.3823,-2.3823,-2.3543,-2.3406,-2.3686,-2.3277,-2.2859,-2.2859,-2.4074,-2.5532,-2.6847,-2.8328,-2.9796,-3.1249,-3.1377,-3.1377,-3.1377,-3.1377,-3.1377,-3.1377,-3.1377,-3.1377,-3.1377,-3.1377,-3.1377,-3.1377,-3.1377,-3.1231,-3.091,-3.0176,-2.9571,-2.9094,-2.9094,-2.9058,-2.8984,-2.8865,-2.8746,0.0,0.0,0.0,-0.824,0.0,0.0,0.0,-0.9505,-0.9892,-0.9644,-1.0236,-1.0856,-1.0791,-1.0735,-1.0905,-1.1435,-1.143,-1.1576,-1.2205,-1.238,-1.2517,-1.2729,-1.2852,-1.2918,-1.2918,-1.3107,-1.3315,-1.3523,-1.3925,-1.4208,-1.4317,-1.452,-1.4681,-1.478,-1.4879,-1.5187,-1.5954,-1.6597,-1.7686,-1.8963,-2.008,-2.0931,-2.1519,-2.1835,-2.1942,-2.1935,-2.1767,-2.1693,-2.1693,-2.1693,-2.1598,-2.1437,-2.1276,-2.1313,-2.1474,-2.1635,-2.1993,-2.2469,-2.2945,-2.3427,-2.3918,-2.4415,-2.4679,-2.4847,-2.5008,-2.5059,-2.5059,-2.4638,-2.4367,-2.4231,-2.4095,-2.3959,-2.4095,-2.4231,-2.4095,-2.4095,-2.4231,-2.3959,-2.3816,-2.3959,-2.3686,-2.3406,-2.3133,-2.473,-2.6329,-2.698,-2.8986,-3.0584,-3.1377,-3.1377,-3.1377,-3.1377,-3.1377,-3.1377,-3.1377,-3.1377,-3.1377,-3.1377,-3.1377,-3.1377,-3.1377,-3.1194,-3.08,-3.0195,-2.9782,-2.9379,-2.8984,-2.8984,-2.8984,-2.8984,-2.8984,-2.8984,0.0,0.0,0.0,0.0,0.0,-0.8746,0.0,0.0,0.0,-0.9488,-0.9691,-0.9956,-1.0376,-1.0419,-1.056,-1.1075,-1.1113,-1.1165,-1.142,-1.1888,-1.2214,-1.2257,-1.2488,-1.2616,-1.2535,-1.2781,-1.3051,-1.3306,-1.3679,-1.391,-1.3948,-1.4307,-1.4529,-1.4567,-1.477,-1.5509,-1.691,-1.7216,-1.8646,-2.1076,-2.1085,-2.1596,-2.271,-2.2403,-2.2264,-2.2264,-2.2206,-2.2184,-2.2184,-2.2184,-2.203,-2.1767,-2.1503,-2.1518,-2.1715,-2.1832,-2.2191,-2.2674,-2.2996,-2.3325,-2.3684,-2.421,-2.4466,-2.462,-2.4883,-2.5008,-2.5052,-2.4774,-2.4638,-2.4503,-2.4231,-2.4231,-2.4231,-2.4503,-2.4367,-2.4231,-2.4503,-2.4367,-2.4095,-2.4231,-2.4095,-2.3959,-2.3543,-2.5135,-2.6722,-2.7254,-2.9248,-3.0982,-3.1377,-3.1442,-3.1396,-3.1267,-3.1322,-3.1276,-3.1148,-3.1148,-3.1148,-3.1148,-3.1148,-3.1148,-3.1148,-3.0772,-3.0241,-2.958,-2.9498,-2.9305,-2.8984,-2.8984,-2.8984,-2.8984,-2.8984,-2.8984,0.0,0.0,0.0,0.0,-0.8685,0.0,-0.8732,0.0,-0.9063,-0.9091,0.0,-0.9526,-0.9941,0.0,0.0,-0.9847,-1.0301,-1.0532,-1.0206,-1.0839,-1.1406,-1.16,-1.1968,-1.2068,-1.1694,-1.2176,-1.2673,-1.3074,-1.3325,-1.3537,-1.3717,-1.3953,-1.4166,-1.4345,-1.4558,-1.5297,-1.6673,-1.803,-1.9546,-2.1076,-2.2313,-2.293,-2.3047,-2.2718,-2.2571,-2.2557,-2.2293,-2.2184,-2.2184,-2.2184,-2.2162,-2.2125,-2.2089,-2.192,-2.1767,-2.2315,-2.2564,-2.2674,-2.2996,-2.3325,-2.361,-2.3684,-2.4101,-2.4576,-2.4613,-2.4825,-2.5052,-2.5052,-2.5052,-2.5059,-2.4916,-2.4924,-2.4916,-2.5059,-2.5052,-2.5052,-2.5059,-2.4781,-2.4503,-2.4916,-2.451,-2.3959,-2.3959,-2.4224,-2.515,-2.7676,-2.8337,-2.9395,-3.1525,-3.1729,-3.1505,-3.0981,-3.0784,-3.0696,-3.0332,-3.0332,-3.0332,-3.0332,-3.0332,-3.0332,-3.0332,-2.9929,-2.9663,-2.9571,-2.9232,-2.903,-2.8984,-2.8984,-2.8984,-2.8984,-2.8984,-2.8984,-0.9587,-0.9408,-0.9247,0.0,0.0,0.0,-0.9091,0.0,-0.9162,0.0,0.0,0.0,0.0,0.0,0.0,0.0,-0.9866,-1.006,-1.013,-1.0442,-1.0825,-1.1279,-1.1595,-1.1808,-1.1869,-1.2332,-1.2706,-1.288,-1.3088,-1.3291,-1.3504,-1.3712,-1.392,-1.4133,-1.4336,-1.5499,-1.7879,-1.8488,-2.0016,-2.2223,-2.2856,-2.3106,-2.3106,-2.2967,-2.2908,-2.2901,-2.2776,-2.2718,-2.2718,-2.2718,-2.2608,-2.2454,-2.2645,-2.252,-2.2264,-2.2528,-2.274,-2.2923,-2.3062,-2.3201,-2.3347,-2.3537,-2.391,-2.4284,-2.4284,-2.4386,-2.4532,-2.4723,-2.4774,-2.4818,-2.5008,-2.5059,-2.5059,-2.5059,-2.5059,-2.5059,-2.5059,-2.4771,-2.4633,-2.4774,-2.4354,-2.4091,-2.4091,-2.4494,-2.5536,-2.7483,-2.8356,-2.9388,-3.1202,-3.1436,-3.1322,-3.0941,-3.0915,-3.0935,-3.0689,-3.0689,-3.0689,-3.0689,-3.0689,-3.0577,-3.0326,-3.027,-3.0064,-2.983,-2.9661,-2.9568,-2.9568,-2.9568,-2.9568,-2.945,-2.9222,-2.8984,-1.0069,-0.9932,-0.9804,-0.9743,-0.9644,-0.953,-0.9436,0.0,0.0,0.0,-0.9138,0.0,0.0,0.0,-0.9256,-0.9299,0.0,-0.9521,-0.9653,-0.9823,-1.0182,-1.0863,-1.1132,-1.1468,-1.2002,-1.2328,-1.2507,-1.2507,-1.2805,-1.3027,-1.3126,-1.3433,-1.3679,-1.3835,-1.4095,-1.5649,-1.8408,-1.8678,-2.0106,-2.2974,-2.3062,-2.3106,-2.3106,-2.3106,-2.3106,-2.3106,-2.3106,-2.3106,-2.3106,-2.3106,-2.2974,-2.2776,-2.3018,-2.2959,-2.2754,-2.2754,-2.2908,-2.3106,-2.3106,-2.3106,-2.3149,-2.3384,-2.3684,-2.3947,-2.3947,-2.4013,-2.413,-2.4371,-2.4437,-2.4496,-2.473,-2.4788,-2.4788,-2.4788,-2.4788,-2.4788,-2.4788,-2.4598,-2.4437,-2.4437,-2.4247,-2.4086,-2.4086,-2.4662,-2.5705,-2.7358,-2.8424,-2.9404,-3.1049,-3.1199,-3.1133,-3.1001,-3.0907,-3.084,-3.084,-3.0719,-3.0719,-3.0719,-3.0719,-3.0698,-3.0376,-3.0367,-3.0225,-2.9931,-2.9922,-2.9922,-2.9922,-2.9922,-2.9922,-2.9931,-2.945,-2.9222,-1.0371,-1.0258,-1.0206,-1.0081,-0.9634,-0.9389,-0.9503,-0.9474,-0.9266,0.0,0.0,0.0,0.0,0.0,0.0,0.0,0.0,0.0,0.0,-0.868,-0.937,-1.0206,-1.048,-1.0924,-1.1746,-1.1841,-1.1846,-1.1846,-1.2427,-1.2687,-1.2484,-1.306,-1.34,-1.341,-1.3807,-1.5222,-1.7871,-1.8495,-2.0002,-2.2645,-2.2959,-2.3106,-2.3106,-2.3106,-2.3106,-2.3106,-2.3106,-2.3106,-2.3106,-2.3106,-2.3098,-2.3091,-2.3106,-2.3098,-2.3091,-2.3091,-2.3098,-2.3106,-2.3106,-2.3106,-2.3106,-2.312,-2.3347,-2.361,-2.361,-2.383,-2.4086,-2.4093,-2.4101,-2.4101,-2.4108,-2.4115,-2.4115,-2.4115,-2.4115,-2.4115,-2.4115,-2.4108,-2.4101,-2.4101,-2.4093,-2.4086,-2.4086,-2.4093,-2.4986,-2.7647,-2.8143,-2.9012,-3.1285,-3.1556,-3.1295,-3.0556,-3.0434,-3.0313,-2.9969,-2.996,-2.996,-2.996,-2.996,-2.996,-2.995,-2.995,-2.9931,-2.9922,-2.9922,-2.9922,-2.9922,-2.9922,-2.9922,-2.9922,-2.9922,-2.9922,-1.0759,-1.0783,-1.0801,-1.0452,-1.0362,-1.031,-1.0107,-0.9894,-0.9719,-0.9649,0.0,0.0,0.0,0.0,0.0,0.0,0.0,0.0,0.0,-0.8675,-0.9015,-0.9578,-1.0192,-1.0792,-1.135,-1.1657,-1.1817,-1.1817,-1.2276,-1.2517,-1.2446,-1.2781,-1.3102,-1.3381,-1.434,-1.585,-1.7841,-1.9178,-2.0686,-2.2623,-2.2952,-2.3106,-2.3106,-2.3106,-2.3106,-2.3106,-2.3106,-2.3106,-2.3106,-2.3106,-2.3106,-2.3106,-2.3106,-2.3106,-2.3106,-2.3106,-2.3106,-2.3106,-2.3106,-2.3106,-2.3106,-2.3106,-2.3186,-2.3274,-2.3274,-2.3354,-2.3479,-2.3698,-2.3764,-2.3808,-2.4027,-2.4086,-2.4086,-2.4086,-2.4086,-2.4086,-2.4086,-2.391,-2.3764,-2.3764,-2.3588,-2.3435,-2.3435,-2.3435,-2.4379,-2.721,-2.7544,-2.8253,-3.0824,-3.1073,-3.0986,-3.0741,-3.0732,-3.0645,-3.0528,-3.0528,-3.0528,-3.0528,-3.0528,-3.0528,-3.0528,-3.0528,-3.0528,-3.0528,-3.0528,-3.0528,-3.0528,-3.0528,-3.0528,-3.0528,-3.0528,-3.0284,-1.1194,-1.1212,-1.1227,-1.0882,-1.0849,-1.0844,-1.0645,-1.0381,-1.0154,-1.0078,-0.9842,0.0,0.0,0.0,0.0,0.0,0.0,0.0,0.0,-0.8481,-0.8633,-0.9053,-0.9776,-1.0438,-1.0924,-1.135,-1.1628,-1.1704,-1.2025,-1.2252,-1.2328,-1.2535,-1.2843,-1.3258,-1.4154,-1.5647,-1.7696,-1.8816,-2.0442,-2.2469,-2.2784,-2.2996,-2.3106,-2.3106,-2.3106,-2.3106,-2.3106,-2.3106,-2.3106,-2.3106,-2.3106,-2.3106,-2.3106,-2.3106,-2.3106,-2.3106,-2.3106,-2.3106,-2.3106,-2.3106,-2.3106,-2.3106,-2.3106,-2.3106,-2.3106,-2.3106,-2.3179,-2.3501,-2.3508,-2.3501,-2.3823,-2.3823,-2.3735,-2.3735,-2.3735,-2.3735,-2.3735,-2.3574,-2.342,-2.342,-2.3252,-2.323,-2.372,-2.3479,-2.4029,-2.6954,-2.7158,-2.7984,-3.0528,-3.0889,-3.0889,-3.0889,-3.0889,-3.0889,-3.0889,-3.0889,-3.0889,-3.0889,-3.0889,-3.0889,-3.0889,-3.0889,-3.0889,-3.0889,-3.0889,-3.0889,-3.0889,-3.0889,-3.0889,-3.0889,-3.0889,-3.0655]}]]